GFSGL_sfc_rhum_000.txt.gz
RH
50 50 52 53 52 51 51 50 49 48 48 47 46 47 49 52 52 55 58 63 71 71 74 76 77 75 76 78 78 77 81 80 90 75 71 77 85 88 90 80 80 78 81
53 55 56 56 58 59 58 56 54 54 52 50 49 48 47 48 51 57 56 57 63 66 68 74 71 72 80 80 78 80 80 78 86 88 78 86 86 87 87 84 80 69 80
60 62 63 64 65 65 62 58 56 56 54 54 54 55 54 54 52 50 52 54 58 62 66 69 69 72 75 76 81 83 79 81 85 90 87 86 95 87 89 87 84 76 70
63 65 65 67 64 60 57 56 54 52 53 54 52 52 53 53 53 52 52 61 72 66 70 73 71 73 74 73 75 84 86 87 87 91 89 91 93 91 91 90 88 83 78
54 60 61 64 56 55 54 52 51 51 50 51 50 50 49 51 45 59 59 60 66 67 67 68 70 76 83 84 81 80 85 91 88 92 93 97 97 96 94 93 93 86 85
55 54 55 55 54 56 54 53 53 53 52 50 50 52 50 46 64 69 70 70 68 70 72 69 70 81 80 85 88 89 88 90 89 89 94 97 96 93 96 95 95 96 94
53 49 48 45 46 49 49 48 49 48 45 50 52 51 53 51 64 69 83 74 73 71 73 75 72 72 83 82 83 89 94 93 96 94 97 96 92 91 93 97 95 92 88
44 44 42 43 43 42 42 42 42 41 43 42 44 51 52 50 67 80 83 60 65 69 72 73 74 78 79 84 86 89 86 91 93 95 95 94 93 92 93 91 92 92 89
41 38 39 39 39 39 40 38 36 38 41 38 37 42 51 48 66 75 63 56 66 70 65 64 65 74 77 87 94 93 88 91 98 98 99 97 97 96 94 94 96 92 84
30 31 31 33 34 35 34 33 30 34 32 33 31 36 47 48 60 67 61 57 62 68 67 67 76 78 80 82 90 95 97 93 99 100 99 98 98 97 92 90 89 88 95
27 27 28 28 29 28 30 30 30 29 33 33 32 31 38 43 39 58 59 56 62 64 58 63 67 79 83 84 85 91 95 93 98 99 99 98 98 98 97 96 94 90 95
28 28 28 28 26 24 28 30 29 29 30 35 33 35 38 33 49 52 59 64 66 65 65 62 67 76 84 87 89 89 92 96 99 98 98 96 95 96 98 98 98 95 91
30 30 31 30 28 28 30 31 31 30 30 32 33 40 38 34 44 56 61 65 70 70 65 69 78 84 87 88 89 90 94 99 98 98 97 95 94 97 98 98 97 96 94
34 34 35 35 36 34 35 34 34 34 35 37 40 43 48 49 50 50 55 62 68 67 72 72 81 87 89 94 95 96 100 98 97 97 98 98 98 97 96 93 94 96 94
36 37 38 39 40 40 38 38 37 36 46 50 53 53 55 57 51 61 67 68 69 67 78 77 86 90 94 96 98 98 99 99 99 98 97 96 95 94 95 94 93 96 93
40 42 45 44 43 45 46 42 46 54 59 62 63 62 51 58 62 69 71 72 75 77 71 82 96 96 97 97 99 99 100 98 98 98 98 97 96 95 95 97 96 92 87
47 45 46 47 46 47 48 54 61 56 56 56 58 61 62 64 68 68 71 72 68 69 78 88 96 97 97 97 99 100 99 99 98 98 98 98 98 97 97 96 93 84 91
48 53 52 52 56 56 60 62 62 63 64 61 55 56 57 62 66 67 65 66 75 72 77 86 96 97 97 98 98 100 98 98 98 97 97 97 97 97 97 96 88 91 93
49 51 52 60 63 63 62 64 64 64 64 63 64 61 62 60 61 64 66 74 84 81 75 79 89 97 97 98 99 99 99 98 98 97 97 97 97 97 97 87 87 81 87
54 58 59 61 63 64 66 68 68 69 69 69 73 76 65 67 74 73 74 80 81 81 73 80 92 97 97 98 99 99 99 98 98 97 97 97 97 97 87 87 89 93 94
61 61 61 62 67 67 67 70 71 73 76 73 72 70 65 66 75 76 77 78 80 81 78 85 96 97 97 98 99 99 99 98 98 98 98 97 97 90 86 88 92 91 91
61 63 66 68 66 67 67 66 68 70 74 78 76 74 69 71 80 77 75 80 80 73 77 92 94 97 97 98 99 99 98 98 98 97 97 97 94 85 86 90 90 90 94
64 64 63 64 64 65 68 74 76 74 72 73 73 73 75 76 74 76 77 80 77 75 84 87 85 97 97 98 99 99 98 98 97 97 96 96 87 88 88 90 92 91 94
63 66 67 65 65 66 68 71 71 68 66 68 70 74 77 75 76 75 80 84 82 83 88 80 82 98 97 98 99 99 99 98 97 97 96 92 85 84 91 91 91 88 91
68 69 68 71 72 70 71 72 74 70 71 68 70 71 75 77 79 84 86 85 84 91 83 82 85 97 97 99 99 99 98 96 97 97 95 84 88 89 92 90 87 91 90
68 68 67 67 71 73 73 74 76 79 80 78 75 82 84 83 84 90 88 85 79 89 82 84 85 98 97 99 99 98 97 96 96 95 81 83 83 87 87 86 90 92 94

GFSGL_sfc_rhum_003.txt.gz
RH
62 63 67 68 69 65 65 64 63 61 61 58 56 57 57 57 56 57 56 57 58 61 67 73 77 78 82 80 82 84 89 89 94 80 70 67 90 82 88 89 86 82 85
69 71 70 72 73 69 64 63 56 58 57 56 55 58 58 56 56 58 59 57 58 61 65 73 76 72 80 80 84 85 83 87 91 90 80 78 90 91 84 89 86 81 86
59 65 64 70 66 65 62 54 51 51 51 52 54 56 52 53 52 52 53 57 63 60 71 76 76 77 79 79 82 85 83 81 85 90 88 81 85 93 91 87 88 89 86
57 62 58 67 59 56 53 53 52 51 53 54 53 50 49 52 52 50 59 52 56 63 70 74 73 77 80 79 81 83 83 87 86 86 89 91 88 96 91 91 96 92 91
58 59 58 55 46 46 49 51 50 50 50 51 47 45 54 50 47 57 54 58 69 80 79 73 71 77 86 83 84 86 90 90 90 88 86 86 94 99 98 96 95 93 94
49 48 48 45 45 47 46 45 46 47 46 46 46 55 47 49 61 66 67 75 72 66 62 63 69 77 76 82 86 90 93 94 91 90 88 89 87 94 96 96 95 99 99
44 43 38 39 42 42 41 42 43 43 41 39 50 43 46 49 57 68 69 61 51 57 68 66 72 60 65 67 75 80 83 87 90 96 96 92 93 91 94 94 95 94 93
45 32 32 34 35 36 36 37 37 38 36 35 39 34 41 33 54 65 77 47 50 57 65 66 71 61 67 78 82 84 84 83 83 88 89 87 89 92 94 94 92 98 98
34 29 29 29 31 32 34 33 33 32 34 31 30 35 30 34 51 69 54 46 44 50 57 68 52 57 66 74 80 87 84 84 79 83 94 97 98 98 98 99 99 99 97
30 31 30 30 31 32 31 30 30 31 30 30 27 28 41 37 60 54 47 43 50 52 67 57 61 62 69 73 74 84 94 86 84 85 90 89 97 96 98 97 96 98 98
34 34 34 32 33 32 31 30 31 33 31 32 30 29 36 41 34 50 55 53 52 63 66 69 63 67 75 76 81 85 91 89 92 95 96 99 99 99 99 99 98 97 98
37 37 36 35 34 31 35 36 36 37 37 34 34 38 34 33 43 47 52 58 59 65 71 69 66 73 73 81 83 86 87 89 94 97 99 99 99 99 100 100 100 99 98
40 39 39 38 37 36 40 41 41 39 40 39 41 45 47 46 46 54 55 56 62 67 65 68 74 71 77 82 81 85 90 97 97 99 99 99 100 100 98 98 98 98 98
42 43 42 42 43 42 43 42 44 46 46 47 52 59 59 57 57 53 54 61 64 65 66 70 68 65 77 82 84 86 95 98 99 99 100 100 99 99 98 98 97 98 96
46 43 44 46 47 47 46 46 46 45 52 57 61 62 65 66 57 61 62 60 65 63 68 68 65 69 82 87 96 92 94 97 99 99 99 98 98 98 97 98 97 98 97
46 46 49 49 49 50 51 49 52 57 60 60 60 59 54 57 60 62 62 67 65 64 74 73 74 77 84 91 94 96 96 97 98 99 99 98 97 97 97 98 97 98 97
55 51 50 51 50 52 54 60 66 62 60 60 60 58 59 60 59 60 62 65 63 66 76 84 84 87 82 96 96 97 97 97 99 99 99 98 98 97 97 97 97 97 96
54 57 55 54 58 60 63 67 68 68 71 67 60 61 58 59 59 62 63 61 71 73 78 84 88 90 86 96 97 97 97 96 98 98 98 98 98 97 97 97 97 97 94
54 56 57 61 65 66 65 67 68 69 69 68 67 62 61 64 65 66 63 72 82 83 83 85 88 86 90 96 97 97 98 97 98 98 98 98 98 98 97 97 95 85 90
62 58 59 62 64 66 67 70 68 69 70 73 77 75 65 71 87 76 75 79 79 83 84 86 84 86 89 93 98 98 97 98 98 98 98 98 98 98 97 94 95 96 98
61 61 63 62 68 70 69 70 72 76 83 78 72 71 65 65 74 79 83 80 80 79 79 82 89 88 81 92 98 98 97 98 99 98 98 98 98 97 93 94 95 95 94
63 65 66 68 68 68 69 69 69 73 80 75 73 67 64 67 80 87 85 84 84 85 78 79 91 82 82 95 98 97 98 98 98 98 98 97 97 94 94 95 95 94 95
63 65 66 66 68 69 70 76 82 81 76 75 74 71 66 67 72 80 84 83 85 86 79 87 88 82 84 94 98 98 98 98 98 98 97 97 95 93 92 94 92 95 95
65 68 74 73 71 69 73 74 75 73 73 74 68 68 70 70 72 75 81 87 88 85 83 90 84 83 91 93 97 98 99 99 99 98 97 96 92 92 94 92 92 91 93
66 70 71 72 73 75 75 79 80 74 70 67 69 69 72 73 76 83 85 90 91 86 89 86 84 83 92 95 98 98 98 97 98 97 96 93 92 90 91 92 93 95 95
67 69 72 74 76 75 75 76 79 80 82 82 80 84 83 82 83 86 90 91 89 88 87 86 86 85 92 97 98 98 98 97 97 94 89 88 87 89 90 92 92 95 96

GFSGL_sfc_rhum_006.txt.gz
RH
73 75 76 80 77 74 67 66 60 58 55 55 54 56 57 60 55 56 57 56 58 62 70 69 75 76 81 82 86 86 88 88 92 76 76 74 85 90 84 82 76 73 74
68 70 70 74 66 60 55 52 51 51 49 50 52 53 51 48 51 56 58 56 64 56 58 67 73 72 81 81 83 84 85 85 91 89 79 81 83 83 86 84 85 82 82
65 66 63 67 56 50 49 47 46 46 48 46 48 47 45 48 54 49 54 59 53 58 61 72 80 82 79 79 83 85 84 82 86 84 84 82 85 85 93 93 89 90 91
61 61 66 55 51 49 47 45 43 44 44 43 42 39 43 50 42 46 55 49 60 60 75 85 79 66 68 78 83 85 83 85 84 85 86 82 81 80 95 96 97 96 93
53 57 54 52 46 46 45 43 41 42 39 41 37 36 37 46 31 53 45 47 57 74 76 59 62 68 81 82 67 67 77 86 86 88 88 87 88 87 92 93 97 94 97
49 49 43 37 36 39 38 38 37 37 36 37 36 36 44 29 50 57 53 48 60 52 49 48 58 62 71 60 62 71 78 88 91 92 91 90 87 88 88 91 93 97 98
48 35 32 32 33 34 33 34 36 35 36 35 33 34 31 32 50 54 60 46 42 43 41 44 49 55 64 51 60 68 69 74 80 87 93 87 89 82 89 94 91 96 93
37 32 32 33 33 33 33 34 34 32 32 31 33 31 32 27 50 57 62 36 33 35 47 47 58 70 62 64 66 71 69 72 73 76 85 84 83 86 90 94 96 97 99
32 34 33 34 34 34 35 35 34 33 34 34 32 32 32 32 50 60 51 39 46 51 50 52 64 68 68 68 69 76 78 77 73 78 83 85 86 87 88 95 98 99 99
34 36 35 37 37 37 37 38 35 36 35 35 35 34 39 33 47 49 49 45 53 54 55 56 68 65 66 66 69 78 88 83 84 84 85 85 87 90 94 98 97 99 100
37 38 39 39 40 38 38 38 39 41 40 42 39 37 36 41 43 54 57 53 56 60 64 68 64 66 66 70 71 79 87 82 84 89 95 95 95 98 97 99 99 100 100
41 42 42 42 40 36 43 43 44 45 47 46 46 47 47 49 57 58 61 60 60 65 74 66 65 68 75 76 70 78 80 83 87 91 97 96 97 97 99 100 100 100 99
45 46 46 44 43 43 48 48 49 48 50 51 53 60 62 58 57 63 62 64 71 64 63 70 66 72 66 67 69 75 81 89 94 95 97 98 99 99 99 99 99 98 98
50 49 48 48 48 48 49 48 50 53 55 58 65 69 68 65 67 62 61 66 64 77 74 62 70 62 63 64 70 74 83 90 97 97 97 97 98 99 98 99 98 98 97
54 52 49 51 52 52 50 50 51 51 59 63 65 65 69 77 66 64 59 59 87 63 59 71 73 71 76 78 76 79 83 88 97 97 98 97 98 98 98 98 98 98 97
52 50 53 54 54 54 53 51 55 60 62 62 61 60 56 60 65 59 61 83 70 60 66 77 82 82 85 82 82 88 84 90 97 97 96 97 98 98 98 98 98 98 96
58 54 56 56 55 55 57 63 70 65 61 62 61 61 61 61 59 59 70 82 61 62 74 85 85 83 84 84 84 93 91 92 98 97 97 97 98 98 98 98 98 97 97
60 59 60 60 62 64 66 68 67 69 71 68 62 63 62 60 60 64 74 65 68 71 79 83 83 82 82 91 89 90 90 94 96 97 97 98 98 98 98 98 97 97 95
57 60 63 66 65 65 64 66 67 69 68 68 66 67 66 64 64 71 64 72 84 85 80 79 80 80 84 94 84 89 91 96 96 97 97 98 98 98 98 98 97 91 90
64 63 60 60 64 64 66 70 67 68 70 74 76 74 65 68 78 79 70 78 85 81 80 82 80 80 91 87 88 90 94 96 96 97 98 98 98 98 97 97 93 94 93
64 65 64 63 68 68 68 69 72 79 85 77 75 71 66 68 76 69 74 83 84 84 85 86 84 88 90 86 89 92 95 96 97 98 98 98 98 97 95 94 94 92 92
68 66 64 67 67 69 70 70 70 75 80 80 77 71 69 65 71 74 87 79 81 84 85 87 87 87 86 87 94 95 95 96 97 98 98 98 97 93 94 94 93 95 95
64 66 67 68 69 72 78 85 87 80 76 78 81 72 65 68 70 75 76 78 81 84 84 85 87 85 82 85 94 96 97 97 98 98 98 97 93 92 91 92 95 94 92
67 69 74 73 70 66 71 76 82 76 73 76 70 68 71 71 73 75 79 83 84 86 87 88 85 86 85 90 95 95 98 98 99 98 97 94 93 91 89 93 90 92 94
69 72 70 72 74 76 77 76 76 73 69 69 70 70 73 75 80 84 84 86 88 91 89 86 86 84 85 95 96 97 98 98 98 96 95 91 91 89 91 92 96 96 96
68 68 66 65 67 70 73 78 82 83 85 82 82 87 87 85 86 90 91 88 91 91 90 86 85 85 90 95 96 98 99 97 95 87 87 86 85 89 90 93 93 97 97

GFSGL_sfc_rhum_009.txt.gz
RH
72 72 76 74 70 64 55 55 53 54 51 50 47 49 46 45 47 56 53 52 60 60 55 63 67 71 84 85 82 82 84 88 93 76 73 73 80 84 81 90 88 84 78
67 66 69 60 50 48 49 47 44 43 43 44 41 41 37 41 46 50 44 55 51 52 58 64 70 76 83 79 75 77 85 85 91 92 78 77 80 75 76 85 86 88 88
60 64 58 51 50 49 48 43 40 41 41 38 39 39 37 39 47 40 37 51 42 44 53 62 82 70 78 67 74 87 82 66 74 82 86 79 76 77 82 81 87 91 92
54 55 47 45 46 46 46 43 40 39 37 36 37 36 36 37 36 32 44 43 45 52 60 76 60 59 66 66 76 70 60 76 83 84 81 81 78 76 82 92 92 92 96
51 46 45 45 42 43 43 40 37 37 34 35 35 33 34 33 25 38 42 47 58 43 38 42 42 54 58 65 71 71 69 77 84 82 82 80 80 81 83 84 87 83 85
45 38 39 38 39 40 38 37 36 36 35 35 34 34 35 29 43 47 49 54 46 37 36 36 47 53 51 67 67 66 68 75 81 83 82 84 83 82 84 89 90 93 94
38 35 37 38 40 40 38 38 38 38 37 36 35 35 35 35 46 50 52 47 42 44 49 52 52 48 62 72 70 69 71 68 68 74 84 85 84 80 81 87 86 90 96
35 36 39 40 40 40 40 39 41 39 38 38 38 37 38 35 49 52 52 44 49 50 52 54 57 62 67 66 65 60 69 69 71 70 79 81 82 80 88 89 90 91 92
36 38 39 41 41 41 42 42 41 41 42 41 40 41 42 40 51 53 54 52 55 57 56 57 64 63 64 62 63 71 71 70 63 74 77 78 79 79 82 91 90 95 95
38 40 41 43 44 44 44 44 42 44 43 42 44 43 48 44 52 59 58 57 64 64 79 76 67 63 63 64 63 72 93 95 89 84 82 81 78 81 84 94 98 98 98
41 43 46 47 48 46 46 46 46 49 48 50 48 48 49 52 57 62 62 58 61 84 84 68 64 67 71 62 65 73 87 77 82 86 88 85 84 86 85 92 96 99 98
46 48 50 51 46 41 50 50 52 53 55 53 55 56 56 57 61 62 64 62 65 64 66 72 71 62 62 62 61 62 61 70 81 89 89 90 90 92 93 98 98 99 99
50 53 53 53 51 50 57 54 56 54 55 58 60 67 67 61 61 66 68 70 63 62 74 71 62 62 64 64 67 68 72 80 97 95 94 93 95 98 99 98 99 99 98
56 58 55 58 53 54 57 56 55 58 60 61 68 70 71 72 68 63 74 63 62 73 93 61 60 65 68 68 73 74 79 80 85 93 95 96 95 91 96 98 98 99 98
57 57 58 57 63 60 58 55 54 54 62 64 67 67 70 75 65 61 66 57 62 95 60 64 65 73 78 73 74 76 79 78 85 85 96 96 94 91 94 98 98 98 98
56 54 57 59 63 61 58 55 56 60 62 62 62 61 56 61 62 62 60 65 75 63 62 72 79 80 81 80 82 80 82 81 84 92 96 96 96 96 97 98 98 98 97
62 56 60 62 63 62 63 66 71 64 61 63 63 62 62 62 61 60 64 68 67 58 74 84 82 81 84 84 83 89 90 84 92 94 97 97 97 97 97 98 98 97 97
64 62 61 62 66 67 67 66 66 69 70 68 62 63 63 62 61 61 67 60 60 66 83 84 82 84 85 85 86 91 90 88 93 94 96 96 97 97 98 98 98 97 96
60 63 64 69 69 64 62 64 66 68 67 67 66 66 64 66 66 76 62 60 74 92 83 80 80 87 87 86 90 90 91 93 94 95 96 97 97 98 98 98 97 94 91
66 64 63 63 64 63 64 67 68 68 69 74 75 72 68 74 93 72 67 74 80 82 78 82 81 82 86 90 90 91 93 94 94 96 97 97 98 98 98 97 95 94 92
69 69 66 64 67 65 66 70 72 80 89 77 76 68 67 72 77 73 75 76 76 83 84 85 87 84 87 89 88 92 94 94 95 97 97 97 97 97 95 94 92 90 89
70 69 66 67 66 69 72 72 72 77 80 79 76 72 76 67 73 77 78 79 80 84 84 87 86 86 87 88 94 94 94 95 95 97 97 97 96 94 92 88 89 92 90
67 69 69 71 72 72 72 80 85 78 80 78 77 72 66 69 71 78 79 80 82 85 83 86 88 87 83 86 93 96 96 95 97 98 97 97 95 91 89 89 94 96 96
69 71 72 71 71 68 71 74 72 71 70 69 70 69 72 72 73 76 81 85 86 86 86 87 87 88 85 90 94 95 96 97 98 98 97 96 92 88 89 94 94 95 96
72 74 72 72 70 70 70 71 72 72 72 73 72 71 73 75 80 84 85 88 91 91 86 85 88 84 85 94 95 96 97 99 97 95 95 91 88 90 95 96 96 97 97
71 69 66 65 68 71 74 79 85 85 86 85 84 89 88 84 84 88 91 92 90 88 89 88 87 85 88 95 95 96 99 93 91 76 89 92 91 93 94 96 96 95 94

GFSGL_sfc_rhum_012.txt.gz
RH
68 68 60 52 51 50 50 52 49 49 48 44 40 42 39 39 39 43 52 39 52 53 46 52 61 65 79 78 84 74 73 84 94 75 61 56 64 74 76 77 74 73 75
64 57 50 48 47 48 48 47 44 44 40 40 37 40 37 37 38 44 40 38 52 47 50 60 66 67 65 74 78 66 77 86 77 81 64 66 74 70 72 77 72 72 76
56 48 43 43 44 45 43 41 39 40 39 37 38 38 36 37 38 34 36 42 44 49 57 52 41 53 53 55 57 63 70 68 77 81 80 76 73 70 78 77 73 72 71
44 40 41 42 41 42 42 42 42 41 41 38 36 36 36 36 35 33 40 46 50 58 47 43 38 41 47 57 54 60 73 82 80 84 82 82 78 74 80 82 78 76 76
37 39 40 42 41 42 45 45 43 43 39 39 37 36 36 36 27 42 45 49 52 50 46 44 48 56 59 56 59 67 75 79 75 85 87 78 78 79 84 81 84 79 78
36 35 40 42 44 46 45 43 42 42 41 41 40 40 40 33 48 52 52 51 50 50 54 52 52 58 58 64 64 62 61 67 68 76 84 77 73 76 81 85 89 88 89
32 37 40 43 46 46 44 44 44 43 45 43 42 42 42 42 51 55 56 50 55 57 57 59 58 52 66 68 67 64 64 62 62 66 75 76 78 77 85 88 83 84 91
37 38 42 46 46 47 47 47 48 46 46 45 44 44 45 42 55 58 60 55 58 59 60 62 65 78 70 62 63 80 88 65 64 66 76 87 83 86 84 80 88 90 89
35 39 43 46 48 49 49 50 48 48 48 47 46 47 50 48 57 61 59 58 60 62 61 65 81 68 64 65 73 76 67 81 68 68 72 72 71 69 71 80 96 98 96
37 44 45 48 51 51 52 50 50 52 48 48 49 50 54 52 60 63 59 57 64 64 74 78 64 60 66 65 57 66 87 73 67 77 82 81 74 72 72 80 98 99 98
45 48 50 51 54 53 53 54 52 53 54 57 54 52 55 57 62 63 62 55 60 78 78 61 60 75 74 60 60 68 71 62 81 83 81 84 80 81 88 96 98 99 98
50 52 54 55 50 45 57 56 59 60 61 57 57 60 59 61 63 63 63 61 62 66 62 59 74 84 61 61 65 67 66 68 77 85 87 88 86 86 87 94 93 98 98
55 55 56 55 55 55 63 61 61 60 59 60 60 67 67 62 64 67 66 69 70 59 59 86 72 63 61 66 67 67 68 74 82 92 90 91 86 87 95 87 91 95 98
59 60 59 62 58 62 60 61 66 62 64 60 67 70 71 69 71 67 69 72 67 65 89 90 65 61 64 66 68 70 73 77 81 92 93 89 85 88 92 89 97 96 99
59 58 60 59 69 66 62 66 61 58 64 65 65 66 72 75 68 62 66 57 64 66 62 59 64 68 73 71 71 73 76 77 91 89 89 89 88 93 93 89 97 98 98
60 55 57 61 68 62 63 62 59 61 61 60 61 61 57 62 65 66 62 64 73 57 54 63 83 79 78 77 81 80 80 80 84 87 91 92 92 96 93 94 98 98 98
64 58 62 64 67 66 69 71 72 61 60 62 63 62 63 63 62 61 67 70 60 58 68 88 84 79 79 81 86 86 88 84 89 94 94 95 94 96 96 96 98 98 97
66 62 62 65 68 70 70 67 64 68 70 68 62 63 63 62 62 63 69 61 59 67 80 86 82 80 83 89 86 88 89 90 92 94 94 94 97 97 97 98 98 97 96
62 64 66 70 71 67 63 64 65 67 68 69 66 68 63 66 68 82 64 64 79 81 78 81 81 83 89 87 86 88 91 94 94 94 94 96 96 97 97 98 98 94 92
69 66 66 65 66 64 66 67 68 69 72 75 79 72 67 75 94 74 69 76 80 79 79 83 84 86 88 87 89 92 94 93 94 94 94 97 96 97 97 96 95 96 95
72 72 69 67 69 67 68 72 75 84 79 76 76 68 68 75 76 74 76 77 78 85 87 85 88 88 87 88 92 93 94 94 94 95 96 97 96 97 96 95 94 93 92
75 71 70 71 69 72 72 68 69 76 77 74 75 67 68 66 74 78 76 78 79 84 85 86 88 86 88 92 94 94 94 94 94 95 96 96 96 94 91 89 86 87 88
72 72 72 74 73 71 72 72 74 73 73 72 74 68 66 68 72 77 77 78 83 83 83 85 85 86 84 90 94 95 96 95 95 97 97 97 96 95 94 93 91 88 94
72 75 76 74 73 68 69 70 70 71 70 69 72 70 72 71 75 77 82 84 85 86 86 85 84 87 88 93 94 94 96 96 98 98 98 97 96 90 90 91 90 91 94
77 77 76 75 71 69 70 72 72 73 75 75 76 72 75 78 80 83 84 87 91 91 86 85 85 84 93 95 95 96 96 97 90 89 96 92 89 95 94 94 95 98 98
74 72 69 67 70 72 76 81 86 85 86 85 85 87 84 84 86 90 92 91 91 88 89 86 83 89 95 94 95 96 93 78 82 70 88 88 93 94 95 98 98 97 98

GFSGL_sfc_rhum_015.txt.gz
RH
40 33 30 30 29 28 28 30 30 30 30 29 27 28 27 27 26 28 29 28 33 39 40 47 52 47 44 46 56 55 56 56 68 52 53 51 52 52 50 52 50 45 54
36 30 29 28 28 27 28 29 29 29 28 28 27 27 26 27 28 27 29 32 37 42 43 52 44 34 42 42 44 49 56 58 66 73 73 57 55 56 58 63 54 54 55
30 27 27 28 28 28 29 30 29 29 29 28 29 29 28 30 30 29 31 37 40 42 44 46 42 42 44 47 53 57 60 56 67 76 68 58 62 61 62 61 63 61 56
28 28 29 30 31 31 32 31 32 31 32 31 30 30 31 31 32 30 39 42 43 43 44 46 44 46 47 52 53 59 58 66 66 71 70 66 63 59 66 68 69 64 65
27 30 32 33 34 34 35 35 34 34 33 34 34 32 33 34 26 42 44 46 47 47 48 46 47 54 62 59 56 60 65 68 70 72 72 70 67 65 68 65 70 69 71
29 30 34 35 36 38 37 36 36 36 35 36 35 35 36 32 50 55 54 50 50 51 52 51 49 58 58 67 66 64 62 74 77 92 78 72 67 68 72 75 82 82 94
29 31 34 36 38 39 38 38 38 38 38 37 36 36 37 38 54 58 60 51 52 51 52 53 54 50 65 64 68 67 78 68 61 64 74 81 83 71 85 96 97 97 84
31 32 36 38 39 39 39 38 40 39 39 38 37 39 40 38 58 60 63 50 51 50 51 54 56 68 62 58 58 93 59 53 58 61 63 65 68 72 72 72 78 80 84
32 34 37 39 40 40 39 40 40 41 40 39 40 41 42 44 58 64 59 51 52 53 51 52 72 55 57 63 94 66 58 60 59 62 62 65 66 68 68 76 94 92 89
35 39 39 41 41 41 41 42 42 43 43 44 43 44 51 46 60 64 58 51 56 55 60 67 60 53 62 87 60 59 72 68 68 65 66 66 67 69 72 75 92 98 95
39 42 42 41 43 41 42 44 45 46 47 48 48 44 46 50 54 63 62 52 55 72 77 58 50 61 95 64 59 57 66 61 67 68 71 72 73 72 76 77 97 98 98
44 45 43 42 42 40 47 47 48 51 52 51 49 50 51 51 60 61 62 62 62 61 63 55 60 94 62 59 58 64 65 65 68 76 80 80 81 83 83 85 88 98 98
46 44 44 43 43 46 51 50 52 52 55 53 54 59 60 55 56 65 67 72 68 59 56 73 70 56 55 59 63 64 67 70 78 86 86 86 84 85 87 89 88 100 94
46 46 43 45 48 47 52 52 55 56 58 55 59 61 65 63 62 60 65 69 64 71 91 53 53 55 62 64 60 62 66 71 78 86 88 86 83 86 86 84 94 91 95
47 45 46 47 52 56 55 53 52 52 59 60 59 60 69 73 63 63 62 54 62 78 54 51 51 62 68 61 62 65 69 70 80 80 86 88 86 85 85 84 96 95 95
48 44 48 52 56 55 56 56 60 63 61 60 62 61 56 62 66 64 62 64 72 60 54 59 69 76 73 68 70 74 74 76 80 87 89 89 91 93 93 94 96 96 96
53 51 54 57 57 58 62 65 68 57 60 61 63 63 64 63 62 62 64 75 61 60 62 75 76 75 76 76 79 83 86 81 89 93 93 93 94 92 95 95 96 95 94
56 64 55 57 61 64 64 63 59 62 65 62 60 64 64 63 63 63 68 60 55 61 73 80 81 77 77 81 83 87 90 89 91 93 93 94 95 96 96 96 95 95 94
57 57 58 62 64 63 59 60 61 62 64 64 64 62 60 65 69 70 65 58 72 75 77 78 76 78 82 84 84 89 92 93 93 94 94 95 96 96 96 95 92 89 85
60 63 65 61 62 61 63 64 65 65 69 67 66 66 60 68 85 68 64 70 74 76 74 78 79 80 84 86 90 93 93 93 94 94 94 95 95 94 92 89 84 85 83
64 66 70 62 66 64 66 68 69 72 71 71 64 62 69 70 72 70 70 72 72 78 82 81 82 85 85 86 91 93 93 94 94 95 93 94 93 90 81 75 72 74 79
68 68 68 68 66 69 68 63 66 68 66 69 68 63 70 64 70 71 70 74 76 79 78 82 86 84 84 93 94 94 94 94 94 93 93 93 88 79 75 71 74 88 89
69 70 69 69 69 70 68 66 66 66 67 68 68 64 62 63 65 73 77 75 78 80 78 82 84 85 86 93 94 95 95 94 94 95 94 90 78 72 73 71 74 87 86
70 71 72 69 69 64 63 64 64 68 66 66 68 66 68 67 71 73 75 78 82 81 82 81 81 88 93 93 93 94 95 95 95 88 87 78 78 89 87 87 88 90 88
72 70 70 70 68 64 65 67 69 71 73 74 72 70 71 72 74 78 79 82 88 85 83 82 85 93 94 95 95 95 95 74 83 83 75 84 94 95 92 90 91 90 91
69 68 65 63 65 67 72 79 84 84 86 82 81 82 80 81 82 84 87 87 86 84 86 83 90 95 94 93 94 92 72 68 70 69 84 90 90 91 90 93 95 92 92

GFSGL_sfc_rhum_018.txt.gz
RH
24 21 20 18 16 16 17 17 18 17 18 18 17 17 17 18 18 18 19 21 25 28 29 31 34 37 35 32 34 34 36 40 52 45 41 38 37 40 37 36 39 37 39
22 19 19 19 17 16 17 18 17 17 17 18 18 18 18 18 19 20 21 23 27 30 31 33 34 29 36 34 34 38 42 42 54 67 48 43 44 40 40 42 36 32 37
20 18 18 18 18 18 18 19 18 19 19 19 20 20 20 22 23 22 21 26 29 31 32 35 36 37 37 38 40 43 44 45 54 60 58 50 49 44 45 44 44 41 33
20 20 20 21 21 21 21 21 21 21 22 22 22 22 23 22 24 21 29 32 33 33 36 38 37 38 40 43 44 45 54 57 53 60 66 61 55 51 49 52 50 46 51
19 22 23 24 23 23 24 24 23 24 24 24 25 23 23 25 19 35 39 39 39 38 38 36 37 45 55 52 49 58 63 59 66 70 71 60 53 52 55 53 67 57 56
20 21 24 24 25 27 26 25 25 25 25 26 25 23 24 22 40 50 53 46 42 40 40 37 36 44 44 58 62 58 56 65 71 78 65 59 56 57 61 59 68 76 80
20 21 22 24 26 26 26 25 27 28 27 26 25 24 24 26 42 55 60 48 43 39 38 38 37 33 49 54 53 56 61 83 76 57 61 63 70 60 63 75 83 84 81
21 21 24 26 25 25 24 24 26 25 26 25 25 26 29 26 46 55 63 46 40 39 38 39 39 46 54 50 48 63 79 52 48 43 52 59 69 74 69 68 77 81 78
22 22 24 25 26 25 25 26 26 27 27 26 28 29 29 30 48 58 56 44 42 40 38 39 50 51 52 56 67 94 66 54 45 55 62 63 61 62 63 72 92 89 88
23 25 25 25 26 25 26 27 28 28 29 29 29 27 37 33 48 57 54 45 46 43 47 50 55 49 56 68 72 51 73 58 58 63 57 56 59 60 65 69 88 96 93
26 27 26 25 25 25 27 28 29 30 31 30 29 28 32 38 42 56 59 48 48 60 64 54 46 58 67 59 56 50 59 55 60 60 60 64 64 65 69 73 78 96 95
28 28 27 26 26 26 30 30 28 29 31 30 30 36 36 36 49 53 59 59 60 64 59 50 55 70 56 56 55 61 60 61 59 68 74 74 76 78 80 82 82 86 88
28 27 26 27 27 28 29 31 30 30 32 34 38 42 41 41 40 54 57 62 65 56 49 64 69 56 56 54 61 60 60 61 70 79 83 84 82 83 86 86 88 89 89
28 27 27 28 32 29 31 30 31 32 37 40 45 47 50 47 46 47 55 60 60 56 77 69 52 52 54 56 53 53 57 63 71 82 87 86 83 83 84 83 93 90 94
28 27 28 30 30 31 30 30 35 38 49 55 54 54 57 58 52 58 62 52 57 68 62 50 46 47 57 55 55 58 61 64 79 85 89 88 84 84 87 88 92 94 96
31 30 32 35 32 32 32 33 43 51 56 58 62 59 51 59 62 63 61 64 74 63 53 51 57 65 67 60 62 64 68 78 86 89 88 89 92 93 93 93 96 97 95
34 33 34 33 30 34 36 41 45 41 50 53 56 58 61 62 61 62 65 74 63 56 55 66 70 69 68 69 72 77 88 88 94 93 93 93 93 93 95 95 95 95 94
38 49 39 35 39 41 42 44 43 45 47 44 48 54 58 59 62 63 66 60 50 54 65 72 72 70 71 75 78 89 90 90 91 92 93 94 95 96 96 95 95 95 87
40 37 37 40 42 48 45 44 45 46 47 46 44 47 49 58 62 63 61 53 64 69 68 69 69 72 75 78 87 91 92 93 93 94 93 94 93 94 91 88 84 78 78
38 48 53 44 44 44 46 46 47 47 47 47 48 48 45 60 73 61 59 62 65 66 66 72 72 75 78 88 92 92 93 92 93 92 91 92 92 88 83 75 68 76 78
39 42 54 48 48 48 48 49 49 50 51 50 48 47 65 69 67 63 63 64 66 70 73 74 78 79 85 91 93 93 93 92 92 93 92 91 88 84 70 66 78 89 91
44 45 49 52 50 49 48 50 49 49 50 52 51 51 64 55 61 64 64 69 68 70 70 76 80 82 92 94 94 93 91 92 91 91 91 86 84 81 82 75 75 85 90
47 52 51 49 48 53 48 48 50 50 52 53 54 53 52 55 60 66 69 66 71 73 71 74 80 91 90 93 93 95 95 94 93 94 86 83 87 86 84 84 83 83 82
53 52 49 46 46 48 46 47 50 56 55 55 57 57 61 65 63 63 67 72 73 74 76 77 87 93 93 92 92 93 94 95 89 82 84 90 88 87 86 86 86 89 86
50 48 46 45 45 46 48 51 54 57 61 63 64 64 66 63 66 72 71 75 80 80 78 80 89 92 93 94 93 93 90 70 79 95 89 89 92 94 92 88 88 84 88
47 44 43 43 46 48 56 64 70 72 76 73 73 76 74 72 73 78 78 79 82 81 82 83 90 93 93 91 91 90 72 81 96 93 87 86 90 89 88 90 88 84 88

GFSGL_sfc_rhum_021.txt.gz
RH
26 23 22 19 17 17 17 16 16 15 15 16 16 16 17 18 18 19 21 22 23 27 30 32 34 33 36 36 40 41 43 45 53 47 42 46 46 44 42 42 43 42 41
24 21 21 21 19 18 17 17 15 16 16 17 17 18 18 19 20 20 22 22 24 29 31 34 35 29 39 40 40 43 45 45 52 60 55 52 47 47 48 49 41 36 41
22 21 21 21 20 18 17 18 17 18 18 18 20 21 21 22 22 21 21 22 28 31 33 36 37 39 40 42 43 48 48 46 59 66 63 52 53 54 55 45 39 41 37
22 22 23 22 21 20 19 20 19 19 21 22 22 23 24 22 23 23 25 32 35 35 38 39 39 39 40 43 45 50 55 65 66 67 62 64 63 58 52 52 52 53 54
21 23 24 23 22 21 23 23 21 22 23 24 25 24 24 25 19 30 36 41 44 43 41 37 37 45 50 47 42 53 63 75 63 67 78 79 87 62 60 55 61 58 57
21 21 22 22 22 24 24 24 23 24 25 26 26 25 25 22 36 42 44 47 47 46 44 39 36 46 42 48 53 56 57 60 64 78 87 93 69 57 56 63 70 78 84
21 20 20 21 22 23 23 23 25 26 26 27 25 25 25 27 39 44 50 48 50 45 41 40 37 32 46 50 57 59 58 60 71 71 72 72 62 55 66 81 89 85 76
22 20 20 21 22 22 22 23 25 24 26 25 26 26 29 25 40 45 52 49 45 44 41 40 41 47 53 55 52 75 78 72 61 46 54 53 57 66 83 72 69 79 82
21 19 20 21 22 23 23 25 25 26 27 27 28 29 28 27 40 47 50 47 49 46 42 43 48 51 56 59 69 92 64 54 49 56 58 59 58 59 60 65 91 92 88
20 21 20 21 22 23 24 26 27 27 28 28 28 26 31 28 42 49 49 48 53 50 52 56 59 51 58 70 68 54 68 59 73 65 58 56 57 60 63 67 83 96 92
21 22 22 22 22 23 26 27 28 28 29 28 27 25 28 32 37 48 52 47 50 55 70 60 52 58 68 69 55 51 58 65 63 60 60 64 66 67 69 71 76 93 95
23 24 24 24 24 24 28 28 27 28 29 27 28 33 34 33 45 48 53 55 54 61 65 56 53 84 63 54 54 57 59 59 59 67 75 78 78 79 80 81 81 84 85
24 24 24 25 26 26 28 29 29 28 28 29 34 41 43 43 43 53 55 57 61 56 52 59 88 58 54 52 56 58 59 62 69 86 89 85 83 84 85 85 87 87 86
24 24 26 27 29 28 30 28 27 28 35 39 47 53 56 54 52 50 51 59 62 61 76 88 54 53 54 55 56 56 59 63 70 85 91 87 83 86 89 90 96 93 96
26 27 28 30 29 30 29 26 27 30 42 51 56 57 62 61 55 57 58 53 62 70 65 54 52 53 61 60 59 61 64 67 89 87 90 90 89 89 91 92 94 96 97
31 31 31 33 30 31 29 28 37 44 46 48 52 52 48 56 59 59 60 63 71 62 55 56 62 68 70 65 66 67 74 80 85 90 91 92 94 94 94 93 96 98 97
35 34 34 36 30 30 33 36 42 41 45 47 48 50 52 55 56 58 62 69 62 57 58 69 72 71 71 71 74 85 91 86 92 94 94 94 94 94 93 94 90 93 90
36 44 38 33 36 37 37 42 42 43 44 43 44 48 50 52 55 59 65 60 56 59 68 73 74 72 73 77 88 92 91 88 91 93 93 91 92 94 94 90 87 88 88
38 38 37 42 44 44 42 42 42 43 44 44 44 46 47 52 59 63 60 57 67 70 70 73 72 74 77 89 92 92 93 93 92 93 92 93 94 96 95 95 95 92 93
39 44 44 42 43 43 43 44 45 45 46 48 49 49 45 58 80 64 62 65 68 71 72 74 74 77 90 93 93 93 92 90 91 92 93 94 94 96 96 95 94 95 96
40 40 46 42 44 46 47 46 47 52 52 50 49 46 59 64 66 64 65 66 70 73 74 75 79 87 92 93 93 91 90 91 90 92 94 94 95 94 93 95 95 94 96
42 42 44 49 49 47 45 47 47 48 50 51 51 50 60 56 62 66 68 70 70 72 73 76 84 92 94 95 94 94 93 92 92 94 93 93 93 92 95 95 95 94 96
46 49 48 47 46 48 44 45 48 48 51 53 54 54 55 57 61 69 70 69 74 75 73 76 90 92 88 91 93 95 95 94 95 97 95 93 92 93 96 96 96 96 96
53 49 47 45 43 43 43 43 47 51 52 55 59 60 64 65 66 67 71 75 76 76 77 80 89 92 92 92 91 91 94 96 97 96 98 97 95 94 96 96 97 98 98
50 47 44 43 41 42 44 48 53 57 62 64 66 67 68 67 70 76 76 79 81 81 80 81 86 92 92 92 92 94 95 96 95 98 98 97 97 98 98 98 98 98 96
47 44 41 42 45 46 54 66 74 76 79 77 77 78 76 77 76 82 82 80 83 83 83 82 85 90 91 91 93 95 93 96 97 92 98 97 97 97 97 98 98 98 94

GFSGL_sfc_rhum_024.txt.gz
RH
34 31 30 27 26 25 25 24 23 22 23 23 24 25 26 27 27 30 31 29 30 34 34 35 40 38 43 45 48 51 52 53 61 55 48 44 54 51 46 46 48 47 49
31 30 30 29 27 26 24 24 23 24 24 25 26 28 28 30 31 31 30 31 34 37 38 41 42 36 45 45 50 48 53 53 57 62 59 62 56 53 50 51 50 44 44
31 30 30 30 28 27 26 26 25 26 27 29 30 32 32 34 33 32 29 34 39 42 45 47 48 47 48 49 49 52 51 47 64 75 74 64 61 55 59 60 61 52 41
31 32 33 31 30 29 28 30 30 29 30 33 34 34 36 34 31 30 34 41 45 46 51 52 50 49 48 47 46 48 48 61 68 73 79 87 65 62 67 93 64 55 50
31 34 34 31 29 30 33 33 31 33 33 35 36 36 36 33 25 33 38 45 50 53 54 51 50 51 54 48 43 50 58 60 73 95 91 80 78 76 75 64 62 56 59
31 31 30 29 29 33 33 33 34 36 36 36 37 37 37 27 39 43 41 44 50 55 58 53 46 48 48 53 55 56 54 70 80 95 94 82 62 59 66 69 70 77 86
29 27 26 27 30 32 32 33 35 37 38 38 38 36 37 38 41 42 44 42 53 56 55 52 48 40 53 53 60 65 90 79 70 68 65 63 64 77 86 84 88 92 90
29 24 25 28 29 31 32 33 36 37 38 38 38 38 40 32 40 42 46 47 53 55 54 53 53 54 59 57 58 80 83 78 62 54 55 56 67 62 64 64 69 78 80
27 25 25 27 30 32 34 36 37 39 41 41 38 38 38 33 42 44 45 48 51 54 52 53 59 61 61 60 65 95 80 65 60 57 70 70 59 59 59 62 91 94 88
26 27 27 29 31 33 35 38 39 41 38 36 34 34 40 34 44 46 46 47 53 55 58 65 69 59 59 67 69 59 72 62 62 78 60 59 60 64 66 69 82 96 93
28 29 30 31 33 33 37 40 41 41 40 41 36 34 38 42 45 51 55 49 53 58 80 74 67 62 76 69 58 54 58 57 67 62 62 66 70 75 74 76 81 96 95
31 32 34 34 32 30 39 42 41 42 43 40 39 43 45 48 55 57 58 57 58 64 66 61 59 75 60 58 56 59 60 60 62 69 77 83 81 84 85 84 84 87 91
32 33 34 35 36 36 41 43 43 42 42 41 44 52 58 57 57 60 60 61 66 61 59 66 80 62 57 56 59 61 61 66 72 90 91 88 89 90 90 90 89 87 87
34 35 38 40 41 41 44 44 43 42 44 44 52 59 62 59 60 57 53 63 62 65 79 88 62 57 58 60 60 60 64 67 83 92 93 91 91 93 93 93 95 91 95
39 41 42 45 45 46 44 41 41 42 50 49 54 56 60 60 56 54 54 51 59 70 61 61 56 59 67 64 63 65 67 74 92 91 93 92 90 90 89 87 95 94 94
45 47 50 51 50 50 46 40 43 45 48 49 50 49 47 51 54 56 56 60 64 61 58 61 70 74 74 69 72 80 80 86 90 92 92 92 94 94 93 92 94 94 95
53 50 52 52 51 47 46 49 53 49 48 49 50 50 51 53 54 55 59 63 62 60 63 75 78 77 76 77 86 91 93 91 95 94 94 94 94 92 91 93 96 95 94
51 49 56 56 57 58 54 54 54 54 54 51 49 51 53 54 55 58 62 60 61 64 74 81 80 76 79 90 91 93 92 90 90 93 93 93 94 95 95 95 95 96 95
54 58 57 60 62 58 55 55 56 54 54 54 53 52 51 55 58 64 61 63 71 75 76 77 76 80 90 92 92 93 92 92 90 92 93 93 92 95 94 94 95 91 93
60 52 50 58 59 59 60 58 57 55 56 56 56 56 52 58 73 66 64 69 74 75 73 77 80 84 91 93 93 92 93 90 91 93 93 93 93 96 95 94 93 95 94
61 60 52 57 60 64 61 59 56 60 59 56 55 52 60 65 69 68 69 74 73 75 79 83 83 90 92 92 92 92 91 90 91 93 93 94 96 95 93 92 96 95 96
65 64 63 66 66 64 58 55 52 54 55 57 57 56 63 61 68 71 75 74 74 77 78 82 90 91 93 95 94 94 92 92 92 92 91 95 96 95 93 95 96 96 97
68 70 70 68 63 55 53 54 55 55 56 58 61 61 60 64 69 76 75 74 78 79 77 80 90 92 89 91 91 95 96 94 94 93 96 96 96 96 96 96 97 97 97
74 74 69 64 59 51 51 50 53 55 59 65 68 65 69 71 71 73 78 79 82 80 81 82 90 93 92 90 93 94 95 95 95 97 98 98 96 95 96 97 98 99 98
74 70 63 61 56 53 55 58 64 71 75 72 71 71 74 72 78 80 80 82 84 85 82 84 90 92 90 94 94 94 94 95 98 99 98 98 98 98 98 98 99 98 98
66 59 58 59 63 63 68 80 86 85 86 85 85 82 83 85 83 85 85 83 86 85 86 86 89 90 93 94 94 94 95 99 98 98 98 98 99 98 98 98 98 99 99

GFSGL_sfc_rhum_027.txt.gz
RH
34 31 30 30 28 27 26 26 25 26 26 27 29 30 31 33 33 35 35 34 36 42 47 44 49 47 51 51 53 54 59 61 64 54 48 46 51 57 51 51 53 48 48
34 33 33 31 28 27 27 27 28 28 28 30 31 32 33 35 36 37 37 37 42 48 50 55 52 46 56 55 54 55 57 54 60 62 56 63 64 57 56 62 50 44 57
34 34 33 32 30 29 29 30 29 30 31 33 34 36 37 39 41 39 38 38 46 50 56 58 57 58 60 59 57 55 54 48 60 75 85 68 62 73 74 64 73 70 62
36 36 34 32 32 31 33 33 34 33 34 35 36 39 41 41 39 38 38 47 52 52 59 61 57 60 60 56 52 52 52 60 60 64 68 86 73 70 81 71 57 53 58
37 39 37 34 32 33 35 35 34 36 36 39 40 41 42 39 27 38 41 48 55 59 61 56 56 58 57 53 49 53 57 64 83 95 83 90 87 66 62 59 63 64 70
37 37 34 32 32 35 34 35 35 38 39 41 42 42 42 31 42 45 43 43 50 58 62 55 56 57 56 58 59 60 59 65 76 90 96 87 68 64 64 65 76 92 90
33 31 30 28 31 33 33 34 37 39 42 43 42 42 43 44 44 44 46 41 52 62 59 59 56 48 60 63 67 66 68 76 81 75 73 73 72 65 74 95 93 90 86
32 29 28 30 30 32 34 36 39 41 43 44 44 44 46 36 44 44 48 46 56 61 61 59 60 63 70 62 61 68 90 88 68 60 63 62 72 76 64 62 69 80 84
30 28 28 29 31 34 36 39 40 43 46 46 44 45 45 42 47 49 50 53 54 56 56 59 66 65 64 60 66 97 87 78 56 58 71 67 60 61 61 71 93 94 88
29 30 28 31 33 36 38 41 43 46 44 44 41 43 45 44 54 56 56 55 60 59 70 75 67 58 59 76 74 66 76 60 70 81 58 59 61 63 69 73 90 96 93
30 31 32 34 36 36 41 44 46 47 47 49 47 45 47 52 58 59 59 54 58 78 79 67 62 64 92 61 60 55 59 61 66 63 64 66 68 71 70 76 89 97 95
33 33 35 36 35 34 44 46 47 48 50 49 49 52 56 60 61 58 59 58 62 61 66 63 66 85 60 59 59 63 64 64 62 71 78 81 80 86 88 90 92 94 94
33 35 37 38 40 43 46 48 51 49 49 45 48 54 58 57 61 60 61 60 58 56 65 73 74 61 60 60 64 65 65 69 86 91 88 87 88 91 93 92 90 88 91
37 39 43 46 48 47 50 50 50 50 55 49 54 58 61 57 58 55 52 56 57 78 79 71 59 59 62 63 62 61 65 77 87 92 92 88 88 92 94 93 95 91 96
42 46 50 53 53 54 52 50 53 52 56 55 58 57 60 59 54 54 54 53 62 67 60 59 57 63 70 66 64 66 71 75 88 87 92 92 90 91 92 90 94 95 95
48 51 55 59 59 57 55 53 50 50 52 51 52 52 50 54 56 57 58 65 64 62 60 63 73 76 76 70 73 79 78 81 86 90 90 91 94 94 94 92 92 96 96
54 52 60 58 59 60 61 59 62 54 51 51 52 53 55 56 57 58 62 62 63 63 67 78 80 78 78 79 84 90 91 86 89 90 93 94 94 92 90 92 94 94 93
54 53 62 63 63 65 65 65 60 60 60 57 53 55 54 56 58 61 62 62 63 66 75 80 81 79 81 89 90 92 92 88 88 92 94 93 94 95 94 94 94 95 96
59 64 64 66 66 62 60 61 63 62 60 59 56 53 52 58 63 66 64 65 76 81 76 78 77 83 89 90 90 90 89 92 92 93 93 94 93 94 94 93 94 87 92
65 57 56 62 62 61 63 65 63 59 59 58 57 56 54 61 77 68 68 73 78 76 75 80 82 85 89 92 92 91 93 91 92 92 93 93 93 93 96 95 93 95 95
66 66 59 64 65 66 68 63 62 63 59 56 55 53 63 69 73 73 76 77 76 79 83 86 86 89 91 92 91 92 91 91 90 94 93 92 92 95 95 95 95 96 97
67 70 70 73 70 69 62 55 56 55 56 59 60 60 68 65 72 78 76 77 77 80 81 86 91 89 92 94 94 94 92 91 92 94 92 91 92 96 95 96 96 96 97
72 76 76 76 68 57 60 56 57 58 59 65 69 67 65 68 74 76 78 78 80 83 80 83 91 91 88 92 94 95 95 94 94 93 94 93 96 96 96 97 97 97 97
80 81 78 70 62 56 56 57 57 63 67 70 72 70 74 75 74 76 82 82 84 82 83 85 89 92 93 92 93 94 95 95 94 96 98 98 97 96 97 97 98 98 98
78 76 66 65 63 61 62 66 72 75 78 77 78 75 74 76 82 84 82 86 87 86 84 84 88 93 94 94 94 94 93 93 98 99 98 99 97 98 98 99 99 98 98
70 64 64 66 70 69 76 83 90 90 92 86 83 85 88 88 85 87 88 86 88 86 87 86 90 93 94 94 93 94 94 99 99 99 99 97 97 98 96 98 98 100 98

GFSGL_sfc_rhum_030.txt.gz
RH
31 32 32 31 29 28 28 27 27 28 29 30 33 34 36 37 38 41 41 39 40 46 51 54 60 59 59 60 63 64 66 65 74 60 52 50 55 60 56 56 55 54 59
34 34 34 31 28 29 29 29 30 30 31 34 35 36 38 40 42 43 44 43 44 50 54 60 63 49 62 64 65 65 65 62 66 72 73 69 62 55 56 60 66 57 60
36 36 34 33 31 31 32 32 32 34 35 36 38 40 42 45 45 45 44 43 48 52 57 62 66 63 63 66 66 66 62 54 64 68 68 59 59 64 73 70 70 50 44
37 36 35 34 33 33 35 35 35 35 37 39 41 43 44 44 44 43 46 51 54 53 60 66 66 66 64 66 59 58 58 62 64 70 77 85 78 65 94 68 61 56 56
39 41 38 36 35 36 37 36 37 38 39 41 43 43 44 42 29 43 48 54 57 59 61 61 61 60 59 56 52 57 61 74 90 95 76 75 92 70 68 63 67 64 62
41 40 38 36 34 36 36 37 37 39 40 42 44 45 47 34 46 46 46 48 52 58 60 59 58 60 61 62 64 63 62 64 71 80 96 81 72 68 68 69 75 94 89
38 36 34 32 32 36 35 36 38 40 43 45 46 46 47 49 46 49 51 50 59 62 64 61 59 52 66 70 70 62 65 72 90 74 77 74 71 68 84 95 86 86 85
36 33 31 32 32 34 35 37 40 42 45 47 47 47 50 41 49 54 57 59 63 64 64 66 68 72 69 58 56 75 95 77 74 58 59 64 75 70 64 68 82 90 87
34 30 30 31 33 35 37 40 42 45 49 49 48 50 49 50 52 56 57 61 61 64 60 67 75 66 62 62 90 83 72 66 52 63 72 64 62 63 65 81 93 93 88
31 32 31 34 34 37 40 44 45 49 48 49 47 46 50 50 55 57 56 57 64 63 70 82 68 60 63 77 58 61 73 63 85 85 58 59 63 65 70 72 94 96 93
34 34 35 36 37 39 44 48 50 51 50 52 48 49 50 54 63 59 57 54 59 79 76 63 62 72 70 60 60 62 64 66 72 63 66 69 69 70 70 76 90 97 96
37 37 38 38 38 39 48 50 51 53 54 54 55 56 58 61 63 59 58 57 59 57 66 71 78 70 61 62 63 67 67 66 65 75 80 80 81 86 87 88 90 93 93
37 38 41 43 47 48 53 54 55 54 58 60 58 64 61 57 67 61 59 59 58 61 73 67 67 63 63 64 67 68 66 69 79 89 88 87 87 89 91 91 89 87 88
39 45 49 51 56 54 53 51 58 62 66 59 59 62 66 60 60 58 55 58 64 69 71 70 62 62 65 66 63 62 65 68 77 89 91 86 84 86 87 90 95 91 95
46 48 51 56 61 59 55 58 66 64 64 61 65 64 65 64 58 56 55 55 60 61 61 61 60 65 71 67 66 68 69 70 83 84 89 90 87 86 88 85 93 94 95
47 51 56 64 64 58 62 65 57 54 54 53 54 55 54 57 58 59 59 62 63 65 64 67 75 78 78 74 76 78 77 79 83 89 89 89 92 93 92 89 89 94 96
53 55 63 61 64 68 69 69 68 59 54 54 54 55 57 57 59 60 63 63 66 66 71 80 83 81 82 82 86 88 89 84 86 89 90 94 94 92 90 91 90 93 92
56 55 65 68 68 70 71 67 67 66 67 61 56 55 54 58 60 63 65 66 68 70 78 83 85 84 85 89 90 90 90 88 88 90 94 92 94 95 94 93 93 95 95
60 66 67 69 67 64 63 66 69 69 66 61 57 53 53 60 65 67 66 70 80 82 80 82 81 86 89 89 89 90 90 91 92 94 92 93 94 95 93 91 95 89 90
64 59 60 66 65 67 70 70 68 65 60 60 59 57 56 67 82 73 72 76 79 79 80 85 84 86 89 92 92 92 92 90 92 92 92 93 93 94 95 94 95 96 95
66 67 62 70 74 74 73 68 65 61 60 58 60 58 68 73 77 76 79 78 79 85 88 87 87 89 90 90 91 92 91 92 92 94 93 93 94 95 92 95 96 95 97
68 72 73 78 75 70 64 59 58 58 60 65 67 66 71 68 74 79 77 79 80 83 82 87 91 90 93 94 94 94 92 91 92 93 93 92 93 93 94 96 96 96 97
76 78 78 76 68 60 62 58 61 62 67 71 72 71 69 72 74 79 80 81 83 84 82 84 89 91 88 92 94 95 95 93 94 94 94 92 94 96 97 97 97 97 98
78 79 74 67 65 63 62 64 66 70 71 74 77 74 76 75 76 79 83 85 85 85 85 85 86 92 92 92 93 94 95 95 95 96 98 98 98 95 97 97 98 98 98
75 71 66 70 70 69 70 75 78 82 84 78 78 76 78 79 83 86 84 86 89 88 86 84 89 93 94 94 94 94 95 94 98 99 98 98 97 96 94 98 99 99 98
70 69 71 73 77 78 82 89 93 90 90 87 86 87 88 88 86 88 88 88 89 87 88 86 89 94 94 94 94 95 94 98 98 92 94 98 96 96 93 99 98 99 98

GFSGL_sfc_rhum_033.txt.gz
RH
33 33 32 32 30 29 29 29 30 31 32 34 36 38 40 42 43 46 46 44 46 47 50 57 61 63 70 68 70 72 75 75 82 68 60 57 62 55 50 52 54 54 56
34 33 34 32 30 31 31 32 32 33 34 37 39 40 42 44 46 46 48 47 49 52 55 61 63 49 68 69 72 72 72 69 75 84 79 64 57 54 55 59 59 58 95
35 34 34 34 33 33 34 34 35 35 38 40 42 44 45 47 46 46 46 49 53 56 60 63 62 67 71 69 68 70 72 61 73 77 72 64 64 66 71 77 82 66 47
36 37 37 36 34 36 37 37 37 38 41 43 44 44 46 46 46 44 49 56 60 56 61 65 66 69 70 69 62 61 66 68 69 76 78 79 71 80 86 65 59 56 57
39 42 41 39 39 39 38 37 39 41 41 44 44 45 46 44 31 51 55 58 61 62 63 63 62 63 60 57 54 58 62 72 83 82 78 91 79 68 65 64 66 64 68
42 43 41 40 38 38 35 38 39 41 42 45 46 47 48 36 48 49 52 63 64 66 68 64 65 62 64 64 65 63 60 62 81 97 88 80 71 68 67 69 84 90 84
42 40 38 37 37 36 36 38 39 43 46 47 47 48 49 51 48 52 55 64 69 72 71 66 63 54 67 76 74 64 76 88 69 71 74 72 70 68 94 94 89 91 85
40 37 36 36 34 36 37 40 43 45 47 47 48 50 53 43 52 54 57 66 72 72 71 71 72 70 80 62 66 97 79 70 63 57 60 67 83 71 63 69 86 91 84
38 35 32 32 35 38 40 43 45 47 48 51 51 51 52 52 55 56 58 63 64 70 69 67 76 73 64 64 77 77 64 63 55 63 76 66 63 66 68 85 92 93 86
35 32 32 37 37 40 43 47 47 51 49 50 47 50 55 55 58 59 57 58 64 62 76 80 66 60 63 73 59 62 76 65 86 86 59 62 66 67 70 72 95 96 93
35 36 39 39 41 44 48 49 53 54 52 56 53 58 58 60 69 60 58 56 60 63 60 67 66 70 71 61 62 63 67 70 70 65 68 70 70 69 69 74 87 97 95
40 41 41 45 41 42 51 55 54 56 60 62 65 62 64 67 64 59 59 58 57 57 66 69 71 68 63 63 64 69 68 66 66 72 80 80 81 84 84 85 85 89 93
40 43 47 49 50 52 56 56 58 62 68 70 64 70 66 60 69 62 62 61 58 62 64 63 66 65 64 65 69 69 68 70 77 90 88 87 86 87 88 87 86 85 86
45 50 52 56 59 59 53 53 66 70 75 63 65 66 72 64 65 62 60 62 63 64 67 69 64 63 66 68 65 63 67 69 76 88 90 86 85 87 88 86 91 89 94
49 49 57 59 64 62 57 64 76 71 68 66 70 69 69 68 61 58 58 57 62 61 63 64 63 67 73 69 68 68 70 71 84 85 90 90 87 87 87 85 91 93 94
49 51 61 64 66 61 67 69 57 55 56 55 55 56 55 58 59 61 61 63 63 67 67 71 77 79 80 76 78 78 77 81 84 90 90 90 92 92 91 88 89 93 95
53 58 64 65 70 73 73 70 71 60 57 56 54 56 58 58 61 62 64 65 68 68 75 82 84 83 84 85 86 89 91 85 89 92 92 93 94 92 90 91 91 92 91
59 57 66 74 72 72 73 69 71 70 70 65 57 56 56 60 63 65 66 68 71 72 80 85 87 85 86 90 90 92 91 88 89 90 94 92 93 95 94 93 92 94 95
60 68 72 71 69 68 69 71 72 72 69 63 60 56 55 64 68 70 68 74 82 84 82 84 82 86 89 90 90 90 90 92 92 94 92 93 93 95 92 91 93 89 90
64 59 62 72 72 74 75 73 71 64 62 62 61 60 61 70 88 75 74 79 81 81 81 86 84 87 90 92 92 91 92 90 92 92 91 92 93 94 94 94 93 95 94
69 70 63 75 78 78 74 70 62 60 62 62 64 62 70 74 80 80 80 80 81 86 87 87 88 89 90 91 92 91 91 92 93 94 93 94 94 94 91 92 94 95 96
75 76 76 79 76 67 67 62 62 63 65 70 72 68 73 70 77 82 79 81 81 84 83 87 91 90 92 94 94 94 92 91 91 93 93 93 94 92 92 93 95 96 96
76 78 76 72 65 64 65 63 67 68 74 76 76 75 73 74 76 81 82 82 84 85 82 85 91 91 87 92 94 95 95 94 94 94 94 92 93 94 96 97 96 96 98
75 74 69 68 70 70 69 72 72 76 75 78 79 74 77 78 79 80 84 85 85 86 86 87 90 92 92 92 93 94 95 95 95 96 98 98 97 96 96 96 96 97 98
72 71 71 77 77 77 78 83 85 84 85 80 80 78 80 80 83 85 85 87 90 89 86 85 90 92 93 94 94 94 95 94 98 99 98 98 98 97 97 98 96 98 98
72 74 77 80 84 87 88 93 95 94 94 89 87 89 88 87 86 89 89 90 90 87 88 87 90 94 94 93 94 94 93 98 92 86 96 98 98 97 97 98 98 99 98

GFSGL_sfc_rhum_036.txt.gz
RH
36 34 32 31 30 30 30 32 33 34 35 37 39 40 42 44 46 47 48 45 49 54 55 58 62 63 70 74 78 74 76 78 86 71 62 58 65 61 54 54 56 54 56
34 32 32 32 31 32 33 34 34 36 38 39 41 42 44 46 47 47 47 49 54 58 59 63 65 50 67 71 73 74 77 73 79 87 77 66 62 59 61 65 64 65 83
33 32 33 35 35 36 37 37 37 38 41 42 43 44 45 48 47 46 46 52 58 62 64 67 68 70 72 75 74 75 74 67 76 77 72 66 66 65 78 75 64 56 45
34 35 37 38 38 39 39 39 40 41 41 44 44 45 47 46 46 44 53 62 64 62 66 68 69 70 73 73 72 67 61 67 68 75 73 78 91 73 68 63 61 57 58
38 41 42 43 43 42 42 41 42 42 43 45 45 46 47 45 32 54 60 66 70 69 70 67 67 68 64 61 57 62 64 74 79 94 91 79 76 70 68 63 66 66 76
42 43 44 44 42 43 41 40 40 43 45 47 47 48 49 36 47 50 54 69 71 70 73 68 71 67 69 66 66 64 62 70 96 86 84 79 71 69 66 71 91 89 86
42 42 42 42 42 42 38 38 41 45 48 49 49 50 50 52 50 54 54 65 71 76 75 72 66 57 69 73 78 73 76 79 66 67 72 71 71 69 94 93 86 89 86
42 40 41 41 39 37 37 41 45 48 50 52 51 52 54 46 56 55 57 69 73 76 74 75 77 74 78 67 65 97 88 73 62 58 63 67 85 74 66 70 88 91 84
40 40 38 37 35 37 41 46 49 51 53 53 52 53 56 60 59 58 60 70 71 71 68 75 78 71 66 66 84 84 67 64 58 64 74 68 65 67 69 80 91 92 87
39 37 36 35 37 43 48 49 52 54 48 48 49 55 60 63 62 61 58 63 70 64 66 66 64 62 64 75 60 64 76 66 82 87 60 63 66 68 71 71 84 96 93
37 38 37 38 46 49 52 54 55 54 54 61 59 66 66 67 74 61 60 60 64 63 60 62 67 66 66 62 62 65 68 69 70 67 68 69 70 71 71 76 82 96 95
43 40 44 49 42 46 54 56 56 61 67 69 73 68 68 72 65 62 60 61 60 59 64 70 64 66 64 64 65 70 69 68 67 73 79 81 82 85 85 86 86 88 87
42 49 52 52 53 53 56 59 62 68 74 76 69 73 68 60 72 64 64 65 60 62 66 63 68 66 65 66 70 70 69 72 76 88 88 88 87 88 89 88 86 86 86
51 54 57 65 60 61 53 55 72 74 78 66 70 70 75 68 69 63 64 66 64 69 66 71 66 64 67 69 67 64 67 69 77 88 91 87 86 88 89 87 93 90 93
52 54 61 62 63 63 59 67 77 78 72 69 73 70 72 69 61 59 60 59 62 62 64 67 65 69 75 71 69 69 69 70 84 85 91 90 88 88 88 86 91 93 94
52 55 67 63 69 63 70 73 59 56 56 56 55 56 55 59 60 62 63 64 64 67 69 73 79 80 81 77 78 78 77 82 84 89 89 89 92 92 93 90 90 94 95
59 62 66 68 71 75 77 75 75 61 56 54 54 56 58 59 62 65 65 66 69 69 77 84 86 84 85 84 86 89 91 85 88 93 93 92 94 93 91 92 92 92 91
70 62 68 76 73 75 79 74 75 74 72 64 58 58 58 62 66 66 68 68 74 74 82 87 88 85 86 89 89 91 90 88 89 90 93 94 94 95 94 93 93 94 94
64 70 76 74 72 72 74 74 73 74 68 65 62 58 58 66 68 71 69 76 85 85 84 86 83 86 88 90 90 91 91 94 94 94 93 94 94 95 93 92 93 89 90
65 60 65 74 75 77 75 72 73 66 66 66 65 64 64 71 88 78 77 81 83 83 83 86 85 86 89 92 92 92 93 91 93 93 93 94 93 94 94 94 92 95 93
72 72 63 76 78 75 70 72 64 62 67 68 70 66 72 74 82 82 83 82 83 86 87 87 87 89 90 91 92 92 92 91 92 94 93 93 93 94 91 92 94 94 96
75 76 75 77 70 65 70 65 66 69 72 77 76 72 76 73 79 82 80 83 83 84 84 86 91 90 93 94 94 94 92 91 91 93 92 92 93 93 93 94 95 96 96
73 73 70 67 66 68 70 68 73 75 79 79 78 77 74 75 78 83 84 83 85 86 83 85 91 91 87 91 94 95 95 93 94 94 94 93 94 94 96 97 97 96 97
72 71 71 73 76 75 75 79 79 80 77 79 80 76 79 79 81 82 85 86 87 86 86 88 90 92 92 91 92 94 95 95 95 96 97 98 98 96 96 97 97 98 98
72 74 76 82 82 83 85 88 88 86 86 82 81 79 81 82 85 87 87 88 91 90 87 86 91 93 93 93 94 94 94 94 98 99 99 98 98 98 97 98 98 100 99
76 78 80 82 87 90 91 94 96 95 95 91 88 91 90 89 88 90 90 90 91 88 89 89 90 93 93 93 94 94 94 96 97 91 97 98 97 98 97 98 98 99 98

GFSGL_sfc_rhum_039.txt.gz
RH
36 32 30 27 26 24 25 26 26 27 28 30 30 31 32 32 32 31 32 34 38 42 43 44 47 46 48 47 50 52 54 54 62 55 49 46 47 46 43 44 49 49 50
31 28 27 26 26 25 26 27 27 29 30 31 31 31 31 33 32 31 33 38 42 45 47 49 49 44 50 48 49 52 56 54 61 70 59 54 47 47 49 56 50 42 48
28 28 27 28 28 27 28 29 29 31 32 32 32 32 32 34 34 32 36 41 46 48 50 52 52 50 49 50 53 57 58 56 63 69 61 54 55 60 57 49 44 42 38
29 30 31 30 30 29 30 31 32 32 33 34 33 34 35 34 34 34 43 48 50 50 53 53 52 52 53 56 58 58 59 60 58 65 67 82 66 54 59 56 52 49 50
32 35 35 35 34 34 35 34 34 34 35 36 35 35 35 34 27 42 47 51 54 55 54 51 50 56 63 60 55 57 57 65 73 82 88 66 68 59 55 53 57 58 64
36 38 39 36 35 37 35 36 36 36 36 36 36 37 36 30 48 51 51 50 53 55 54 50 51 62 62 64 64 64 63 66 91 89 82 70 56 54 56 61 80 80 79
37 37 36 34 36 36 35 35 36 37 36 37 36 37 37 38 52 54 54 50 54 53 52 52 52 50 61 60 67 69 68 89 70 66 62 58 61 58 86 93 82 82 78
37 36 35 35 35 35 35 35 37 36 36 36 37 38 40 39 58 55 57 51 54 53 54 54 56 57 59 62 58 90 88 62 52 50 55 59 75 76 62 64 76 80 73
36 35 33 32 34 34 36 37 38 37 37 38 39 41 44 48 60 59 56 52 53 53 54 54 57 53 61 61 74 88 58 53 53 61 71 70 65 66 67 74 87 86 82
35 34 32 33 34 37 38 39 40 39 37 39 40 44 56 49 61 60 56 52 56 54 54 50 58 59 62 69 62 59 68 55 71 82 51 52 57 58 69 62 79 95 90
34 33 34 35 38 39 40 41 40 41 43 45 47 50 51 53 54 61 60 53 55 58 53 52 56 64 70 64 63 55 61 66 66 55 54 57 59 60 60 64 74 95 95
35 38 39 40 37 40 41 42 43 47 49 50 55 52 51 53 60 60 61 61 60 54 56 60 58 67 64 64 62 70 70 67 55 60 66 73 76 80 81 81 83 87 86
38 42 43 42 43 42 42 45 45 51 54 55 56 57 55 51 52 64 64 64 60 59 62 61 67 67 65 62 68 70 70 60 64 76 82 85 83 85 89 88 87 87 88
42 49 49 47 48 46 44 45 52 55 58 57 58 58 59 55 54 53 54 55 61 68 63 64 63 63 66 66 62 58 57 59 70 82 85 81 81 86 87 85 91 90 92
46 48 50 50 49 49 49 51 57 58 60 55 57 56 57 58 53 58 59 56 62 60 62 59 54 57 63 60 60 60 61 61 76 77 86 85 83 84 85 85 89 91 94
49 52 52 50 52 51 54 54 57 54 56 55 54 54 50 58 61 64 64 67 64 67 62 60 66 68 70 67 70 70 69 77 78 85 85 86 90 90 91 88 89 92 94
53 55 57 55 54 55 60 59 60 51 53 52 54 57 60 61 64 66 64 66 68 67 65 72 76 75 77 79 81 84 87 81 89 92 92 91 92 91 89 91 90 90 90
62 61 58 59 56 62 63 61 57 58 56 51 54 60 60 64 68 67 68 67 63 66 72 77 81 79 80 84 86 89 89 86 88 88 92 93 93 94 93 92 91 93 91
60 63 64 62 63 62 61 56 57 56 53 54 53 56 58 69 69 70 69 67 75 77 76 78 76 81 85 88 88 89 90 92 93 94 92 93 93 95 92 91 91 88 90
62 62 63 61 62 61 56 58 58 54 56 57 59 59 60 68 77 70 68 72 75 75 76 80 80 83 88 91 92 91 91 90 92 92 92 93 93 94 94 92 89 93 89
62 62 62 61 59 55 58 62 55 58 62 63 64 64 73 70 72 73 74 74 75 80 82 82 84 87 89 90 91 91 91 91 91 93 93 93 93 94 90 89 90 90 92
62 63 60 59 56 58 62 58 62 65 67 71 69 66 75 64 70 74 74 76 77 78 79 83 88 87 91 94 93 93 91 92 91 93 92 92 93 91 90 90 90 90 91
61 58 57 58 60 66 64 64 69 70 72 71 69 68 66 68 71 77 79 77 79 81 78 82 88 89 86 91 93 95 95 93 93 94 94 92 91 92 93 94 94 89 88
60 60 62 64 67 66 69 73 72 77 73 72 72 69 71 73 74 77 79 81 82 81 83 84 87 91 92 91 92 94 95 95 94 95 98 98 97 96 92 93 90 91 91
64 66 67 71 71 72 77 80 79 78 79 76 75 74 76 76 79 83 82 84 88 88 86 84 87 92 92 94 94 94 94 92 98 98 99 99 98 98 96 95 92 87 88
70 70 70 71 74 78 83 86 89 87 88 85 84 86 84 86 85 87 87 88 89 87 87 86 88 94 94 93 92 92 92 97 98 88 92 96 96 96 94 94 93 88 89

GFSGL_sfc_rhum_042.txt.gz
RH
39 34 30 29 26 25 24 22 21 20 21 21 21 22 23 23 22 21 22 24 28 31 33 35 37 36 37 34 36 36 39 40 44 41 36 35 38 38 34 36 40 40 38
34 30 28 26 24 23 22 21 20 20 20 21 21 21 22 23 21 20 22 26 31 34 35 38 38 33 37 34 35 38 40 41 47 53 48 45 41 39 42 46 37 29 33
29 28 27 25 23 22 22 21 20 21 22 23 23 23 22 24 23 21 25 28 33 35 38 40 40 38 37 38 40 44 45 42 53 62 59 46 46 50 49 43 39 37 32
28 27 27 25 24 22 22 22 22 22 24 24 24 24 25 23 24 26 32 35 36 36 40 42 41 40 40 42 43 44 43 49 47 51 57 66 72 52 52 48 43 43 44
30 31 29 26 25 24 25 24 24 25 26 26 26 25 25 27 20 35 36 37 38 38 38 38 38 44 57 57 51 50 50 55 66 76 76 79 67 53 43 45 50 51 55
35 33 30 28 26 28 27 26 28 29 28 28 27 26 27 23 42 51 50 40 38 39 38 37 36 46 46 57 59 60 62 71 94 95 85 69 48 43 48 54 69 84 72
31 29 27 26 28 28 27 28 30 30 28 28 27 27 26 28 46 54 54 43 40 39 40 40 38 37 48 45 53 60 63 67 70 62 58 46 49 49 75 92 79 76 72
29 27 26 26 27 27 28 30 32 28 27 26 27 28 30 28 53 56 57 42 39 40 40 41 44 45 45 49 51 74 78 58 44 41 46 48 59 70 68 60 69 74 68
29 27 25 25 26 27 30 31 29 28 27 26 29 30 30 31 47 58 55 41 40 41 40 40 44 45 52 60 65 91 51 44 43 51 59 68 68 61 61 67 86 85 80
28 25 23 24 26 30 32 31 30 28 29 29 28 29 36 33 43 57 54 43 43 41 42 40 49 49 58 64 66 53 58 44 56 76 56 46 48 49 60 58 76 95 88
26 26 28 29 31 31 30 29 30 30 31 28 29 29 32 35 38 54 58 48 45 47 44 41 42 56 62 63 62 51 51 58 70 52 46 48 49 53 55 59 70 92 95
31 34 35 33 30 29 31 30 31 31 30 28 31 30 29 31 41 48 59 61 58 49 47 47 49 62 63 64 60 63 68 67 51 51 58 64 70 76 78 79 79 85 84
36 36 33 31 31 30 30 32 30 31 30 31 34 34 33 33 33 47 56 56 55 51 58 58 62 62 63 56 58 67 66 51 55 68 77 81 80 82 87 87 87 86 87
32 32 32 32 32 32 34 32 31 31 34 37 36 38 38 35 35 38 44 46 51 58 60 59 54 56 54 55 50 49 48 52 62 75 81 77 78 84 85 83 90 86 92
33 35 36 35 33 33 34 31 32 35 46 42 40 39 42 43 42 56 58 52 57 59 60 48 44 43 49 48 50 51 53 54 72 74 84 83 80 82 83 83 88 92 92
33 35 35 34 33 34 33 30 50 52 52 52 52 51 45 53 60 64 64 64 64 65 56 49 50 54 56 56 60 62 64 73 74 82 83 84 89 89 89 87 88 92 91
36 37 39 34 32 32 33 34 32 30 39 42 48 56 60 62 65 67 65 65 65 62 53 58 62 62 65 68 73 78 83 77 87 90 92 90 91 91 88 90 89 90 89
42 50 38 36 36 37 35 34 33 35 33 30 38 50 56 63 68 66 66 64 50 53 60 65 67 65 68 75 80 85 86 84 87 89 91 93 93 94 93 92 90 92 90
41 42 40 39 42 41 34 34 36 34 35 36 38 43 48 61 63 62 61 53 61 63 62 64 63 68 75 81 83 86 88 92 94 94 92 93 93 95 92 89 88 85 85
50 57 44 36 35 33 34 39 37 37 40 42 44 45 46 55 61 54 55 58 62 62 62 66 67 72 81 87 90 90 91 90 92 91 92 93 92 93 94 90 86 91 87
38 42 48 34 34 36 41 41 40 44 47 48 48 47 67 64 58 59 60 60 62 66 68 68 73 80 85 88 89 90 91 91 92 94 93 94 93 94 89 89 88 88 85
37 37 36 37 38 42 44 43 46 49 51 52 50 48 65 50 55 61 62 64 64 65 66 72 81 83 90 93 93 92 91 92 92 92 92 94 93 91 89 89 87 91 80
36 35 36 38 41 52 44 46 51 52 53 53 52 52 51 52 56 64 67 65 67 70 69 76 85 88 85 91 94 95 95 93 92 94 94 92 90 90 92 95 91 79 79
37 39 40 41 44 48 48 52 53 59 58 56 56 55 57 58 60 64 69 70 72 74 78 82 84 89 91 91 91 93 95 95 95 94 97 98 98 97 93 92 83 85 81
42 42 42 45 48 50 54 56 58 59 62 62 62 61 61 62 68 73 73 76 81 83 82 81 87 91 92 94 94 94 95 93 98 98 98 100 100 100 98 92 86 81 83
47 46 46 47 51 54 61 68 71 71 74 73 72 74 72 74 75 80 80 82 85 84 84 84 86 93 94 93 92 94 94 97 94 84 88 88 93 96 90 86 87 81 83

GFSGL_sfc_rhum_045.txt.gz
RH
46 40 36 32 28 28 28 28 26 26 26 23 22 22 22 22 21 21 21 22 26 29 32 34 36 36 39 38 40 40 43 44 50 44 42 40 42 44 41 39 42 43 43
39 37 33 28 28 27 27 26 25 24 21 20 20 20 20 21 20 19 20 23 27 30 32 36 37 31 40 38 38 41 44 43 51 56 49 50 49 46 43 48 44 38 39
36 32 29 29 29 28 27 29 25 23 21 20 21 21 21 23 21 20 22 24 28 32 35 38 40 40 40 41 42 45 47 42 49 54 56 50 50 50 57 56 47 43 35
32 29 29 28 26 25 24 24 23 22 23 23 22 23 23 22 23 24 29 32 34 34 36 39 38 41 41 42 46 51 48 53 54 58 62 69 67 70 62 56 50 47 49
32 31 31 29 27 26 26 25 24 24 24 25 25 24 24 27 20 35 37 38 37 36 37 36 37 44 48 50 49 56 57 61 70 79 80 80 81 62 56 50 53 57 58
33 36 32 30 28 30 28 27 28 28 28 28 27 25 26 22 43 48 51 44 40 38 40 36 36 43 42 48 54 54 54 61 83 95 90 81 69 55 52 58 72 82 88
40 34 32 29 30 30 28 29 30 30 29 28 27 26 26 27 42 52 54 46 43 40 39 40 39 34 46 45 50 53 58 63 65 65 68 59 57 53 72 84 86 83 76
38 35 30 29 28 29 29 31 32 29 28 26 27 27 29 26 44 52 56 46 39 39 39 41 43 44 45 48 51 70 74 73 61 45 50 52 56 63 83 90 73 74 72
34 31 27 27 28 28 30 30 29 28 28 26 30 29 29 28 41 50 55 45 42 42 39 40 42 45 48 53 60 81 74 56 48 50 55 61 64 60 56 61 85 88 85
32 26 24 25 27 30 32 31 30 30 31 31 30 27 28 32 34 45 53 46 46 44 46 43 48 45 52 57 58 63 67 57 60 68 63 57 51 52 57 58 74 97 93
24 25 27 29 31 32 31 30 30 32 35 30 31 26 27 30 35 43 51 51 50 53 54 48 45 55 58 61 61 59 60 58 64 66 56 53 56 60 62 66 73 93 96
32 34 34 33 29 29 32 30 31 31 33 28 28 32 29 27 34 39 48 54 55 52 51 50 56 61 61 60 59 59 62 64 59 57 63 69 73 78 79 79 75 83 85
36 36 34 31 30 31 30 33 31 30 29 28 34 35 34 34 31 39 44 51 54 51 52 59 61 61 58 54 54 58 57 55 58 71 79 83 82 83 85 86 85 86 86
33 33 32 32 31 32 38 34 30 29 31 36 35 37 38 36 36 40 48 52 55 58 64 65 58 55 49 50 50 50 53 56 64 78 85 82 81 85 86 84 93 90 93
32 34 37 37 32 33 34 30 29 33 45 45 43 42 45 47 46 58 60 57 60 61 61 60 52 46 53 52 53 57 59 60 76 81 90 91 86 86 86 84 89 93 95
35 37 38 36 33 35 33 28 50 48 48 52 52 52 50 55 59 65 65 64 64 64 62 56 53 60 61 60 64 68 70 77 81 90 89 89 92 92 91 89 88 93 94
35 37 38 31 30 30 29 31 32 36 49 48 43 44 53 58 62 66 64 63 64 57 55 63 67 68 69 71 76 82 87 82 88 94 94 92 92 93 89 91 90 92 92
43 44 38 34 36 34 33 32 31 32 32 31 33 41 46 53 60 61 60 60 51 54 64 69 72 70 72 78 84 90 90 87 89 89 91 93 93 95 94 92 92 94 93
40 40 38 39 42 39 32 32 33 32 32 34 38 40 44 52 59 57 56 54 64 67 67 69 68 73 78 84 88 91 91 92 93 95 92 93 92 96 93 90 90 86 87
51 50 40 33 32 31 31 35 34 35 38 41 43 44 44 58 69 57 58 62 64 66 66 72 73 76 83 91 93 92 92 90 92 92 93 94 94 95 94 94 92 94 92
41 42 40 31 31 34 38 38 37 42 45 46 47 44 57 65 60 58 62 64 67 72 74 75 78 83 88 92 94 93 92 91 90 94 94 94 95 95 92 92 91 90 93
35 34 34 34 35 37 42 42 42 46 48 49 49 46 57 49 56 62 65 70 70 71 73 80 86 86 92 95 94 94 92 91 92 93 94 94 94 94 93 93 91 95 94
33 32 32 33 36 44 40 42 47 48 51 52 52 50 49 52 54 66 70 71 74 79 80 86 91 91 88 93 94 95 96 94 94 95 95 94 93 93 95 96 97 95 89
34 35 35 36 39 46 44 48 50 53 53 54 55 54 57 58 60 66 73 76 80 83 86 89 91 93 93 93 93 93 96 96 96 96 98 98 98 97 96 95 90 84 88
38 37 37 40 44 46 48 52 54 57 61 61 62 61 64 66 70 76 77 80 86 88 87 86 88 92 94 95 94 94 95 95 98 98 88 91 95 96 97 93 81 83 83
42 41 41 43 48 51 59 69 75 75 77 75 74 78 77 78 78 81 82 85 89 88 87 87 89 93 95 94 92 93 94 97 98 86 86 89 94 94 92 93 91 92 90

GFSGL_sfc_rhum_048.txt.gz
RH
62 52 45 41 39 36 35 32 30 30 29 29 33 28 30 30 29 30 30 31 33 38 41 45 48 48 55 57 59 59 61 64 62 52 50 51 59 56 49 51 49 47 50
43 41 37 35 32 30 29 29 29 29 27 26 25 27 28 28 26 26 28 30 35 40 43 47 50 39 54 56 58 57 61 62 62 64 59 58 61 56 52 54 51 52 53
41 37 35 35 33 29 29 30 28 30 28 29 27 29 30 31 28 27 30 34 38 42 46 49 52 54 58 60 59 64 68 55 67 69 69 62 60 62 66 69 65 53 45
37 35 34 32 30 29 28 29 29 26 28 29 31 32 32 29 29 31 37 42 46 46 49 52 51 53 56 58 59 66 62 72 70 72 73 79 76 77 79 72 64 58 53
35 36 35 31 28 28 29 28 34 32 31 33 34 32 31 34 31 48 52 54 54 52 51 48 48 54 49 49 49 68 72 76 77 85 87 81 76 75 76 68 62 61 61
38 42 35 30 30 32 31 34 35 37 36 35 35 32 40 23 43 47 54 60 58 55 56 52 50 51 51 48 51 53 54 61 81 83 87 92 89 79 62 65 70 80 86
39 36 35 33 34 36 34 34 38 37 38 34 34 34 32 42 44 47 51 60 62 61 56 54 50 39 54 58 59 53 57 60 63 67 77 72 64 61 78 84 85 93 87
43 37 35 34 34 36 36 38 40 36 36 36 34 33 35 37 44 47 54 62 58 57 54 54 57 58 59 54 56 83 84 83 78 66 60 59 62 64 68 91 84 78 75
49 45 35 35 36 35 35 36 37 37 33 33 35 34 37 42 44 43 53 63 59 60 53 55 56 59 55 52 64 85 75 77 57 59 58 62 64 63 59 62 85 89 85
48 43 40 47 40 40 41 39 37 37 37 37 35 36 37 41 37 41 49 61 69 66 66 62 59 51 56 57 60 67 75 68 69 75 68 68 62 66 61 67 78 96 94
77 75 59 40 38 36 36 36 38 41 41 40 37 37 36 38 43 38 44 58 67 68 75 67 62 58 60 61 60 64 65 59 63 70 65 64 63 66 67 71 76 91 96
41 38 37 36 36 34 38 40 40 41 41 38 42 46 44 40 40 43 42 46 53 63 64 66 69 64 62 60 59 57 58 60 61 63 68 74 80 84 83 83 82 86 86
36 37 37 36 38 40 42 44 43 40 40 42 47 51 52 49 49 47 54 56 60 61 62 62 64 64 63 60 56 57 57 65 67 76 86 87 86 87 89 88 86 86 89
36 38 40 41 44 44 47 44 42 46 50 52 53 60 62 59 59 64 65 76 66 66 70 82 66 62 56 54 58 59 64 66 71 79 85 85 85 88 88 87 93 90 94
41 48 49 46 44 45 45 46 48 65 61 66 70 67 70 74 62 61 64 65 68 64 63 70 67 63 68 64 64 65 67 69 81 84 90 91 88 88 88 86 90 93 96
46 51 53 51 49 48 45 49 46 45 43 46 48 54 59 56 60 62 64 63 62 63 66 67 70 74 75 71 72 74 76 82 83 90 91 91 93 93 92 91 90 93 95
52 50 50 45 45 44 45 47 46 47 41 41 46 41 46 51 56 60 61 60 62 59 70 82 81 80 79 79 82 86 90 86 88 93 94 93 93 94 90 91 91 93 92
58 54 56 55 53 50 48 46 47 48 47 46 43 43 47 51 57 62 59 60 63 65 82 85 83 80 80 84 87 91 91 88 89 90 92 94 94 95 94 92 92 94 93
58 57 58 60 59 48 44 46 48 47 48 52 55 52 51 53 62 62 58 68 78 79 80 80 79 82 85 87 90 91 91 92 92 95 93 94 94 95 93 91 92 87 87
63 49 48 46 44 43 46 50 49 50 55 60 61 59 59 70 86 70 72 79 82 80 80 83 83 84 87 92 93 92 92 91 93 93 93 94 94 95 94 94 93 94 92
64 59 39 44 46 47 52 54 54 57 61 62 62 54 57 73 78 77 75 78 82 84 85 85 88 89 92 93 93 93 92 92 92 94 93 94 95 95 93 92 93 93 93
52 49 47 49 47 50 60 58 56 59 62 64 65 55 59 59 74 78 76 82 82 83 82 89 93 91 94 95 94 94 93 92 92 94 94 92 92 93 92 93 93 94 96
47 44 44 46 48 52 55 56 61 62 64 66 67 58 57 62 66 80 81 81 85 85 84 89 93 92 89 93 94 95 96 94 94 95 95 94 95 96 96 97 96 95 94
49 49 48 49 52 60 58 62 64 60 62 64 69 64 70 72 75 77 83 85 87 87 87 89 93 94 93 92 93 93 96 96 96 97 99 98 96 96 95 96 97 96 95
54 52 51 57 60 62 64 69 74 78 78 73 73 72 78 81 84 88 87 88 90 92 90 88 92 93 94 94 93 93 94 94 98 98 97 95 97 96 95 96 96 96 95
56 54 56 60 67 72 79 88 96 96 95 90 88 94 92 90 89 90 90 91 91 90 89 89 91 94 94 93 92 92 93 96 98 94 92 96 96 94 94 94 94 94 95

GFSGL_sfc_rhum_051.txt.gz
RH
72 70 78 76 70 63 57 45 34 34 36 36 35 35 37 34 31 32 36 33 34 38 42 46 48 50 57 60 63 64 65 69 70 61 61 62 67 66 57 56 57 52 54
58 64 63 58 50 49 47 34 31 32 32 31 32 33 30 28 28 32 34 31 36 38 42 46 48 41 54 58 63 63 67 68 75 70 68 66 69 66 61 63 58 54 62
51 45 42 39 39 39 40 33 32 30 32 30 28 28 28 31 28 31 33 35 38 42 46 49 51 54 58 64 64 67 71 57 76 77 73 70 72 72 74 73 73 68 55
41 40 40 39 37 34 32 32 36 34 35 32 30 31 32 31 32 40 44 48 52 49 52 54 55 56 59 62 60 67 64 77 82 81 80 84 80 67 78 79 74 66 61
44 47 44 44 38 33 37 36 33 35 34 34 37 40 42 36 36 51 54 58 56 55 55 52 53 55 50 50 52 69 76 82 88 92 93 85 75 74 82 74 73 67 62
42 43 42 36 37 39 35 37 35 34 35 37 38 39 34 35 50 52 56 59 60 60 64 60 56 56 53 50 50 51 54 67 92 95 89 83 81 79 69 69 74 81 84
42 36 35 36 42 47 46 41 36 36 35 39 40 38 39 49 48 49 52 60 65 65 62 59 55 43 62 64 62 57 58 58 61 71 84 85 83 68 77 86 90 95 89
40 44 51 58 61 52 39 40 45 46 49 41 35 36 41 44 48 48 53 64 65 61 59 61 65 67 67 59 65 81 82 84 83 76 76 69 67 67 74 82 80 79 77
50 51 68 60 48 45 46 43 36 34 36 36 37 36 39 53 45 42 55 64 63 67 63 65 67 69 62 56 66 86 83 79 64 60 60 64 65 64 61 66 85 89 87
86 84 57 56 62 72 69 68 60 43 39 38 36 36 43 41 37 38 45 61 67 67 70 71 67 57 58 59 63 70 77 71 71 79 72 67 62 68 65 69 82 95 94
81 85 88 91 89 78 61 46 41 41 40 39 40 42 38 40 44 39 42 56 63 73 78 73 68 63 63 63 61 68 66 58 66 66 62 64 65 68 71 75 82 94 96
92 93 89 67 45 39 41 41 42 43 43 42 45 49 50 47 50 49 51 55 59 72 72 73 73 68 64 63 61 58 59 62 62 64 72 77 83 86 85 85 85 89 90
54 48 46 43 40 42 45 47 45 42 44 48 52 58 58 56 61 58 60 63 65 67 70 67 67 66 62 63 61 60 61 68 71 81 87 88 87 88 90 91 88 89 90
50 51 43 45 47 47 50 45 48 52 55 56 61 67 72 69 70 68 72 80 72 69 73 86 64 60 61 63 64 63 66 69 77 84 89 87 87 90 91 89 94 91 94
41 50 52 51 48 48 48 49 64 66 55 59 73 68 73 76 66 62 62 64 68 65 65 71 67 67 73 69 68 68 69 71 84 86 91 89 88 88 89 87 90 93 96
51 53 56 55 52 50 49 48 50 48 45 46 46 52 55 51 54 58 61 61 61 61 66 69 76 78 79 75 76 77 78 84 86 90 91 91 93 93 92 90 92 95 95
55 54 56 49 47 47 49 49 49 49 47 45 42 44 48 50 55 62 62 60 62 63 73 82 85 83 83 83 86 90 92 88 90 93 94 93 92 93 90 92 92 93 92
61 55 58 58 55 53 50 50 52 50 50 50 50 51 51 54 58 63 59 60 66 68 86 89 88 85 86 90 92 93 92 90 91 91 93 94 94 95 94 93 92 94 93
57 60 63 60 56 50 48 51 52 51 55 60 62 56 55 57 61 58 58 71 83 84 85 87 85 88 90 92 92 92 92 93 92 94 92 94 94 96 93 91 92 88 88
60 53 51 48 48 49 54 54 53 57 63 65 66 64 61 74 82 70 76 84 87 85 84 88 88 90 93 94 94 93 93 92 92 93 94 95 94 94 95 94 93 95 92
62 55 50 49 49 53 59 59 58 62 66 67 68 59 61 82 82 82 79 83 84 87 89 90 91 93 94 94 94 94 93 93 92 94 94 94 94 95 92 93 93 93 94
54 51 49 51 50 55 61 58 62 64 66 70 70 60 63 64 82 84 79 84 85 86 84 91 93 93 94 95 95 94 94 93 92 94 94 92 92 93 93 94 95 95 96
50 48 48 50 52 57 59 61 66 68 70 72 74 66 65 70 75 88 87 85 87 87 86 89 93 93 90 93 94 95 96 94 95 95 94 95 96 96 96 95 94 95 94
52 51 51 55 61 64 64 68 71 72 75 76 78 73 79 81 85 85 88 89 88 88 89 91 92 94 94 93 92 92 96 96 96 97 99 98 97 94 94 94 93 94 94
56 54 56 64 65 69 74 81 86 88 86 80 80 79 84 85 90 93 91 91 92 93 91 90 91 93 94 94 94 94 94 95 98 99 99 98 97 96 96 95 93 94 92
58 58 62 66 75 81 82 89 97 98 97 93 92 95 94 94 93 93 93 94 93 90 90 90 90 92 93 93 93 92 93 97 98 96 97 98 97 96 97 95 92 94 94

GFSGL_sfc_rhum_054.txt.gz
RH
91 91 95 95 91 86 86 77 61 49 49 44 40 42 42 41 39 38 41 34 36 39 42 44 49 51 57 62 66 67 69 74 77 66 68 65 72 69 63 64 63 60 61
85 89 92 88 86 84 78 64 51 48 41 41 37 38 39 40 32 34 37 42 47 44 43 48 49 42 56 60 66 66 69 70 76 73 74 79 77 74 75 72 64 57 64
80 83 81 82 79 75 60 50 46 40 35 34 34 33 32 32 31 31 33 36 40 46 51 52 52 57 61 66 68 70 72 60 77 80 76 80 83 82 80 74 80 76 64
72 68 71 68 61 47 42 37 37 37 38 39 38 35 33 34 44 50 55 62 66 56 54 56 56 58 59 61 62 66 65 75 79 82 81 87 93 85 83 81 75 67 66
68 62 59 52 47 41 40 39 39 38 38 40 44 53 61 65 61 67 71 69 59 53 58 56 57 58 55 53 55 69 74 78 83 92 90 98 95 81 79 76 76 70 67
66 62 51 46 49 49 46 48 46 52 59 64 77 77 63 52 65 63 59 58 56 58 64 62 58 55 58 56 55 53 54 71 95 98 98 95 87 84 78 80 78 86 87
57 55 55 50 51 53 54 57 63 66 65 70 56 49 60 64 56 52 60 59 64 64 63 64 59 51 67 68 66 60 62 61 60 70 85 87 89 83 81 90 91 96 85
72 70 62 67 73 72 74 75 83 88 75 73 70 67 66 55 51 51 59 63 66 65 67 67 72 73 72 65 70 83 84 83 80 75 84 82 79 75 79 82 77 81 78
80 78 80 79 83 78 81 80 62 51 60 58 46 41 52 56 48 47 60 67 63 64 65 68 72 75 66 60 70 89 84 82 67 61 61 64 67 64 61 71 88 91 87
85 92 91 96 93 91 82 85 93 94 82 63 52 43 43 43 44 38 48 65 64 63 68 70 67 62 61 62 67 78 83 73 72 80 73 63 62 68 66 72 85 96 94
95 98 98 96 91 95 99 99 92 77 57 42 43 46 48 48 50 42 46 60 64 75 77 73 70 67 66 64 61 71 68 62 70 67 64 66 69 73 74 77 83 95 95
97 97 96 94 96 94 92 77 58 47 48 50 52 58 55 55 56 56 56 59 64 76 75 75 76 68 64 63 63 63 62 64 65 68 76 82 85 87 86 86 85 89 90
96 93 87 66 48 42 44 48 48 49 50 53 55 60 59 60 69 64 64 62 64 70 75 69 68 64 62 66 66 64 65 72 73 84 90 90 89 90 91 91 90 90 93
56 52 46 49 50 50 51 48 51 53 55 54 58 64 73 72 70 73 72 79 72 72 76 83 63 62 65 66 66 66 67 71 79 86 90 88 86 89 90 89 94 92 94
46 55 58 53 49 51 53 59 62 61 50 56 69 66 70 72 63 62 64 64 74 67 70 66 69 71 76 72 70 71 72 74 87 88 92 90 88 90 90 88 92 93 96
54 54 57 56 52 54 57 56 53 48 46 46 52 57 55 52 55 60 62 61 65 62 69 75 81 84 83 80 81 82 82 87 89 91 91 92 94 93 92 90 91 94 95
56 57 58 49 50 50 49 47 47 48 45 48 49 50 51 54 56 62 61 61 62 65 78 87 91 89 89 89 91 93 94 90 91 94 94 93 93 94 90 92 91 93 92
60 55 57 57 54 53 52 52 52 50 53 56 54 55 54 56 59 60 59 60 69 72 91 95 94 91 91 93 93 94 93 91 92 93 94 94 94 95 94 93 93 94 93
63 64 61 58 55 51 52 53 53 55 61 67 66 60 59 61 61 58 61 75 88 88 90 91 90 93 93 93 93 94 94 94 92 94 93 94 93 95 94 92 93 88 88
59 54 52 49 50 54 57 56 57 63 68 70 70 68 66 72 88 79 81 88 92 90 88 92 92 93 94 95 94 94 94 93 93 94 93 93 92 94 94 94 93 94 93
63 58 50 49 54 60 62 59 61 66 70 71 72 64 63 83 87 86 84 87 88 90 92 93 94 94 94 94 94 94 94 93 93 94 93 92 92 94 92 92 92 92 94
53 52 51 53 56 62 60 61 67 68 71 75 76 67 66 71 87 89 87 90 89 89 89 92 95 94 94 95 95 95 94 94 92 94 94 92 92 94 95 95 94 93 94
51 50 51 53 62 58 62 67 70 76 80 82 84 75 74 79 84 95 93 90 91 91 89 92 94 94 92 94 95 95 96 94 94 95 94 94 96 96 96 96 95 94 93
52 52 54 58 67 66 72 75 82 79 81 82 84 78 86 87 89 89 91 93 92 92 92 93 93 94 94 94 93 93 95 95 95 96 98 98 98 95 95 95 93 94 92
55 55 58 65 66 73 79 84 89 91 88 83 84 83 87 87 92 94 94 95 95 95 93 91 92 94 94 94 94 94 94 93 98 98 98 98 98 97 96 94 96 95 92
59 59 63 69 81 86 87 91 97 98 98 96 95 97 95 95 95 95 95 96 95 91 91 92 91 93 94 94 93 92 90 95 98 98 90 95 98 97 95 95 95 94 91

GFSGL_sfc_rhum_057.txt.gz
RH
90 95 98 99 98 96 95 90 82 75 72 66 61 53 48 46 40 38 39 41 46 50 49 48 50 49 55 62 66 70 73 77 79 69 70 66 71 71 66 69 70 68 67
95 97 99 97 96 96 91 81 72 76 64 57 49 43 41 39 35 36 37 42 49 55 53 48 47 42 53 57 61 67 72 73 77 72 78 79 79 75 77 81 66 59 66
95 96 96 96 94 86 75 63 60 51 45 44 43 44 39 39 38 40 42 42 44 51 59 64 58 53 55 62 64 70 72 61 77 84 77 84 85 86 87 85 84 79 68
85 93 94 86 80 73 70 63 51 41 43 42 41 38 38 39 45 52 59 66 68 64 62 60 56 57 59 59 59 66 65 76 81 82 79 88 91 86 95 90 80 74 72
67 69 73 68 60 57 53 47 43 41 41 44 49 60 69 74 72 80 82 86 80 58 54 54 56 59 54 56 60 73 76 80 82 91 91 97 97 94 87 78 85 78 76
58 58 56 51 51 51 53 53 56 61 67 72 79 83 86 80 87 82 70 59 56 57 60 60 60 56 64 60 59 57 57 75 96 98 97 98 93 90 81 85 85 91 89
62 61 55 56 62 64 64 69 75 81 85 90 89 82 88 87 82 80 68 65 72 64 61 65 61 54 72 72 69 63 65 63 62 74 88 87 87 83 85 92 91 95 88
79 78 77 80 80 80 82 88 92 94 93 95 96 98 99 89 74 72 64 59 60 62 64 71 74 75 78 69 74 85 85 83 80 76 85 81 83 80 88 87 83 81 80
90 95 93 85 88 90 95 97 98 97 98 99 97 85 73 67 55 57 60 62 59 63 65 70 74 78 70 62 73 89 83 83 68 62 62 66 68 65 62 71 90 93 88
91 94 89 92 93 97 96 97 100 100 99 93 81 76 65 54 52 42 52 63 64 65 71 71 68 66 64 63 67 78 86 74 74 84 71 64 63 68 69 74 88 96 94
93 95 97 97 98 98 100 100 100 96 92 78 52 52 53 56 60 49 57 65 69 77 77 75 72 70 65 62 62 75 72 66 72 70 68 70 72 75 75 78 83 96 96
99 99 100 100 98 96 95 93 94 68 55 51 53 54 56 58 57 56 58 61 63 74 76 77 78 70 65 63 64 66 65 68 69 72 79 84 87 88 87 87 85 88 89
97 99 99 90 72 56 53 52 52 53 55 56 54 57 58 60 70 66 63 60 62 71 75 71 68 63 63 69 68 68 68 75 76 86 91 91 90 91 91 92 90 90 91
79 61 51 54 55 54 54 53 54 55 55 52 53 60 70 66 68 71 71 80 71 72 74 76 61 64 67 69 69 68 69 72 82 89 92 89 89 91 92 90 95 92 94
54 59 60 54 55 59 60 57 58 57 49 54 64 62 68 71 61 62 66 68 77 69 70 68 72 74 81 77 75 76 77 78 90 91 93 91 90 90 91 90 93 94 96
57 57 58 57 61 64 68 71 54 52 48 52 58 58 55 54 56 60 62 61 63 63 72 79 86 88 88 85 86 87 86 89 91 93 92 93 94 94 93 91 92 95 95
60 59 58 51 51 50 50 47 47 49 52 54 54 54 53 55 57 61 61 62 61 66 83 95 96 93 92 92 94 95 96 92 93 95 95 94 94 94 91 93 92 93 92
62 54 54 55 52 53 53 52 51 51 56 60 57 57 56 60 62 60 61 62 72 75 95 97 96 93 93 94 94 95 94 93 94 94 95 94 94 95 94 94 92 94 94
62 61 57 55 54 54 54 53 55 59 65 70 70 62 61 62 61 61 64 78 91 92 94 94 93 94 95 94 94 95 95 95 93 94 94 94 93 95 93 92 92 88 88
59 54 54 54 54 57 57 57 60 66 71 72 73 71 70 73 90 87 86 91 93 92 91 94 93 95 95 95 95 95 95 94 94 94 94 93 93 94 94 94 93 94 91
65 58 48 51 57 61 60 60 65 69 72 74 76 68 64 85 92 92 91 94 95 93 94 94 95 95 95 96 96 96 95 94 94 94 94 92 93 95 91 92 94 94 92
61 56 51 54 62 64 61 65 69 71 75 81 82 74 69 78 92 94 92 94 93 93 91 93 95 94 95 96 95 95 94 94 93 94 94 92 92 92 93 96 95 93 91
54 53 52 59 66 60 66 69 73 82 86 88 89 79 79 84 88 96 95 93 94 93 90 92 94 94 94 95 95 95 96 94 94 95 95 93 95 95 97 96 95 94 93
52 53 54 64 64 68 74 76 84 80 83 84 87 81 90 89 90 91 93 95 95 92 92 94 94 95 94 94 93 93 94 95 95 95 97 98 97 95 96 94 93 95 96
55 55 57 64 66 72 79 84 89 91 89 85 86 86 90 89 92 95 95 96 96 95 93 92 94 94 94 94 94 94 93 92 92 98 97 98 96 96 96 96 95 96 91
57 57 61 69 79 85 87 92 97 98 98 95 95 97 96 96 95 96 95 96 96 94 92 92 93 94 94 94 94 93 90 88 91 97 98 97 96 96 96 96 97 96 92

GFSGL_sfc_rhum_060.txt.gz
RH
95 95 96 97 99 98 98 98 96 94 90 86 78 73 65 55 48 44 42 42 46 48 51 52 61 64 76 72 72 65 66 68 75 70 68 65 65 63 61 71 73 76 74
97 98 98 93 95 95 93 89 84 82 71 69 59 52 46 39 37 37 39 46 50 57 59 61 64 61 70 65 66 67 62 70 76 78 72 74 76 72 76 82 66 59 68
96 97 94 93 91 87 79 74 69 64 58 50 45 42 41 40 40 44 52 58 58 66 71 76 76 74 71 66 62 72 76 60 75 79 80 83 85 86 87 86 88 84 71
92 93 90 87 81 78 70 62 56 51 52 49 44 42 45 47 52 59 67 75 78 82 80 75 72 70 70 66 58 61 64 73 77 82 84 90 89 86 95 94 86 80 74
78 79 72 70 68 66 62 60 60 62 58 52 56 60 66 69 73 84 88 89 90 90 92 92 92 82 60 57 62 71 74 77 84 96 92 96 98 95 91 82 86 81 80
68 61 59 60 64 69 69 71 79 73 66 72 77 83 90 88 87 86 88 92 93 90 86 64 59 59 72 65 57 57 61 78 95 98 97 96 94 95 93 86 87 92 88
63 62 65 67 74 77 79 82 81 83 85 91 91 90 94 92 89 90 87 91 92 81 63 63 57 54 71 74 71 65 68 64 64 78 94 93 90 84 85 92 92 95 89
77 76 75 79 84 85 88 91 94 94 92 94 97 98 99 97 92 85 83 75 62 62 63 69 74 75 77 70 74 85 85 84 82 78 88 85 87 83 85 86 84 82 79
91 93 87 85 90 92 98 99 99 99 100 100 100 100 96 91 82 81 77 62 59 60 62 71 74 76 69 64 76 91 89 82 66 62 63 67 68 66 64 75 91 93 88
97 96 92 94 97 99 98 99 100 100 99 96 95 95 90 90 74 60 64 62 65 70 72 72 69 67 64 62 67 81 86 77 77 83 76 66 66 71 71 77 90 98 94
94 97 98 98 98 98 100 100 100 99 93 84 73 63 64 60 61 60 61 70 74 80 76 74 72 70 64 63 62 77 74 69 75 75 72 74 75 79 78 80 84 98 96
98 98 100 99 99 100 99 96 90 70 60 59 57 56 58 62 60 60 60 60 62 73 75 78 81 65 64 62 66 67 66 70 72 76 82 87 90 90 89 88 87 91 91
97 97 99 98 76 62 59 53 55 54 57 57 52 58 63 63 74 65 64 61 64 73 73 70 67 62 64 72 71 69 69 79 79 90 94 93 92 92 92 93 92 92 93
90 66 56 57 56 56 55 54 55 55 57 51 51 61 70 68 71 72 71 81 69 70 74 74 62 66 70 72 71 71 73 76 86 92 94 91 91 96 94 93 96 93 95
58 62 59 57 60 60 53 53 56 54 52 57 64 62 68 72 63 64 66 68 78 69 71 70 77 80 86 82 80 80 82 82 93 93 95 92 92 92 92 90 93 94 96
58 55 60 64 71 72 77 79 56 55 56 57 60 59 57 55 56 60 62 61 62 62 73 84 92 94 92 89 89 89 88 90 92 94 94 95 95 95 94 92 92 95 95
61 59 61 55 54 53 54 52 51 54 56 57 57 55 56 58 60 63 61 63 60 68 86 97 97 95 94 94 96 97 97 94 95 97 96 96 95 94 92 94 93 94 93
62 54 52 53 52 55 54 52 52 53 57 61 59 59 60 61 63 62 63 63 75 78 96 98 97 95 95 97 96 96 95 94 95 95 96 95 94 96 94 93 93 94 94
61 58 55 55 56 55 54 55 58 62 67 72 72 63 64 63 63 63 66 84 95 96 96 96 94 96 96 96 95 95 96 96 94 95 94 95 94 95 93 92 93 88 88
56 53 56 59 57 57 56 58 62 68 73 74 75 74 74 76 91 91 90 96 97 96 93 95 93 95 96 96 96 95 95 95 96 96 95 94 93 94 94 93 92 94 92
66 59 51 53 57 59 60 61 67 70 74 77 79 72 66 88 96 97 96 96 97 96 96 95 96 96 95 96 96 96 95 94 95 95 94 93 94 94 89 91 92 93 95
60 59 52 57 65 63 62 67 70 72 78 85 86 78 70 82 96 96 93 95 94 96 94 95 96 95 95 96 95 95 94 94 93 94 94 93 93 91 92 96 93 92 90
55 52 53 63 64 63 69 70 75 84 88 90 91 81 80 86 90 96 95 95 95 95 93 94 95 95 93 95 95 95 96 94 94 95 95 93 93 94 96 94 93 94 94
53 53 54 64 63 66 72 75 82 78 82 84 87 82 91 91 91 91 94 96 96 93 94 95 94 95 94 94 94 93 94 94 94 94 95 97 98 96 95 95 92 91 94
54 54 56 67 74 70 75 84 87 90 88 85 85 86 92 90 92 96 96 97 96 96 93 93 94 95 96 95 94 94 94 91 92 91 95 98 98 96 95 96 91 94 95
56 55 58 66 73 79 82 89 97 98 97 94 94 97 96 94 95 96 95 96 96 94 92 92 93 94 94 94 94 94 91 90 93 90 96 98 97 95 96 96 96 94 89

GFSGL_sfc_rhum_063.txt.gz
RH
82 84 90 91 90 90 90 90 88 86 87 86 85 82 77 74 66 59 51 45 44 45 48 52 60 68 73 75 81 82 84 75 82 64 48 44 45 44 43 44 49 48 48
83 88 88 85 86 88 88 86 84 85 80 76 73 65 60 55 45 43 40 41 44 55 62 65 69 68 82 83 87 86 81 73 62 56 49 48 49 49 49 53 51 47 48
82 84 84 83 82 82 78 75 74 70 67 60 53 50 44 41 40 42 48 54 58 64 71 77 84 89 96 99 95 84 81 64 70 73 60 54 54 55 56 56 57 56 51
77 78 79 78 72 70 67 60 55 51 48 47 44 46 49 51 56 59 64 71 76 82 86 88 95 97 98 93 88 83 77 74 70 66 60 65 62 59 66 67 61 52 52
61 64 68 66 64 62 64 66 65 60 61 61 64 67 68 71 74 81 86 91 94 98 100 100 97 91 91 80 69 72 68 62 63 74 74 71 71 64 62 60 61 58 59
64 64 65 68 71 77 79 77 78 82 82 81 86 84 84 82 85 87 88 94 95 95 89 87 85 76 83 80 67 58 57 63 84 80 83 75 68 64 61 61 68 77 77
71 69 70 75 81 85 83 86 93 97 95 96 93 91 92 91 90 91 93 96 93 89 73 59 59 64 75 66 64 61 63 64 65 68 70 65 65 58 74 88 81 82 75
83 80 77 80 86 87 92 97 100 99 98 99 100 100 99 97 92 84 86 79 59 66 81 75 66 63 62 60 61 74 74 69 65 60 60 59 61 68 71 78 70 66 63
91 92 91 87 92 95 98 100 99 99 100 100 100 100 98 92 83 82 65 57 59 62 62 60 61 61 65 60 66 84 66 60 56 61 64 69 67 64 63 66 79 81 81
96 98 96 98 97 99 98 99 100 100 100 99 100 99 91 92 82 81 59 53 59 61 61 59 65 63 62 60 61 64 66 56 62 71 58 53 56 58 70 62 74 94 90
97 98 98 98 98 99 100 100 100 98 96 90 85 69 61 60 63 62 64 61 63 64 63 62 62 67 62 61 60 60 59 58 66 57 55 57 58 60 62 63 69 89 94
98 98 99 100 99 100 95 83 69 62 56 51 47 46 48 58 62 60 60 61 61 64 66 65 65 63 60 62 63 66 66 68 57 60 67 70 74 77 78 78 78 82 81
98 98 94 75 61 53 43 45 46 46 47 44 40 47 52 56 59 65 64 63 63 63 60 65 64 62 66 67 70 70 68 62 65 76 80 83 82 84 91 89 88 89 92
74 53 47 46 48 46 45 43 45 46 44 39 42 51 56 56 59 61 63 64 66 60 67 59 60 66 71 69 65 64 62 64 72 77 82 78 80 86 86 84 92 90 94
51 52 51 49 45 44 44 40 40 41 41 44 51 51 55 59 57 58 59 58 60 58 63 55 61 64 68 66 67 67 67 67 77 78 85 85 82 84 86 85 90 92 94
48 48 53 56 60 63 65 64 57 59 59 59 61 55 54 56 57 61 61 61 61 63 58 66 70 72 74 73 74 73 73 79 78 85 86 87 91 91 92 90 90 94 94
51 53 55 54 54 59 54 49 58 54 58 59 58 56 60 60 63 62 62 64 59 65 67 75 78 79 80 81 83 86 89 83 91 92 93 92 92 92 92 92 92 92 90
55 56 45 41 41 43 40 40 40 40 43 48 56 56 63 62 63 63 66 60 61 66 76 80 82 81 82 86 87 90 90 88 89 91 92 92 94 95 95 93 90 92 92
54 50 46 46 47 46 44 46 48 50 53 56 57 55 61 65 65 64 66 68 76 76 77 80 79 83 86 88 89 90 92 93 93 94 92 94 94 95 93 90 90 86 85
49 51 50 53 52 47 47 49 52 54 57 58 60 60 61 68 74 72 73 76 77 77 77 80 80 84 88 91 92 92 93 92 92 93 93 94 93 94 94 91 89 92 88
57 55 55 48 48 48 49 50 55 57 60 63 65 64 65 75 76 76 76 76 78 79 80 80 84 88 91 92 92 92 92 92 93 94 94 93 93 94 87 87 88 88 95
56 56 48 51 56 53 52 55 57 60 65 70 69 68 69 69 75 77 75 77 77 78 78 83 87 88 91 93 93 93 92 94 93 94 94 92 91 90 88 89 91 94 89
52 46 48 54 56 58 61 58 61 68 72 75 74 69 68 71 74 78 79 77 79 81 78 82 86 91 88 92 94 95 96 93 93 94 94 93 91 91 90 96 94 93 89
46 46 49 56 60 57 57 60 66 70 72 73 73 70 74 77 76 77 79 80 82 80 82 84 86 91 92 93 93 94 95 94 94 94 94 96 93 93 97 95 93 92 89
48 47 48 56 58 61 59 72 71 74 76 74 73 73 78 78 79 82 82 85 88 87 84 83 87 91 94 94 94 94 94 92 94 96 97 97 97 98 97 95 93 91 90
49 48 49 55 60 61 64 70 78 83 85 80 82 86 86 85 83 86 87 88 88 86 87 84 87 92 93 93 93 94 92 91 92 91 97 98 98 92 91 97 94 95 89

GFSGL_sfc_rhum_066.txt.gz
RH
59 64 72 70 68 69 70 70 71 70 74 78 82 85 87 86 82 81 75 72 72 77 71 77 76 73 74 71 75 78 89 91 94 97 97 89 66 56 40 40 42 40 38
61 64 70 67 66 69 69 69 70 74 72 74 77 78 76 74 66 59 53 50 52 55 60 64 70 68 82 86 88 92 95 98 95 94 74 71 59 55 61 55 42 37 41
61 63 65 64 62 63 61 61 62 66 65 65 63 58 54 50 52 46 48 55 58 61 67 73 76 81 93 98 99 98 98 98 88 77 70 63 61 51 49 46 46 45 38
55 60 64 62 59 57 55 50 49 47 46 46 46 45 48 50 54 57 64 72 79 81 86 86 90 94 98 100 100 94 82 72 63 64 56 54 52 50 54 54 48 43 42
54 59 62 62 60 60 64 64 61 60 61 62 64 63 68 70 71 80 84 89 93 98 99 100 99 98 95 86 75 66 63 65 64 72 66 58 59 51 50 48 49 45 48
56 59 61 64 70 75 78 81 81 84 83 82 86 84 85 84 84 87 89 94 94 93 94 93 92 82 79 79 73 69 61 62 75 75 76 63 53 47 46 47 57 69 75
62 60 65 68 73 77 81 84 94 96 95 96 95 93 95 95 94 93 93 98 96 92 87 83 78 68 73 58 60 61 59 62 63 61 60 52 51 46 66 85 74 81 74
66 67 72 74 80 85 93 97 99 99 100 100 100 100 100 100 99 98 92 80 72 75 71 68 59 56 55 58 55 62 65 60 55 49 51 48 48 53 61 74 64 59 56
78 81 79 80 93 95 99 100 98 99 100 100 100 100 100 99 89 81 70 75 82 75 61 52 53 50 58 62 59 80 58 51 45 53 61 66 68 66 62 62 74 74 75
91 96 95 94 97 99 98 100 100 100 100 98 100 95 78 77 80 76 56 49 47 47 49 49 60 60 60 60 57 55 57 45 55 65 50 46 47 49 59 58 67 87 89
95 97 98 98 99 98 100 100 100 99 91 83 70 59 58 60 58 65 59 50 50 52 52 50 51 63 61 59 59 50 51 56 58 50 45 47 48 51 54 56 62 84 91
98 98 100 99 94 92 86 72 60 55 50 44 42 41 45 50 57 60 62 62 60 53 52 51 52 60 60 62 61 65 66 67 49 51 57 61 67 72 74 76 76 81 79
95 94 85 70 46 32 31 34 34 33 32 29 30 32 38 44 46 62 61 61 61 52 52 60 58 59 61 58 64 69 66 53 55 66 71 77 78 81 87 86 92 92 91
65 52 38 32 32 32 33 30 29 28 25 26 29 36 40 43 47 49 51 48 56 49 61 48 53 60 64 63 56 53 53 54 62 68 72 71 75 81 82 81 87 86 88
37 34 36 34 28 27 28 24 24 30 31 31 40 39 41 46 51 55 56 51 52 52 59 41 45 49 54 52 54 55 55 56 67 69 77 79 78 79 82 84 85 91 94
33 36 36 36 37 40 42 46 60 59 61 61 59 48 46 54 57 61 60 62 59 64 44 46 52 57 60 59 60 61 63 70 71 79 81 82 86 88 88 87 89 88 91
34 38 40 37 39 40 37 39 51 57 59 60 56 55 59 60 62 62 62 64 56 58 48 57 63 65 68 69 72 76 81 76 86 88 87 88 88 89 91 90 89 88 85
40 49 38 34 34 32 26 26 25 26 27 31 47 52 60 61 62 63 65 55 44 50 61 66 70 69 71 76 79 83 84 82 84 85 87 88 90 93 93 91 90 87 88
41 39 34 31 30 31 29 30 30 32 33 34 37 43 50 63 64 63 63 49 56 58 61 66 66 71 77 81 82 84 86 88 88 90 89 89 90 93 92 90 90 81 80
37 41 36 30 35 31 31 32 33 34 35 37 40 41 43 58 65 55 54 57 58 58 60 65 68 74 80 84 87 88 88 88 90 90 90 90 90 91 93 92 87 90 85
37 41 42 34 31 30 30 31 33 36 39 41 43 45 64 63 63 55 55 56 58 62 65 66 71 77 83 86 87 87 88 89 90 92 93 90 88 92 85 83 86 82 84
40 40 39 32 33 35 32 33 37 39 42 45 45 48 65 55 53 56 56 58 60 62 61 68 76 77 82 89 91 91 90 90 89 92 92 91 89 88 85 89 85 85 90
42 41 34 33 35 39 42 37 40 42 45 48 49 49 48 49 52 59 62 60 63 66 63 67 74 80 79 85 88 92 94 92 91 93 94 91 90 88 89 91 91 95 90
39 34 31 33 36 41 38 36 39 50 50 52 50 49 50 53 55 58 63 65 67 66 67 70 73 80 84 86 88 90 94 94 94 94 92 95 92 90 92 96 94 86 90
37 32 32 35 38 39 35 40 43 46 50 51 52 52 52 56 59 66 66 69 75 76 73 72 75 80 86 90 92 92 93 91 94 95 96 98 97 97 97 96 88 91 90
37 33 31 34 37 40 40 43 52 57 63 62 62 66 65 67 67 71 72 75 78 75 77 76 77 84 88 90 90 91 91 91 93 93 97 98 97 95 94 95 92 88 90

GFSGL_sfc_rhum_069.txt.gz
RH
52 57 61 60 60 60 61 60 61 61 63 66 68 74 82 86 87 88 84 83 84 85 84 85 85 85 92 91 91 92 93 95 96 98 95 95 94 89 77 62 51 46 45
55 56 58 57 57 57 58 60 60 65 63 67 68 73 75 77 74 74 76 74 79 81 82 81 84 76 84 92 94 95 96 97 93 96 96 94 93 83 70 69 58 41 43
53 56 56 56 54 53 51 49 50 52 51 51 52 55 54 58 52 51 56 60 66 71 73 79 84 87 94 98 99 98 98 97 97 96 86 67 67 66 62 53 53 50 42
54 56 60 58 56 56 54 52 52 50 50 51 51 54 55 56 60 65 68 76 81 85 89 90 92 95 98 99 98 97 92 89 82 76 68 67 62 59 65 64 60 55 50
54 59 62 62 61 63 65 67 64 63 61 61 66 69 71 75 75 83 86 90 94 98 99 100 98 95 92 84 79 77 73 71 68 79 76 72 75 66 61 60 58 55 57
56 60 62 63 67 72 74 74 74 79 78 80 86 86 86 84 84 87 89 92 93 94 97 99 91 86 82 82 81 83 79 72 85 86 89 76 64 59 58 60 74 80 82
57 60 63 66 72 75 75 78 85 89 94 96 96 96 96 95 96 96 97 99 96 98 98 94 79 73 78 67 61 58 59 58 60 68 71 64 61 56 84 92 82 82 80
62 66 66 71 82 91 93 96 99 98 99 98 100 100 100 99 97 97 97 100 98 95 93 84 65 55 56 64 61 69 72 68 66 56 63 57 57 62 70 77 77 72 67
73 78 79 82 94 94 98 100 98 98 100 100 100 94 89 85 81 83 83 86 86 87 82 71 57 51 60 62 67 85 69 62 44 46 53 60 64 67 66 73 85 85 78
88 91 88 91 88 99 98 99 100 100 100 92 97 78 71 76 70 62 51 46 51 49 53 51 61 63 61 62 62 61 66 55 62 73 66 57 53 55 54 66 79 86 88
94 95 94 97 96 97 100 100 100 98 89 79 65 60 55 57 62 62 60 54 55 56 54 53 55 62 61 60 60 63 57 59 65 64 57 58 60 63 68 69 73 88 94
99 98 99 95 85 87 90 75 61 56 48 42 41 44 46 49 58 62 62 62 60 54 52 54 57 62 60 62 64 58 65 68 63 60 67 74 82 87 80 79 80 82 85
93 89 82 69 49 34 33 34 32 29 28 27 33 35 40 46 47 59 60 60 59 55 56 63 59 56 59 62 60 67 67 64 63 75 82 89 90 82 86 84 84 85 88
70 61 40 30 30 30 34 29 27 26 26 31 34 39 44 46 51 52 54 52 52 52 62 59 48 59 60 64 61 57 60 61 70 79 82 82 82 81 81 81 89 87 89
42 33 33 34 28 27 28 28 24 39 47 35 44 42 45 49 56 59 61 58 61 58 66 47 47 51 59 57 59 60 63 63 78 80 79 80 79 80 82 87 85 89 94
33 37 35 33 32 42 47 53 63 61 62 60 57 54 49 55 57 62 61 63 62 60 54 45 52 62 65 64 65 68 73 76 75 81 84 87 89 90 90 91 90 88 93
34 37 38 35 36 37 36 45 58 62 60 58 55 56 60 61 62 62 63 66 54 59 49 61 68 72 75 78 82 81 81 81 84 90 93 91 93 91 87 92 91 90 88
41 47 40 37 40 36 31 31 30 32 30 36 50 54 57 60 61 63 63 61 44 49 62 72 76 76 78 79 82 84 88 88 87 88 90 92 94 95 94 93 92 92 90
44 44 39 41 38 34 32 31 30 31 31 31 36 48 48 56 64 64 61 53 57 61 66 71 74 79 80 79 88 90 92 93 92 95 93 93 94 95 93 92 91 86 86
43 45 40 35 36 33 32 32 32 32 32 34 37 39 40 51 69 62 55 58 61 62 63 70 74 82 79 86 85 92 94 90 88 92 93 93 93 95 95 93 92 92 90
43 45 42 35 35 32 32 32 33 35 37 39 40 39 53 67 68 61 57 59 61 66 72 72 78 84 82 83 88 94 94 93 91 92 94 93 93 95 90 90 90 87 89
42 44 44 37 35 36 34 33 34 36 38 40 42 42 56 61 58 58 58 61 64 68 68 72 80 83 88 86 86 93 92 91 92 94 94 93 94 93 92 93 89 88 89
45 45 41 34 36 38 39 36 38 39 41 43 46 45 44 47 49 60 65 64 69 73 70 73 78 84 85 89 87 88 96 93 92 95 95 94 92 92 91 92 90 90 91
44 42 36 33 37 38 40 38 38 42 43 46 48 46 48 50 52 58 64 68 72 73 76 78 80 84 85 89 89 90 93 94 95 95 95 95 94 91 91 92 93 96 94
44 38 33 35 38 43 40 38 39 44 44 45 47 48 50 51 56 67 70 75 81 82 83 82 83 84 87 90 91 91 90 88 94 96 97 97 97 96 96 96 94 91 92
43 37 33 33 39 40 41 45 57 64 69 67 68 71 69 72 72 77 79 81 84 84 84 84 84 86 88 89 89 90 88 89 93 94 96 97 96 98 95 96 93 91 91

GFSGL_sfc_rhum_072.txt.gz
RH
71 77 82 82 80 83 85 84 84 84 85 86 83 77 87 88 90 88 89 88 90 92 92 92 93 90 96 96 96 96 98 97 99 99 98 97 97 94 80 74 67 59 54
71 74 74 73 70 68 66 69 71 74 66 68 67 68 67 65 73 76 77 80 83 85 86 88 91 85 94 94 95 96 96 97 97 97 96 95 93 87 80 75 63 52 56
70 73 73 72 71 70 67 62 58 58 59 57 57 56 58 58 56 60 65 72 78 80 82 84 88 90 96 98 99 99 98 93 95 91 93 89 85 77 83 78 70 64 50
72 75 79 78 76 75 73 70 69 69 71 70 69 68 68 71 74 76 81 87 91 92 93 94 94 95 97 99 98 97 90 90 86 82 80 81 72 68 74 72 77 68 66
73 77 81 80 81 82 84 81 83 83 81 76 77 79 79 84 83 89 88 92 94 98 99 98 98 93 91 94 95 86 82 79 81 89 85 82 90 74 73 70 69 78 76
74 78 77 80 81 82 81 82 79 87 88 85 91 90 87 83 84 87 89 92 92 96 98 98 98 98 97 90 84 78 76 82 88 97 98 90 80 74 70 88 92 96 96
75 75 77 78 82 87 85 86 92 92 93 97 97 96 95 88 88 88 88 95 96 97 98 100 98 91 91 88 67 56 61 64 66 76 84 80 76 68 85 94 88 97 95
81 80 76 84 93 93 96 96 97 98 98 98 98 100 100 97 88 87 89 98 97 99 98 96 92 76 72 77 72 78 78 76 73 62 75 72 67 74 82 86 92 90 89
87 88 87 92 96 95 98 99 98 98 97 100 93 92 90 91 76 77 88 96 95 93 87 81 68 64 60 61 77 88 78 67 45 42 46 55 61 64 68 91 96 98 95
88 93 87 88 97 99 98 97 99 99 99 89 97 91 78 86 60 55 64 79 77 73 65 68 61 66 62 62 73 78 77 66 78 80 78 72 63 63 50 72 94 96 89
93 90 92 92 98 98 96 100 99 97 96 93 88 83 84 79 74 64 62 74 75 73 67 67 68 61 60 60 60 80 68 71 79 85 74 76 77 81 84 86 85 97 97
97 98 99 97 92 93 95 92 87 82 72 64 64 68 71 78 64 63 61 61 65 69 66 74 77 60 57 59 66 62 67 72 84 75 79 90 94 95 87 87 85 88 88
96 95 87 91 94 92 69 61 53 47 45 43 48 58 63 62 78 56 57 57 56 68 72 66 58 51 56 66 58 63 64 78 77 94 97 97 97 96 94 90 92 93 92
84 82 80 50 44 44 45 41 41 40 39 44 47 56 63 65 74 79 74 78 65 69 73 82 52 52 54 63 66 65 70 73 85 95 96 97 93 83 81 86 93 92 93
73 51 46 48 45 48 74 54 60 73 64 56 63 60 67 72 75 66 69 73 80 69 72 66 57 62 71 71 70 72 75 77 93 96 90 89 86 89 88 88 92 94 96
46 52 53 47 43 62 73 82 63 63 59 58 57 63 63 56 58 62 62 64 65 58 72 60 72 86 89 79 81 85 88 76 79 86 91 93 94 94 93 92 94 96 95
50 52 52 47 52 56 62 78 85 73 59 57 54 56 58 58 62 61 62 63 61 53 69 88 91 94 95 96 97 85 89 85 92 93 97 96 95 94 90 93 92 94 93
55 55 56 51 53 50 49 53 65 74 68 69 53 56 56 58 61 62 63 64 58 56 83 91 95 95 96 94 82 93 92 88 93 94 95 95 95 97 96 96 95 94 94
60 64 58 59 56 46 42 40 39 40 41 42 52 54 53 52 58 63 63 70 78 84 88 92 93 95 96 82 82 90 95 95 93 96 96 95 95 97 96 96 95 84 84
62 58 56 52 48 45 44 43 43 42 43 44 47 49 53 60 91 87 79 81 85 84 83 91 93 96 97 90 86 91 95 94 95 94 94 95 95 96 95 94 94 95 91
62 60 54 48 51 46 44 44 44 44 46 48 50 44 45 85 93 89 82 84 84 87 92 94 94 95 97 92 84 94 94 94 94 95 95 94 95 95 92 94 94 92 92
57 58 58 51 49 46 44 44 44 45 47 50 52 47 47 68 86 83 79 82 85 89 90 92 93 94 95 96 93 85 88 90 93 94 95 94 95 94 93 94 92 92 92
56 57 55 47 45 46 48 45 46 47 49 52 56 52 51 57 62 78 80 86 91 91 90 92 93 93 94 95 96 95 91 93 93 95 95 94 94 93 94 93 91 92 91
52 53 50 43 46 49 50 50 48 48 50 51 55 54 58 59 61 67 82 89 90 91 94 94 94 93 94 94 94 95 94 92 94 95 96 95 94 92 92 93 92 92 94
53 51 44 41 44 50 48 52 50 51 49 52 55 54 58 60 66 84 87 93 94 94 94 94 94 92 90 90 91 93 93 83 89 94 96 97 96 96 95 94 93 96 94
53 46 41 40 45 49 51 54 65 73 77 75 72 78 78 83 87 92 93 94 94 94 94 95 94 91 91 91 91 91 84 84 87 88 94 97 96 94 93 95 96 96 94

GFSGL_sfc_rhum_075.txt.gz
RH
82 80 81 76 73 73 77 83 85 77 79 87 90 88 89 81 84 87 86 88 90 92 92 93 93 91 96 96 97 97 98 98 100 100 97 96 97 95 84 83 78 72 66
76 75 75 70 68 68 66 63 62 64 61 64 67 69 67 72 77 76 79 80 84 87 88 90 91 87 95 94 95 96 97 98 98 99 96 96 94 89 81 78 66 54 59
75 75 76 77 76 77 74 70 66 68 69 68 66 69 72 72 74 78 76 78 81 84 86 89 92 92 96 99 99 99 97 94 95 93 94 90 86 82 81 74 72 78 59
78 80 83 86 86 84 82 80 77 79 81 83 84 84 86 88 87 89 90 93 90 91 92 92 94 95 98 98 98 97 93 94 93 90 79 83 79 74 78 79 81 73 68
80 84 88 88 88 90 92 92 94 94 91 88 88 86 88 86 85 94 91 94 96 98 98 97 97 91 87 88 91 97 96 96 94 92 87 86 89 76 76 75 73 79 76
83 86 85 86 80 84 83 90 88 89 90 89 88 85 84 80 82 85 92 95 94 95 97 98 98 99 93 92 97 95 83 90 92 96 98 92 82 81 79 85 89 97 94
84 84 84 81 86 86 88 89 95 96 97 97 94 89 91 89 84 86 88 96 97 98 98 98 92 84 89 92 78 67 62 63 68 86 89 88 81 75 85 95 88 97 95
88 85 84 89 95 96 92 95 98 98 98 98 100 100 100 93 86 85 89 96 96 96 96 95 92 92 85 80 80 82 79 79 75 66 82 77 74 75 85 87 91 91 91
97 92 92 96 96 97 98 99 98 98 98 98 97 95 94 90 72 75 89 94 93 92 88 85 79 74 61 64 80 84 80 70 48 47 49 56 61 63 69 94 96 97 96
95 92 91 96 97 98 98 99 100 96 97 99 98 91 75 85 60 63 80 85 83 82 83 75 59 69 61 60 78 83 80 71 85 84 79 73 67 70 61 77 94 96 98
90 90 95 98 97 97 100 100 98 98 96 96 93 91 88 82 77 65 65 77 74 74 69 70 70 61 59 58 59 80 73 71 83 86 79 81 83 90 91 93 92 98 99
94 95 97 98 95 90 96 96 93 89 80 76 76 81 86 85 67 60 58 62 64 67 72 80 78 58 55 57 64 62 65 72 84 78 82 93 95 96 92 92 81 85 90
96 95 94 89 97 97 94 89 80 66 58 56 57 64 68 75 81 56 57 55 58 68 71 67 59 49 56 68 62 61 62 78 79 95 98 97 98 98 96 84 84 92 94
90 88 96 97 97 92 62 54 50 47 47 49 54 61 68 72 85 84 76 83 70 69 72 79 59 51 52 62 65 67 72 76 87 97 97 97 90 88 84 94 95 95 98
83 89 80 60 55 69 66 49 66 76 51 54 60 59 65 77 77 70 69 73 82 71 71 70 58 64 75 75 75 78 84 86 96 97 88 86 85 81 88 92 95 95 97
75 57 58 56 53 78 87 88 62 62 60 59 60 61 65 60 59 61 60 62 64 57 72 64 73 91 93 82 84 87 89 77 81 91 92 94 95 96 95 94 97 97 97
56 56 58 47 57 72 84 89 88 74 58 56 55 57 57 59 63 61 60 61 62 56 67 90 95 97 97 97 97 96 93 90 96 96 96 97 96 96 93 98 98 98 93
57 56 58 55 62 68 76 78 78 74 68 63 57 58 57 57 60 62 62 64 57 58 87 92 94 96 97 97 94 84 88 94 95 95 96 96 97 97 97 97 97 97 95
57 69 64 64 65 60 55 54 52 57 45 44 57 55 54 53 54 60 63 75 79 87 89 93 94 96 97 97 94 82 96 96 94 97 95 96 98 98 96 96 96 88 88
62 62 62 63 60 54 45 43 44 44 44 45 48 49 55 66 90 87 88 88 85 83 84 88 89 95 96 97 96 87 96 93 93 96 97 98 96 96 96 95 94 95 93
63 70 64 59 54 50 46 45 46 46 47 48 49 45 52 74 84 92 90 86 82 85 87 88 93 95 97 98 98 87 87 88 88 92 97 96 96 96 94 94 94 93 95
58 59 64 55 53 50 46 46 47 46 47 49 51 48 48 62 89 89 85 82 82 84 84 90 94 94 95 96 95 97 86 86 88 89 96 96 95 94 94 94 93 93 92
55 56 57 52 49 49 48 45 47 48 49 50 53 51 51 57 67 82 80 80 86 88 88 93 94 94 95 96 96 96 96 93 90 95 95 94 94 94 94 95 92 92 90
54 53 53 49 48 48 47 46 44 47 48 48 51 51 58 60 62 67 79 85 87 86 91 94 94 94 95 95 96 96 96 94 92 93 95 95 94 92 92 93 92 91 91
54 53 50 49 46 46 45 47 46 47 46 48 50 54 60 61 66 79 84 88 91 93 92 93 95 95 93 93 93 93 96 85 85 86 94 94 95 94 95 94 93 94 92
65 70 57 48 48 47 48 51 58 63 65 62 63 72 73 78 80 87 89 92 94 92 92 95 94 92 92 93 92 93 84 81 82 81 90 97 95 93 94 96 94 94 94

GFSGL_sfc_rhum_078.txt.gz
RH
82 81 78 75 71 72 76 76 73 71 79 85 86 82 86 92 90 86 86 88 90 91 92 93 93 92 96 96 96 96 98 98 100 99 97 96 98 96 90 92 88 85 78
76 76 75 72 72 70 69 67 66 68 65 67 65 67 73 78 86 81 80 82 85 88 89 90 91 87 95 94 95 96 98 97 97 98 96 96 95 94 88 85 74 58 62
77 79 80 80 79 80 78 76 74 76 78 78 79 82 83 85 87 92 92 95 88 87 90 91 91 90 96 98 99 98 96 92 94 93 97 92 90 83 82 75 73 78 63
81 85 89 90 90 90 89 88 86 87 89 90 90 92 93 95 94 95 96 97 96 97 96 93 93 94 96 98 96 95 90 91 91 92 92 94 88 80 81 80 83 76 70
86 89 92 91 90 93 95 94 94 94 95 94 94 94 93 89 86 97 92 91 92 94 97 97 96 89 84 85 93 97 97 98 97 92 89 86 95 77 82 86 81 86 80
88 90 87 82 81 86 88 88 87 90 90 85 82 88 81 78 84 88 94 93 95 97 98 98 94 94 87 86 86 83 83 93 98 99 99 95 88 83 81 84 88 96 94
88 88 85 82 85 87 87 89 93 95 95 97 97 94 92 84 84 86 89 97 98 98 97 98 94 80 83 86 75 68 69 63 70 89 90 91 88 81 88 95 91 97 96
91 91 84 87 93 91 96 97 99 97 99 99 100 100 100 91 84 85 90 96 97 98 98 94 90 88 84 85 88 87 85 85 75 73 88 86 80 78 86 88 92 92 91
96 92 90 95 97 96 98 98 98 98 99 99 95 94 92 88 71 75 87 92 91 90 86 84 81 83 66 68 78 84 78 70 57 63 60 60 61 62 72 92 98 97 94
93 93 93 96 97 98 98 99 100 98 99 97 97 91 76 86 66 69 79 80 86 83 82 70 60 71 60 60 78 82 81 75 84 87 80 70 72 78 72 80 94 96 98
91 93 97 97 98 97 100 98 94 99 98 98 93 91 88 83 77 63 65 71 73 74 70 70 70 61 57 57 61 80 74 71 84 84 80 84 87 91 92 93 89 97 99
92 97 98 96 90 92 95 98 96 94 92 91 91 90 89 86 63 58 57 63 62 66 71 78 78 61 54 56 63 64 64 75 82 80 87 95 96 97 96 96 90 85 90
92 94 96 93 86 86 97 95 93 80 75 75 72 78 79 78 82 61 57 55 59 67 70 71 61 49 54 64 62 60 66 78 79 96 98 98 98 98 96 93 90 89 92
89 88 89 95 97 98 89 82 71 66 58 53 57 64 71 74 83 81 73 81 68 68 68 81 60 53 54 64 67 70 73 78 90 97 97 98 90 87 89 92 94 94 95
90 92 94 97 96 90 66 60 54 55 51 53 58 61 68 72 76 75 74 75 84 73 71 68 59 66 77 77 78 82 87 87 96 92 93 91 89 91 91 91 94 97 98
89 95 94 78 67 75 67 82 62 66 56 53 56 61 64 59 61 63 60 60 62 60 72 66 74 93 96 84 86 89 90 77 81 85 94 95 96 96 96 98 99 99 97
83 76 66 57 67 82 86 86 89 74 59 58 58 59 60 64 62 62 59 60 62 60 66 87 96 97 97 97 98 98 89 86 96 96 97 96 96 96 94 98 98 99 96
82 65 60 54 57 70 79 84 82 80 74 66 61 59 57 56 59 64 62 63 59 58 89 92 93 93 97 97 97 97 83 89 96 96 96 96 97 98 98 98 98 99 97
70 71 62 61 60 63 72 78 78 76 70 54 60 59 58 57 56 58 63 82 82 86 90 92 91 96 96 97 97 96 94 95 94 97 96 95 99 98 96 98 98 90 89
61 61 62 58 60 71 63 63 61 56 52 45 49 50 52 66 87 86 90 95 92 87 84 88 88 94 95 97 98 98 93 88 89 91 91 97 98 98 96 96 95 96 94
63 66 65 60 59 62 53 48 46 46 47 48 48 44 51 72 78 79 86 91 87 86 86 88 92 94 96 97 99 99 97 94 88 91 89 89 98 96 95 94 94 94 95
64 61 67 62 55 55 50 45 44 45 47 48 48 47 51 63 79 83 86 88 87 85 83 87 92 94 94 95 95 97 96 96 91 87 87 89 97 95 94 94 93 93 93
67 60 58 61 52 51 52 46 45 46 46 47 50 47 48 57 68 86 84 84 85 86 85 91 94 94 95 96 96 96 96 95 92 95 94 94 94 93 93 94 94 94 92
67 61 56 54 52 48 49 50 44 46 44 43 45 46 50 54 59 67 76 79 85 85 89 93 94 93 94 95 96 96 97 95 96 95 97 96 94 91 92 93 92 91 92
69 63 56 54 52 51 47 48 47 44 44 45 43 45 52 56 63 76 78 85 88 89 88 92 95 93 91 92 93 94 98 87 88 92 95 95 94 94 94 94 93 91 91
75 66 70 75 60 52 50 50 56 60 61 58 57 63 63 68 73 81 84 85 90 90 90 94 93 91 92 94 93 93 84 82 81 77 81 95 96 95 95 95 92 94 93

GFSGL_sfc_rhum_081.txt.gz
RH
82 80 79 77 73 75 76 75 74 75 81 81 80 83 89 94 94 95 93 88 91 91 92 92 93 91 96 95 96 96 97 97 99 99 98 96 98 97 93 95 92 93 91
78 79 80 77 76 77 76 75 72 74 71 71 72 77 83 88 92 89 90 83 89 88 89 90 92 86 94 93 95 96 97 96 95 99 97 97 96 95 92 93 81 68 67
79 81 82 82 82 84 84 82 81 84 85 85 86 89 91 93 95 96 96 88 87 88 89 90 91 91 97 98 98 98 98 92 95 93 96 93 90 85 88 85 77 72 61
83 87 91 94 94 96 96 94 93 92 92 95 94 94 95 95 96 97 96 95 95 97 97 96 96 96 96 96 96 95 92 95 95 96 94 94 86 80 81 81 79 79 73
89 91 94 94 96 97 96 95 95 95 95 96 95 94 94 91 90 92 90 91 92 96 98 96 95 88 82 86 93 97 96 96 92 92 90 86 86 82 84 85 81 85 81
92 94 92 85 85 92 88 87 87 89 90 91 93 86 86 79 85 91 89 91 94 98 98 95 90 86 84 78 77 76 82 93 98 98 96 95 91 89 87 86 90 97 94
93 92 88 82 86 88 86 89 92 96 96 98 94 86 89 82 83 87 92 98 96 97 99 98 91 80 85 86 74 72 72 68 75 89 90 91 89 85 89 96 91 98 96
94 94 88 86 90 92 92 97 98 98 99 100 100 100 100 86 84 86 89 95 97 96 95 93 87 86 86 83 88 90 90 75 76 77 88 88 86 80 84 86 92 93 92
96 96 92 90 96 97 98 99 96 98 100 99 95 92 92 89 71 73 82 90 89 90 84 86 83 86 66 68 78 85 78 71 63 68 67 64 66 65 69 84 98 98 93
94 96 93 96 97 98 98 99 100 97 96 93 94 91 79 88 69 70 76 76 84 81 78 70 64 71 60 59 79 81 81 76 85 89 82 71 77 84 78 84 95 96 98
92 94 96 97 97 98 100 99 97 99 97 97 92 92 90 83 79 65 63 69 71 75 70 69 69 64 58 56 65 78 72 73 85 84 82 88 91 92 93 94 87 97 97
95 98 98 98 91 93 94 93 97 97 95 94 93 92 91 87 63 59 61 64 61 64 69 74 76 64 52 56 66 62 62 73 81 81 89 96 96 97 96 96 90 94 90
96 97 96 90 90 89 93 98 97 94 92 91 82 87 86 78 84 64 58 56 60 66 67 70 64 58 53 65 62 61 70 78 80 96 98 98 98 98 96 90 91 92 94
92 94 93 89 90 92 93 93 91 83 76 67 64 65 72 75 78 82 73 79 67 67 66 83 62 56 58 66 68 71 74 79 91 97 98 98 92 94 82 94 97 94 97
86 89 93 94 94 98 93 91 80 70 60 55 58 60 69 72 72 74 74 73 84 75 76 66 60 68 78 79 81 84 89 88 97 92 88 92 90 90 92 95 96 98 99
94 94 92 92 97 94 80 69 59 55 58 54 50 58 57 54 57 65 64 60 61 62 73 70 74 93 96 84 86 90 92 88 93 90 94 95 96 96 96 99 99 99 98
91 95 92 94 87 85 74 78 87 75 59 60 60 60 59 62 58 63 62 60 61 63 76 84 95 97 97 97 98 98 98 95 96 97 97 96 96 97 94 99 99 99 97
89 86 89 74 69 81 79 78 81 84 84 78 65 63 59 58 58 64 64 63 74 56 91 91 90 90 95 97 97 98 97 96 95 95 97 96 97 97 99 99 98 99 97
85 82 74 67 63 67 71 76 77 77 71 62 62 60 61 58 59 59 61 84 91 86 88 90 88 92 95 96 96 97 97 98 97 95 96 97 95 98 98 98 98 91 90
82 81 70 62 60 68 69 70 74 76 77 71 56 50 54 73 88 86 89 95 95 92 89 88 87 91 94 95 96 97 98 97 96 95 92 92 89 97 97 96 96 96 95
80 77 75 61 57 60 64 63 67 68 66 60 51 42 50 66 73 79 81 86 87 91 92 89 91 93 94 95 96 96 97 97 97 97 95 87 87 93 97 95 94 94 95
80 73 72 69 58 60 57 57 56 52 50 47 46 43 50 54 69 70 73 74 80 84 84 85 91 92 91 93 93 95 96 96 96 96 95 89 86 89 95 95 93 94 94
80 73 66 69 61 57 56 54 50 47 45 44 44 42 42 53 66 78 78 79 84 85 83 86 86 90 93 94 95 94 95 94 92 95 96 95 95 94 94 95 93 94 93
79 76 71 66 63 56 54 54 49 49 45 43 43 42 43 44 48 58 68 75 78 77 83 84 86 88 90 92 95 96 96 94 96 96 97 97 96 94 94 92 92 92 92
84 80 76 74 67 64 54 52 52 48 45 44 41 42 45 48 52 64 69 77 81 82 80 84 87 88 88 89 91 93 96 88 90 95 96 96 96 95 94 94 92 91 92
88 79 75 72 76 75 76 62 58 60 61 57 54 56 56 61 63 74 79 82 82 81 82 86 88 89 90 91 91 92 85 81 82 79 84 95 94 92 93 94 93 93 92

GFSGL_sfc_rhum_084.txt.gz
RH
85 83 81 79 76 76 78 78 78 80 81 80 82 85 86 88 89 92 93 89 91 92 92 92 93 91 95 95 97 97 97 98 100 99 98 96 97 96 94 94 91 92 90
80 80 80 80 80 82 82 81 78 81 79 79 80 84 88 93 94 94 94 93 91 89 90 90 91 86 93 93 94 95 96 95 96 99 96 97 96 94 92 93 81 68 73
80 82 82 84 86 91 90 88 88 89 90 90 91 94 96 96 96 97 95 86 86 87 88 89 90 90 94 96 96 96 96 94 96 96 99 93 90 88 91 85 78 74 60
85 88 91 94 95 96 96 95 95 94 95 96 96 96 96 97 97 96 94 92 93 94 94 94 95 95 96 96 96 95 92 96 94 96 98 95 87 81 81 78 74 75 75
91 92 96 97 97 96 96 96 96 96 96 95 95 95 95 94 89 91 91 91 93 96 96 94 94 87 84 87 93 95 94 95 94 96 96 93 88 83 78 86 81 82 81
94 96 94 96 95 94 91 91 93 95 94 93 93 89 86 85 88 88 88 93 94 94 95 90 85 84 81 76 73 72 82 91 98 98 99 96 91 90 89 87 91 97 92
94 95 92 84 86 87 86 89 93 97 96 97 93 87 88 86 86 93 92 98 98 97 96 93 89 85 85 87 75 79 74 70 76 88 89 90 89 87 89 96 91 97 96
96 95 91 89 89 90 92 95 99 99 99 99 100 100 100 90 84 86 90 95 95 94 93 91 88 88 86 81 88 90 82 73 81 79 88 88 87 83 82 84 91 93 94
96 94 94 89 94 95 98 99 97 99 100 100 95 92 92 91 78 76 81 89 89 90 85 85 86 84 63 69 77 84 79 70 66 70 68 65 68 66 71 87 91 99 95
94 92 92 92 96 98 98 99 100 97 96 89 94 92 80 88 67 68 73 74 85 78 73 71 64 74 56 59 78 78 78 76 89 87 79 73 83 85 79 86 96 96 98
92 94 96 95 98 98 100 100 98 95 92 96 92 93 90 85 78 64 63 68 70 77 69 70 69 63 55 55 71 75 72 75 87 82 82 92 93 92 93 94 87 96 98
95 97 98 98 96 96 97 95 93 94 94 94 93 93 90 86 65 65 64 64 63 64 68 74 76 63 51 55 72 59 62 73 80 83 90 96 96 97 96 95 89 96 93
96 97 97 93 92 89 89 94 99 96 94 94 83 89 91 78 86 60 56 58 65 68 67 69 63 58 53 65 60 61 72 78 82 96 98 98 98 97 96 90 87 91 93
95 96 93 93 94 89 87 92 97 96 93 81 76 78 82 78 78 80 74 78 65 67 67 82 62 58 62 67 69 72 75 80 92 97 98 98 96 90 92 93 97 90 98
91 94 93 90 93 93 94 96 94 87 73 68 66 61 68 70 65 73 76 72 83 73 81 65 60 67 76 79 82 85 90 89 97 98 96 90 83 92 91 97 98 99 99
91 95 97 93 96 96 97 91 77 68 63 60 53 57 54 52 53 65 70 66 63 63 77 75 74 90 95 82 85 88 93 89 98 98 97 94 96 97 96 96 97 100 99
90 93 93 93 96 97 95 78 74 77 63 64 60 57 56 56 59 64 66 62 60 63 85 90 90 94 96 97 98 98 97 97 97 97 97 97 97 97 92 96 99 100 99
95 92 92 91 89 93 85 70 76 86 88 86 71 68 61 60 60 63 66 63 80 67 93 92 90 89 92 96 97 98 98 98 99 98 98 97 97 97 96 98 99 100 98
94 94 93 91 86 85 75 74 76 80 81 72 66 62 64 60 60 59 64 85 91 93 86 89 88 91 93 95 95 96 97 98 98 99 98 96 97 97 95 96 98 91 90
91 86 84 79 75 75 74 74 77 77 79 73 63 55 54 76 91 89 86 90 94 92 89 88 89 90 92 94 95 96 97 98 98 98 98 98 98 94 94 94 95 97 96
90 90 84 73 68 64 64 66 66 70 70 70 65 58 55 65 78 79 82 84 83 87 89 90 92 93 93 93 94 95 96 96 97 97 98 97 96 96 84 86 92 96 95
92 88 88 82 72 62 60 58 60 62 62 64 64 54 59 55 65 68 71 71 73 74 77 80 88 89 91 91 92 93 92 93 94 96 96 96 96 93 85 88 94 95 95
95 88 83 82 74 69 66 60 58 56 54 54 54 47 42 52 60 72 70 68 73 79 82 82 85 88 89 91 92 91 91 90 90 92 94 95 96 95 94 94 94 94 93
94 89 84 78 76 69 64 62 59 56 53 50 48 44 42 41 46 60 71 80 82 80 82 82 82 83 86 89 92 93 93 92 95 93 94 96 96 95 94 94 93 92 91
93 89 85 81 78 78 73 79 65 56 52 50 46 44 45 44 47 57 64 80 80 80 80 80 82 84 86 87 89 90 93 83 90 93 95 96 96 95 93 93 91 90 92
96 92 88 88 92 92 95 93 92 83 87 72 55 55 55 59 59 68 74 76 79 80 80 82 85 85 87 88 88 88 79 78 81 79 84 94 94 92 92 93 92 92 91

GFSGL_sfc_rhum_087.txt.gz
RH
71 69 67 66 65 65 66 66 68 67 68 71 73 77 81 84 85 83 84 83 85 87 84 86 88 85 89 88 88 84 86 90 98 98 93 88 91 88 87 85 84 81 77
69 67 66 66 66 66 67 68 66 68 68 70 72 77 79 80 79 78 80 80 80 81 81 82 84 81 85 83 83 86 88 86 89 96 91 90 91 88 86 85 75 64 63
70 69 69 70 70 72 72 72 72 74 75 76 77 81 83 83 81 79 77 77 78 78 80 82 84 82 87 89 90 91 87 82 83 82 90 81 78 76 78 74 67 62 50
73 74 76 76 77 78 79 79 78 77 78 80 80 82 85 84 83 81 80 81 82 83 85 84 84 84 86 89 87 84 79 78 80 81 82 83 77 73 68 64 58 56 53
77 80 82 83 83 83 83 84 83 81 81 81 81 82 86 85 83 84 83 85 88 91 90 87 88 84 83 80 78 82 79 75 74 82 80 73 72 63 60 58 54 52 50
81 84 86 85 83 84 84 84 82 83 82 81 82 83 86 84 88 88 86 88 88 87 89 85 80 84 76 74 72 74 68 70 86 80 85 68 65 59 58 56 59 59 50
83 85 85 83 84 83 82 83 86 88 86 86 86 83 85 85 85 85 89 98 99 99 96 96 86 73 73 71 76 74 70 74 67 62 60 60 61 58 68 80 68 73 62
86 87 83 83 84 85 88 93 98 97 98 99 100 100 100 88 89 89 91 92 84 78 77 78 76 74 67 68 67 73 66 68 63 58 57 60 59 61 61 72 69 71 68
88 89 87 85 88 89 97 99 98 99 100 100 98 96 95 90 82 82 74 74 75 73 69 71 68 65 68 63 66 75 59 57 68 70 66 68 68 66 68 69 76 81 67
86 86 84 87 90 97 96 99 100 98 98 88 91 83 74 73 66 67 66 61 66 66 67 66 67 59 57 70 56 52 59 56 72 66 57 60 70 74 76 66 76 88 84
87 88 90 91 96 97 100 100 99 96 91 89 83 81 77 73 65 65 65 55 58 61 56 56 59 60 55 58 66 52 57 62 72 59 59 66 68 68 68 69 72 91 92
91 93 97 97 95 96 97 95 91 86 82 79 78 77 72 69 68 62 60 60 61 54 54 56 58 60 52 57 66 63 71 71 58 61 66 71 75 78 78 76 74 80 81
92 96 97 95 94 93 93 91 89 81 75 77 74 74 73 66 70 64 62 64 62 54 54 62 65 61 56 56 60 61 72 61 61 70 75 82 82 83 89 83 82 86 84
91 96 96 94 95 90 86 86 88 82 76 71 69 69 72 68 66 70 70 64 65 63 64 65 57 59 61 61 65 65 60 60 66 73 78 78 80 82 80 78 86 82 88
90 94 95 93 93 91 88 86 83 76 71 70 67 61 64 62 59 64 66 61 60 60 67 54 46 49 56 59 64 65 68 69 81 77 80 77 75 76 78 81 87 90 91
90 96 94 92 93 91 91 94 85 78 77 68 60 57 49 49 52 62 68 67 67 69 69 60 54 52 58 59 63 66 70 74 76 80 80 81 84 85 86 86 92 93 94
87 93 94 92 94 94 91 88 88 80 73 66 66 61 58 50 58 61 69 69 64 64 71 72 70 64 64 70 72 78 80 78 89 89 87 86 87 89 86 86 87 91 89
89 89 93 93 93 94 94 86 72 66 73 76 71 65 62 61 59 63 69 67 72 66 77 78 76 71 69 71 73 82 84 84 89 90 90 90 92 91 89 86 86 92 90
96 95 93 93 91 89 89 81 69 63 68 67 66 67 67 64 62 62 65 73 75 78 73 70 67 69 72 76 77 80 85 88 91 92 92 92 91 92 88 84 84 83 84
96 93 95 92 89 89 84 80 70 64 65 65 60 53 51 72 76 72 69 79 81 78 78 77 74 74 78 81 83 85 87 88 90 90 91 92 92 92 89 86 78 85 86
95 94 92 88 84 85 81 78 70 64 62 61 59 55 55 61 73 73 72 74 73 76 79 79 81 83 85 85 86 86 87 85 87 89 88 88 90 92 85 82 78 81 87
96 94 95 94 92 81 74 71 64 61 59 59 57 59 63 57 57 64 67 67 69 71 71 75 80 81 84 87 88 87 86 87 87 88 88 89 88 84 84 83 81 83 86
96 94 93 98 95 97 94 73 62 58 56 55 55 55 54 61 62 64 60 56 63 68 67 72 76 82 82 87 88 87 88 86 86 88 87 86 86 85 85 87 84 86 84
96 95 92 89 89 95 97 95 76 69 58 54 52 51 49 47 51 57 63 64 67 67 71 75 78 80 83 86 87 88 89 89 90 90 89 91 89 86 85 88 87 87 86
98 97 94 92 91 97 95 95 94 89 88 70 55 50 48 46 46 53 57 68 76 77 77 76 80 82 84 85 87 88 89 79 89 87 89 91 92 92 90 90 87 85 88
98 98 98 98 98 98 98 98 97 97 96 96 96 93 79 60 56 62 63 67 73 75 77 77 78 82 84 85 85 84 76 74 78 75 89 92 93 91 89 91 91 88 88

GFSGL_sfc_rhum_090.txt.gz
RH
53 52 53 53 54 53 54 55 58 58 59 62 66 67 70 74 80 85 86 84 87 87 80 76 78 79 84 84 85 78 78 81 89 95 90 82 81 77 71 71 73 71 66
54 52 53 53 52 51 52 54 53 56 56 58 60 62 65 70 72 75 77 76 74 73 74 75 78 77 79 77 74 77 80 80 85 93 88 83 82 78 72 74 66 56 57
55 53 53 54 53 53 53 54 55 56 57 59 61 64 66 68 66 66 67 68 68 69 71 72 73 74 80 84 82 84 81 77 78 80 85 73 70 65 66 62 56 52 42
56 56 56 56 56 56 57 57 58 57 59 60 62 65 69 68 68 67 66 68 69 70 73 74 75 76 78 80 79 77 71 70 72 75 77 77 66 62 60 56 53 46 44
58 60 62 63 63 63 64 64 62 61 62 64 65 68 72 74 71 74 74 75 78 80 80 75 76 78 77 72 71 74 72 68 67 79 78 68 69 61 56 50 46 42 41
59 62 65 65 66 68 67 68 66 67 67 66 70 72 76 75 87 83 78 79 80 84 86 82 80 79 76 75 74 68 60 64 74 73 77 61 53 48 47 46 49 51 45
60 62 66 66 68 69 69 70 72 74 73 76 77 77 80 81 85 86 85 94 99 100 99 96 78 68 70 67 71 69 71 67 59 48 46 42 46 45 63 74 59 61 50
62 64 65 67 69 72 76 82 90 87 89 93 100 99 94 84 82 87 89 89 79 74 71 64 59 55 55 54 51 61 60 54 51 42 45 47 48 51 53 69 60 57 56
66 69 70 68 73 76 86 94 94 98 100 100 99 94 90 87 84 86 74 67 65 61 57 58 58 58 63 62 60 66 51 62 68 68 69 70 68 67 61 59 72 72 61
67 68 66 74 77 83 86 97 100 99 100 93 96 88 83 81 80 72 54 48 48 51 53 54 58 50 68 56 42 44 50 47 55 54 52 58 61 70 70 59 66 92 81
70 72 74 78 83 87 99 100 100 98 94 91 81 68 57 53 56 64 58 46 45 49 53 55 54 60 57 65 49 37 38 46 66 49 46 50 53 57 57 59 64 90 90
73 78 81 84 86 92 97 97 93 88 82 75 63 61 59 56 58 63 61 50 50 43 42 42 45 59 55 58 61 59 70 64 48 48 54 59 63 68 71 71 68 74 73
76 78 82 84 89 91 91 92 89 80 74 68 60 59 58 59 55 63 59 60 57 41 42 48 62 65 54 55 60 61 70 55 50 58 63 74 76 80 89 87 85 86 95
70 74 81 90 94 92 88 85 86 83 76 66 58 56 54 56 56 59 58 59 63 55 61 61 54 50 55 45 56 63 59 51 53 62 66 69 75 83 80 77 82 82 86
70 77 88 88 92 91 87 86 84 78 73 63 53 50 54 54 51 56 59 59 57 56 57 50 45 45 51 49 51 52 51 52 64 62 73 74 72 75 77 78 81 84 89
73 82 88 90 90 89 92 92 86 82 79 66 60 54 49 47 50 61 67 65 61 60 56 48 40 38 40 39 44 49 52 60 63 72 75 76 80 81 82 80 82 86 88
73 78 83 87 90 92 96 93 95 86 79 76 74 65 62 45 56 56 64 68 66 64 64 54 53 51 48 49 52 58 68 64 90 86 84 84 83 82 83 81 82 84 85
82 84 83 84 86 92 96 90 86 77 76 72 71 68 67 64 57 60 64 69 67 66 65 66 68 62 57 58 61 68 71 72 82 82 84 84 85 85 85 83 81 86 84
90 91 87 89 89 91 97 94 82 70 59 54 58 66 65 65 65 60 64 66 69 66 67 70 65 62 61 65 68 70 74 77 81 85 84 85 85 85 83 79 77 72 75
90 92 93 97 96 94 92 93 88 80 64 55 52 51 54 68 71 66 61 67 70 68 64 63 62 64 68 74 76 76 78 78 81 83 84 84 82 82 82 79 74 78 74
96 96 95 98 98 97 90 86 84 82 71 59 51 46 51 61 70 66 66 64 67 71 71 70 72 77 81 81 81 80 82 80 81 83 83 83 82 83 74 73 72 72 75
88 93 95 98 98 99 97 96 86 80 71 62 52 48 60 54 50 56 59 62 62 63 63 70 77 78 84 87 86 84 82 83 81 83 83 83 80 76 74 74 73 74 75
95 95 94 94 96 94 98 97 96 94 76 63 55 49 50 57 57 56 54 55 59 64 64 69 75 79 78 83 85 85 86 84 83 84 84 80 79 76 76 78 76 76 74
92 94 93 91 97 97 96 95 95 96 95 94 80 55 49 49 51 57 62 60 59 58 61 67 69 73 76 82 84 85 86 85 85 86 84 86 82 77 77 79 78 80 80
99 98 98 98 98 97 97 97 97 95 97 97 96 95 92 75 52 53 55 63 69 69 67 66 76 81 82 83 83 84 84 77 84 82 83 83 83 85 84 82 79 79 83
98 98 98 98 98 98 98 98 97 97 97 95 96 97 96 96 92 78 64 62 68 72 72 74 80 84 82 83 82 80 75 72 75 78 80 82 84 83 82 86 88 85 84

GFSGL_sfc_rhum_093.txt.gz
RH
53 50 51 51 51 51 53 55 57 57 59 62 63 65 67 71 80 87 89 90 92 93 90 89 88 82 88 85 89 86 88 91 98 98 93 84 85 81 75 76 74 72 68
52 48 51 52 50 50 51 52 51 54 54 57 58 61 63 67 70 78 83 84 84 83 80 81 84 78 82 82 84 83 86 86 91 95 89 87 86 77 72 74 64 56 58
50 50 51 51 50 50 50 52 51 53 54 55 58 61 62 65 65 66 69 70 73 72 76 76 78 80 83 89 88 92 90 84 88 90 89 76 73 70 74 69 62 61 43
50 51 52 53 52 52 53 53 54 54 55 57 58 61 64 64 64 64 65 67 70 72 76 76 77 79 84 87 86 85 79 81 82 87 86 85 80 72 75 72 69 60 57
52 55 56 57 58 57 60 59 58 58 58 60 61 63 66 70 68 70 70 72 77 81 82 79 80 80 78 72 75 80 79 79 80 88 87 83 86 80 74 65 63 58 61
53 55 58 59 60 63 63 63 63 64 64 63 66 67 71 70 84 78 76 79 80 82 86 83 80 80 76 73 71 70 70 78 86 95 95 90 70 66 63 62 70 79 76
53 54 58 58 62 64 64 66 69 71 70 74 77 74 77 79 83 83 82 97 100 100 100 97 82 74 75 74 70 69 68 66 63 67 67 58 61 57 86 86 73 82 72
55 56 58 60 63 66 69 74 82 81 84 89 100 98 94 83 83 86 93 94 88 86 83 77 71 67 62 61 58 73 69 63 59 43 60 58 64 65 71 82 74 69 69
58 60 61 61 65 69 77 87 86 93 100 100 100 96 93 89 83 86 81 78 77 72 64 59 58 57 64 57 71 75 69 74 66 69 70 68 65 65 67 74 91 90 86
61 61 60 67 68 76 78 89 100 97 100 98 100 93 84 86 84 80 68 60 58 58 62 64 54 60 58 54 64 60 62 65 68 73 75 68 70 75 69 72 88 97 95
62 65 66 71 77 77 93 100 100 100 98 97 91 83 78 73 74 69 52 50 50 56 60 60 62 60 64 59 46 48 50 57 64 58 56 62 65 72 72 73 78 90 89
70 74 75 78 77 83 94 96 96 94 93 89 81 75 60 52 54 63 60 49 46 56 54 57 62 61 57 62 56 59 59 57 60 58 65 74 79 87 88 89 82 88 84
71 74 76 76 78 80 86 93 94 88 85 81 74 69 62 62 57 60 62 57 55 47 49 48 50 60 56 59 61 62 70 70 60 74 82 91 93 96 95 94 92 91 94
66 67 71 77 81 82 88 87 89 88 84 84 76 68 60 61 63 66 65 62 56 53 54 70 65 65 62 54 58 67 74 67 69 82 86 92 94 91 92 89 93 93 95
62 64 72 78 84 88 90 86 89 82 84 88 80 63 59 61 59 59 64 67 67 63 64 66 63 59 63 58 60 68 68 62 77 79 89 90 88 92 88 86 93 95 96
72 71 77 83 82 88 91 97 96 90 91 91 78 60 56 52 52 58 63 62 62 61 62 55 52 51 53 54 53 56 61 64 78 88 89 92 93 94 87 86 91 95 95
76 76 78 84 83 89 96 97 95 98 97 97 91 65 62 51 57 57 64 68 65 62 65 62 63 62 60 64 71 77 79 79 91 93 93 94 95 95 84 84 87 86 93
85 86 89 83 84 86 91 97 98 98 97 96 87 77 72 67 59 58 59 64 74 70 72 76 73 72 73 73 76 83 88 90 91 92 93 94 95 95 95 93 89 90 88
91 93 94 95 95 95 97 98 98 98 94 77 70 72 75 70 68 65 61 68 77 77 78 77 75 79 78 80 82 84 87 89 89 91 92 93 93 94 94 93 93 77 81
92 94 92 98 99 99 99 98 98 98 98 79 60 63 64 71 78 75 69 71 76 76 72 73 76 78 79 81 84 86 88 86 89 91 92 92 91 92 92 91 89 91 90
91 95 93 98 98 98 98 98 98 97 97 97 95 59 55 71 76 74 73 69 70 74 76 74 75 76 80 82 85 87 87 88 88 89 89 90 91 92 89 86 88 88 90
94 97 97 97 98 98 98 98 98 98 98 97 98 89 62 56 66 70 70 70 67 68 72 76 78 78 82 85 85 87 87 88 87 89 89 89 89 88 86 85 85 85 87
95 97 98 97 98 98 98 98 98 98 97 97 97 97 69 60 59 59 60 63 67 70 69 71 77 81 80 85 85 85 86 85 84 85 88 88 87 85 84 86 85 86 85
98 98 98 96 97 98 98 98 98 94 96 97 97 97 93 62 58 61 62 59 60 62 67 71 74 77 79 84 85 85 84 83 85 86 84 87 86 80 83 85 85 85 85
98 98 99 98 98 98 98 98 98 97 95 96 97 98 97 97 94 75 64 66 77 72 68 68 73 75 79 80 82 83 83 78 84 84 86 86 86 86 85 86 85 85 86
96 98 98 98 98 98 98 98 98 98 98 95 96 98 98 98 97 97 97 96 90 82 77 73 73 77 79 83 82 81 78 75 77 77 83 86 86 86 86 88 88 88 88

GFSGL_sfc_rhum_096.txt.gz
RH
63 60 63 66 65 69 72 74 74 73 72 74 74 76 80 85 91 94 95 96 98 97 95 94 94 92 95 95 95 94 96 96 99 100 96 90 90 89 86 84 79 80 74
66 62 61 61 62 66 67 67 66 69 69 71 71 74 75 78 85 88 89 92 93 94 90 90 92 90 94 92 92 92 94 94 96 98 95 93 92 84 80 87 66 58 61
69 68 67 64 64 64 64 62 61 64 66 70 73 76 78 78 79 82 84 85 85 85 86 85 86 88 91 93 95 96 96 94 95 95 98 85 81 78 80 80 77 68 49
69 71 72 71 67 69 69 67 68 68 71 73 73 76 79 79 79 78 77 80 81 83 85 85 86 89 93 95 95 94 92 95 94 95 92 91 87 84 88 89 80 72 66
71 74 76 75 74 74 74 73 73 73 73 74 74 78 82 81 80 88 86 90 91 91 89 86 90 88 86 85 91 91 91 93 96 97 94 94 95 92 90 76 78 72 75
74 76 75 76 76 79 79 79 80 80 79 78 82 84 88 78 79 79 82 93 93 94 95 94 87 83 77 75 74 73 77 91 93 96 98 95 88 81 75 75 84 94 86
73 74 74 74 78 81 79 81 85 88 87 92 93 88 86 86 82 82 91 98 100 100 100 98 88 84 84 86 72 72 70 67 69 82 87 76 73 72 87 90 82 90 87
74 74 73 75 79 82 85 90 92 92 91 97 100 96 95 87 83 89 92 99 97 94 91 86 90 83 81 68 80 81 80 80 74 57 72 78 79 77 82 87 83 82 82
75 78 77 76 83 86 93 93 92 96 100 100 100 97 95 94 86 86 88 88 88 84 75 72 70 71 61 60 79 86 83 83 69 68 69 66 65 66 68 87 96 96 95
77 78 77 80 85 89 93 95 100 99 100 100 100 96 87 92 83 82 78 75 74 75 77 72 63 69 64 60 79 76 88 88 86 88 80 81 83 77 68 82 95 98 98
77 79 83 86 89 91 96 100 100 100 100 100 98 93 88 86 85 79 61 62 66 74 74 74 73 71 60 54 49 66 66 73 70 76 76 79 86 83 86 87 92 96 97
83 85 88 91 90 94 97 99 99 98 98 96 91 88 80 69 79 74 60 49 55 69 71 76 74 62 62 63 54 50 53 67 76 70 75 86 90 96 96 96 90 94 96
88 90 92 92 89 85 95 97 99 95 94 92 88 86 77 69 72 65 62 59 50 58 58 60 67 64 60 63 59 62 62 75 70 85 92 96 97 98 98 97 96 92 97
89 91 92 93 88 87 93 92 94 94 92 88 86 84 77 73 75 83 78 73 60 53 52 64 64 70 65 67 69 66 88 80 80 90 95 98 98 98 98 98 97 95 97
80 77 83 86 86 91 94 91 90 85 86 88 89 87 81 74 70 74 79 78 76 65 73 80 76 70 78 71 68 79 84 78 85 91 97 97 97 97 98 97 96 96 98
74 79 87 90 88 96 96 96 85 86 84 84 82 82 70 63 60 61 65 69 69 67 74 74 73 72 72 68 66 70 78 76 85 94 97 96 96 96 96 95 95 98 98
80 80 86 89 90 96 95 98 99 97 93 92 92 90 80 58 57 59 62 67 65 66 73 71 73 69 66 69 74 79 83 84 93 94 94 95 97 97 92 95 93 94 96
87 85 93 89 92 93 94 98 98 97 98 98 96 96 90 75 62 62 60 65 80 72 79 82 80 77 75 74 80 87 90 91 92 93 96 96 97 97 98 98 96 96 97
91 94 96 97 97 96 97 99 99 99 98 99 99 95 96 96 73 67 62 69 78 84 84 82 82 83 81 82 84 85 89 92 95 97 96 96 97 97 98 97 97 85 90
94 92 92 98 98 99 99 99 99 99 98 98 99 90 99 98 89 82 78 74 78 81 81 82 82 85 85 86 86 86 90 87 93 94 93 94 95 95 96 96 96 96 93
96 97 92 98 99 99 98 99 99 99 98 98 96 98 97 91 83 82 82 80 74 77 81 82 84 86 86 87 87 89 88 88 89 91 93 93 94 95 94 93 94 93 94
95 98 98 98 99 99 98 98 98 98 96 97 98 99 99 98 78 77 80 79 76 74 77 82 83 81 84 86 85 87 87 87 89 89 90 91 91 91 92 92 92 94 94
99 98 98 99 98 98 99 99 98 98 98 97 98 98 98 98 95 71 72 76 77 76 74 81 82 84 82 84 84 84 86 85 83 86 87 88 90 90 91 91 89 90 89
97 99 98 98 99 99 98 98 98 98 98 98 98 98 98 98 97 97 78 74 79 77 78 79 78 80 83 85 86 85 84 82 85 87 83 87 88 84 88 87 86 87 86
88 97 98 98 99 99 99 98 99 98 98 98 98 98 98 98 98 92 79 75 76 84 78 75 77 78 80 82 84 86 86 83 85 83 85 86 86 87 84 86 85 86 87
80 81 84 90 97 98 98 98 98 98 98 98 98 98 98 98 98 98 98 98 98 94 85 88 91 85 84 83 85 84 83 82 82 80 83 84 86 86 84 85 88 85 87

GFSGL_sfc_rhum_099.txt.gz
RH
76 77 76 70 76 80 83 78 74 74 77 79 79 82 86 90 92 94 95 96 98 98 97 98 97 95 97 98 97 95 97 97 99 100 96 93 94 91 88 85 84 81 75
77 75 74 70 71 69 69 71 73 75 74 74 76 80 82 83 88 92 94 96 97 98 96 96 97 94 95 94 94 93 96 96 97 99 96 94 92 88 86 84 66 62 68
76 76 77 72 75 74 70 68 65 68 71 71 76 81 82 82 84 86 91 91 93 90 90 91 91 92 95 96 96 96 97 94 94 95 98 88 84 81 81 77 74 62 53
77 78 80 79 78 77 75 72 72 77 75 77 82 82 85 84 86 85 86 86 85 86 88 88 90 91 93 94 95 94 94 97 95 93 93 91 86 81 86 85 80 76 65
79 81 82 81 81 81 80 79 80 80 76 81 83 85 88 84 83 91 90 91 90 90 90 87 90 90 89 88 91 96 95 96 98 96 96 92 92 92 92 80 87 78 75
80 82 80 80 82 84 84 85 85 85 85 86 90 89 90 83 79 81 84 94 94 95 95 92 89 85 79 76 76 78 88 95 96 98 98 97 94 92 81 77 82 92 86
82 81 80 81 84 86 85 87 90 90 92 94 95 90 91 92 80 81 89 96 98 100 100 97 92 86 84 84 76 74 74 74 79 90 93 92 81 77 81 88 81 91 88
82 82 81 83 86 88 89 92 93 93 93 96 100 99 94 91 82 88 92 98 98 95 93 90 90 90 86 82 77 81 84 79 68 61 75 74 76 82 78 82 79 83 86
83 84 83 84 89 91 93 95 94 95 100 100 96 98 96 94 86 86 93 96 97 96 86 81 77 80 72 69 81 84 87 88 69 70 66 65 66 67 75 86 96 96 95
83 83 82 86 90 92 94 95 100 97 100 99 100 97 91 93 85 84 81 81 83 75 73 70 69 68 62 66 83 84 87 93 90 81 88 84 83 76 72 86 94 97 98
83 84 86 89 91 92 96 100 100 100 100 100 99 95 91 87 88 81 77 72 71 74 76 74 79 65 63 63 70 80 80 83 77 76 80 92 85 86 89 93 91 95 98
87 88 91 92 92 94 97 98 99 99 99 98 97 96 89 85 83 82 75 58 62 71 72 75 76 71 63 57 56 58 57 71 77 73 79 87 93 96 97 95 91 95 95
90 92 93 94 95 96 96 96 98 98 98 97 96 95 89 77 73 76 75 61 52 68 71 73 70 64 64 67 55 54 61 78 74 84 88 94 96 96 97 97 96 96 96
92 94 95 96 94 90 95 94 96 97 97 96 94 92 87 78 76 76 78 75 63 61 59 69 68 74 68 71 72 66 84 76 78 84 91 97 98 99 98 98 98 98 97
92 90 89 89 90 92 93 92 93 88 91 93 91 89 91 85 74 73 76 77 77 65 73 78 79 79 82 75 70 78 90 88 86 87 95 97 96 97 97 99 97 97 96
83 82 88 91 90 96 96 96 86 87 85 85 83 89 91 82 70 78 70 72 69 65 73 79 79 76 76 78 69 69 84 82 83 86 94 95 96 97 97 98 98 97 98
88 81 87 89 93 95 97 98 99 94 88 88 90 91 91 92 82 72 65 68 73 71 79 81 81 79 74 75 77 80 81 85 90 91 93 95 96 97 92 97 98 98 100
91 86 93 92 92 93 96 98 98 99 98 99 93 95 95 94 81 72 62 64 81 74 88 85 78 75 74 74 77 83 84 87 88 89 93 93 95 97 98 98 97 97 98
94 94 95 97 97 96 97 98 98 99 99 97 99 98 97 96 96 89 65 69 79 84 85 83 80 78 78 80 79 82 83 86 86 89 90 93 95 96 97 95 96 86 91
93 92 92 98 98 98 99 99 99 99 99 98 98 98 99 99 98 98 93 76 80 83 81 83 82 84 85 85 86 85 88 84 89 90 90 92 94 95 94 96 96 95 94
96 96 92 98 99 99 99 99 99 99 98 98 98 98 98 99 98 98 93 85 78 76 80 83 83 86 87 88 88 89 87 86 87 88 91 93 93 96 92 92 92 93 93
98 98 98 99 99 99 99 99 99 99 98 98 96 99 98 98 98 93 92 86 82 80 77 81 84 84 86 88 88 89 88 87 87 88 90 90 91 90 90 92 92 94 94
99 99 98 99 99 98 99 99 99 99 98 98 98 98 98 98 98 98 97 94 95 87 81 82 82 84 84 86 86 86 87 85 83 84 86 86 88 88 89 90 89 91 93
87 92 98 98 99 99 99 99 99 99 99 99 98 98 98 98 98 98 98 98 98 98 97 91 82 82 83 88 87 86 85 83 83 84 82 85 86 82 87 88 87 88 87
92 90 80 82 93 97 98 98 99 99 99 98 98 98 98 98 98 98 98 98 98 97 95 98 98 98 92 84 86 86 85 81 83 83 87 84 84 86 86 87 86 86 87
94 93 93 92 82 76 78 89 90 96 98 98 98 98 98 98 98 98 98 98 98 96 95 92 94 96 98 98 98 93 85 83 86 84 86 86 86 85 84 86 86 84 87

GFSGL_sfc_rhum_102.txt.gz
RH
84 87 89 89 89 91 91 91 86 82 85 88 83 89 90 91 92 95 96 96 97 98 98 98 98 97 99 98 98 98 98 98 98 100 97 95 96 93 90 88 84 80 79
85 85 86 86 86 85 85 82 82 83 82 76 85 87 87 86 87 92 95 95 98 98 97 98 98 98 98 96 97 96 97 96 97 99 97 97 94 91 90 83 70 64 73
84 84 83 82 80 80 77 74 75 80 80 80 82 83 82 83 85 86 89 94 94 95 95 95 95 95 97 97 97 97 97 96 94 96 98 89 86 86 87 78 68 62 58
82 82 84 83 81 80 80 79 80 82 83 85 85 84 88 89 90 90 90 92 92 90 91 92 92 94 95 96 97 96 94 97 95 94 94 92 87 84 86 83 80 71 68
84 84 86 83 83 82 82 83 84 85 86 86 88 89 89 86 86 92 92 92 92 92 91 88 90 92 92 90 94 96 95 96 98 97 96 93 93 92 90 84 84 83 78
85 86 84 84 85 86 87 88 88 89 90 90 91 90 90 86 79 80 86 93 93 94 94 90 89 89 86 83 83 85 88 96 98 98 100 96 92 88 84 81 87 92 84
86 85 84 84 86 88 89 90 91 91 92 94 94 92 91 92 81 79 87 96 98 98 99 97 91 85 85 87 78 78 80 80 83 92 94 92 93 85 85 88 81 88 83
86 86 85 86 88 91 91 92 93 94 94 96 100 99 96 92 83 84 88 97 98 96 94 92 90 87 85 78 76 83 84 73 74 77 91 89 78 80 78 79 78 81 84
88 88 87 87 91 92 92 94 94 95 96 98 96 97 97 94 86 86 90 96 98 97 91 85 84 82 78 71 79 88 91 89 69 69 69 68 70 70 75 80 89 88 93
87 86 86 89 91 92 93 95 99 96 99 98 99 99 94 95 87 84 84 87 93 87 76 74 81 74 73 69 77 82 88 93 89 88 91 84 78 73 70 75 88 93 97
84 85 87 90 91 92 94 100 98 98 99 99 99 97 92 89 86 83 82 79 81 78 78 75 74 70 68 65 73 84 78 91 78 92 89 88 87 87 90 90 86 95 98
87 89 90 91 93 94 97 98 97 98 99 99 98 98 92 87 84 83 82 75 68 74 76 74 71 71 64 63 67 71 67 76 79 75 86 89 90 93 96 94 91 93 93
91 91 92 93 95 94 95 98 99 99 98 98 99 98 95 89 79 80 79 79 61 69 67 68 68 72 71 67 57 55 57 83 76 83 88 94 95 95 97 96 95 94 95
91 93 94 95 97 95 94 94 97 98 98 99 99 98 93 91 81 76 86 86 73 64 65 75 73 73 72 76 70 64 83 78 79 82 89 94 97 98 96 97 98 99 97
92 94 92 92 92 94 95 94 94 89 93 96 95 93 94 93 83 73 77 85 85 73 67 72 78 86 87 82 78 80 89 83 84 86 93 96 94 95 95 98 97 98 97
88 90 92 94 93 96 95 95 87 88 86 86 86 88 90 85 85 78 80 80 74 71 73 81 81 83 85 80 74 73 84 86 90 88 94 94 94 96 97 99 98 97 98
91 91 92 91 93 95 98 98 99 93 88 89 88 87 88 90 91 91 90 82 72 72 75 83 87 88 87 84 86 85 82 88 94 93 93 94 96 96 92 98 98 98 98
93 88 94 95 96 94 96 98 98 99 99 97 90 89 88 88 88 94 96 84 83 79 84 90 89 84 82 83 83 87 88 92 92 92 92 92 94 95 98 98 97 95 96
96 96 95 96 97 96 97 98 98 98 99 98 98 94 94 93 90 89 88 97 79 84 92 96 90 84 81 83 84 86 87 89 90 91 91 90 92 94 93 94 94 89 91
96 92 91 98 98 98 99 99 99 99 99 99 99 98 99 99 99 98 98 98 82 78 86 87 89 88 88 87 88 87 89 85 88 89 88 89 89 90 91 93 93 95 92
98 98 96 98 99 99 99 99 99 99 99 99 98 98 98 98 98 98 98 98 97 84 81 83 85 88 88 88 90 90 88 86 85 85 87 87 89 94 87 88 92 92 92
97 98 99 99 99 99 99 99 99 99 99 99 98 99 97 98 98 98 98 98 98 97 83 80 84 85 86 88 88 89 89 87 86 86 86 88 88 88 88 90 91 93 92
96 96 98 98 99 99 99 99 99 99 99 99 98 98 99 98 98 98 98 98 98 98 98 98 87 85 85 87 87 87 88 87 84 86 87 87 87 88 87 90 89 90 91
91 93 95 94 92 96 99 99 99 99 99 99 99 98 98 98 98 98 98 98 98 98 98 98 98 98 91 92 89 88 88 86 87 89 85 86 86 82 86 87 86 85 84
93 94 91 93 91 86 77 80 89 96 97 99 98 97 95 97 98 98 98 98 98 98 98 98 98 98 97 98 98 97 92 85 86 87 88 84 85 84 83 85 83 84 86
89 90 92 94 94 91 82 80 78 77 84 82 83 92 97 98 98 98 98 98 98 98 98 98 98 97 98 98 98 98 100 99 99 90 85 87 86 85 83 84 86 85 86

GFSGL_sfc_rhum_105.txt.gz
RH
96 94 95 95 93 92 92 92 92 91 92 91 91 93 92 92 91 94 95 96 97 97 97 97 97 97 99 99 99 99 99 98 99 100 99 97 97 94 92 90 84 84 82
93 94 94 93 94 94 93 90 88 87 81 89 89 89 89 87 87 91 94 94 96 97 97 97 98 98 98 98 98 98 98 98 97 99 98 99 96 93 90 89 78 65 76
91 92 92 92 88 88 87 84 82 83 85 80 88 88 88 88 89 90 90 92 95 96 96 97 97 96 98 98 97 98 97 97 95 97 99 94 93 94 90 77 71 65 63
89 88 89 88 85 84 84 83 82 81 79 88 89 89 90 90 91 92 92 93 94 94 94 94 95 96 97 96 97 96 97 98 96 95 96 94 90 88 89 84 80 67 64
87 87 89 87 85 86 85 87 87 87 88 89 90 91 90 88 89 93 94 94 95 94 93 93 94 92 91 91 96 97 97 98 98 98 97 94 97 97 94 87 86 74 70
87 87 85 85 86 87 89 90 90 91 91 91 92 91 91 88 80 79 86 96 94 95 96 94 92 87 86 84 85 85 89 96 98 100 100 97 92 92 88 84 84 82 82
86 86 86 86 87 89 91 91 92 92 92 94 96 95 93 93 82 81 84 96 97 99 99 97 92 84 86 88 83 82 81 82 85 93 95 93 92 86 86 88 80 83 80
86 87 87 88 90 92 92 92 93 94 93 97 99 97 97 92 83 79 86 95 96 96 96 94 93 89 86 82 78 82 78 71 78 88 92 90 89 88 83 84 79 81 83
88 88 88 88 91 92 92 93 94 95 96 96 96 98 99 95 86 84 87 95 96 97 93 87 88 86 83 78 81 86 82 85 68 71 73 72 70 74 75 77 87 85 91
89 88 88 90 91 93 92 94 99 95 98 98 99 96 98 97 87 85 88 87 95 92 85 76 85 82 82 74 74 81 86 90 90 90 93 86 82 77 68 74 85 88 97
86 87 89 91 92 92 94 99 100 97 96 99 99 96 98 94 89 82 82 84 86 86 83 80 75 82 78 74 73 74 73 84 83 94 93 91 89 89 91 88 85 93 96
87 88 90 92 93 94 97 99 97 97 99 99 98 98 96 90 84 85 82 82 76 82 80 77 74 74 74 70 76 73 67 78 84 90 88 93 91 94 96 96 91 92 92
90 90 91 93 94 95 97 98 99 98 99 99 99 98 97 96 92 81 82 81 80 77 73 70 68 69 75 67 61 59 63 89 78 87 94 95 95 96 97 96 95 94 96
92 92 94 95 96 97 96 94 98 99 99 99 99 99 96 97 94 86 79 89 84 85 71 79 71 70 69 79 76 70 84 85 84 87 89 92 96 98 97 97 98 98 97
92 94 95 96 96 97 96 95 96 93 94 98 97 97 98 97 92 82 80 81 87 82 78 74 78 85 89 85 83 84 88 85 90 87 94 96 92 95 97 98 98 98 97
92 92 94 95 97 97 97 95 87 89 86 87 87 90 93 86 83 86 86 80 78 78 88 77 81 81 85 87 83 78 86 86 89 89 92 92 94 96 96 99 98 97 96
92 92 94 92 94 95 98 98 98 91 87 89 89 89 88 88 90 90 90 86 84 84 92 86 83 88 84 90 95 92 90 88 95 93 92 94 96 96 91 97 97 96 95
94 89 96 96 96 96 97 97 97 98 98 96 87 89 88 88 89 89 92 87 97 90 95 91 88 88 90 92 92 91 91 92 93 93 95 93 94 95 97 97 96 96 95
97 97 97 97 97 96 97 98 98 98 98 98 98 94 91 88 89 89 87 98 98 94 94 95 92 91 89 89 89 91 92 92 91 92 92 92 92 93 93 93 95 90 91
98 97 95 98 98 98 99 99 99 99 99 98 99 98 99 98 99 99 98 98 98 94 87 94 95 94 92 91 90 90 91 88 89 91 90 92 91 91 90 90 92 92 91
95 96 97 99 99 99 99 99 99 99 99 99 98 98 97 99 98 98 98 98 98 97 90 89 91 93 92 91 92 92 91 90 88 88 89 89 90 93 87 86 88 90 91
94 98 98 99 99 99 99 99 99 99 99 99 98 99 97 99 99 98 98 98 98 98 95 96 89 87 88 90 90 91 91 90 89 89 88 88 87 87 85 86 89 92 90
95 94 96 96 96 96 99 99 100 99 99 99 99 99 99 99 99 99 98 98 98 98 98 98 98 94 89 89 89 89 90 89 87 88 88 88 87 86 86 88 86 89 90
90 90 91 90 90 90 91 89 92 96 98 99 99 99 99 99 99 99 99 99 99 98 98 98 98 98 98 97 94 91 90 88 88 88 86 88 88 84 86 85 85 84 84
88 91 91 93 91 90 88 85 84 83 81 81 82 86 90 94 98 98 99 99 99 99 98 98 98 98 98 98 98 99 98 97 98 94 91 88 89 88 86 87 84 84 84
82 82 85 88 91 89 90 88 86 87 87 86 84 90 89 89 90 92 93 94 98 98 98 98 98 98 98 98 98 99 100 100 99 99 98 97 94 90 86 87 88 87 87

GFSGL_sfc_rhum_108.txt.gz
RH
98 97 97 97 95 95 95 95 94 94 94 94 94 94 94 93 93 94 95 95 95 96 96 94 96 95 98 98 98 99 99 100 99 100 99 98 98 97 95 90 88 87 85
96 96 97 96 95 96 95 94 93 93 93 93 92 92 92 91 91 91 92 94 95 96 97 97 95 97 97 97 98 99 99 98 98 99 99 99 98 95 93 90 74 69 81
96 96 96 96 95 94 91 89 88 88 90 91 91 91 90 91 90 92 92 92 94 96 97 97 97 97 98 98 98 99 98 98 96 97 99 96 96 96 94 82 74 75 71
94 94 94 94 92 90 89 87 86 85 87 89 90 89 91 91 92 93 93 94 94 95 95 95 95 96 98 98 98 97 97 98 96 97 97 96 93 95 91 86 81 69 64
92 92 93 92 91 90 90 91 91 90 91 90 92 92 91 90 92 93 94 95 94 94 94 94 93 91 90 91 97 96 97 98 99 99 98 95 97 99 97 91 88 74 69
91 92 91 90 89 90 91 92 92 93 93 92 93 92 92 89 82 80 89 94 94 94 95 94 93 88 89 83 83 84 90 97 98 100 100 98 95 95 94 90 86 84 82
89 90 89 90 90 91 92 92 93 93 94 96 98 96 94 93 82 82 87 96 98 96 97 96 94 87 87 88 82 82 82 83 86 94 96 94 94 91 90 92 85 86 80
91 91 90 90 92 93 92 93 94 94 95 99 99 100 98 92 83 80 83 94 94 94 96 96 96 94 88 89 82 84 81 76 76 87 94 92 88 87 85 88 81 78 78
91 91 90 90 92 93 94 94 95 96 97 97 96 96 98 95 85 83 89 94 93 94 95 87 88 89 82 83 83 87 81 82 74 72 75 75 73 81 78 79 84 83 83
91 90 90 90 91 92 93 95 99 95 100 99 99 96 93 98 88 82 88 88 91 91 90 78 73 86 81 80 77 80 85 84 87 85 83 87 88 81 71 80 86 88 95
89 90 91 92 92 92 95 100 100 98 97 99 98 94 95 96 95 83 81 91 91 90 93 91 78 71 82 81 78 73 73 79 83 85 86 90 88 88 88 87 81 94 95
89 90 92 93 93 94 97 99 98 97 98 99 98 98 96 92 87 85 83 83 85 84 82 88 86 72 74 76 77 80 70 73 85 84 85 94 93 98 96 94 90 91 95
90 91 92 93 95 95 99 99 99 98 99 99 99 99 97 93 92 85 82 81 82 88 76 73 68 67 70 77 65 69 61 86 77 86 90 97 96 96 98 96 95 95 96
92 93 94 95 96 96 96 97 98 99 99 99 99 99 97 97 95 92 87 85 82 90 82 83 77 69 70 81 83 73 75 85 82 86 97 98 98 99 97 96 98 97 98
90 93 95 95 96 97 97 97 97 95 95 99 98 97 98 98 94 87 88 87 87 86 84 80 78 84 92 93 89 87 85 86 95 94 95 96 96 97 95 98 98 98 98
93 94 95 96 96 97 97 96 88 88 86 87 87 92 95 88 85 84 85 85 83 76 91 81 87 87 91 94 94 88 88 87 93 91 93 94 96 98 97 98 98 98 98
94 93 94 92 96 96 98 98 98 91 88 90 90 89 89 89 89 90 88 87 83 82 98 91 94 90 91 95 96 95 94 93 96 96 96 96 97 96 91 97 98 98 98
96 91 97 97 97 97 97 97 97 98 97 96 86 88 88 87 88 90 88 90 98 92 99 96 92 92 93 95 95 96 96 97 95 94 96 94 94 95 98 98 96 96 96
98 98 98 98 98 97 97 98 98 98 98 98 97 92 92 90 87 86 86 98 98 98 96 95 96 94 93 95 95 95 94 95 95 93 94 94 94 94 94 93 95 89 91
94 97 96 99 99 99 99 99 99 99 99 99 99 99 99 98 100 99 98 99 99 98 96 91 92 95 94 95 96 94 95 93 94 94 93 92 93 92 92 92 92 93 90
86 92 91 99 99 99 99 99 99 99 99 99 99 99 97 100 99 99 99 99 99 99 98 96 93 96 97 96 95 95 95 93 92 92 92 92 92 94 89 88 88 89 86
90 97 95 98 98 98 99 99 99 99 99 99 99 99 97 99 99 99 99 99 98 98 98 98 98 93 96 98 94 93 93 94 92 92 91 90 88 88 86 87 88 89 89
90 89 89 92 92 88 96 96 98 99 99 99 99 99 99 99 99 99 99 99 99 99 99 99 99 99 98 98 98 98 96 92 90 90 91 90 89 87 86 86 85 87 90
85 88 88 88 88 90 89 89 90 83 82 84 87 91 92 93 97 99 99 99 99 99 99 99 99 98 99 99 99 98 98 97 97 95 89 91 91 87 88 87 84 85 85
82 84 85 88 87 88 87 87 88 88 88 86 85 90 88 86 93 96 97 96 97 98 98 98 99 98 99 99 99 99 99 100 99 98 98 98 97 92 88 89 87 86 85
77 77 79 85 89 87 88 90 95 96 97 89 87 94 93 90 90 96 96 98 99 96 93 94 97 98 98 99 99 99 100 99 99 100 98 98 97 96 96 96 92 86 86

GFSGL_sfc_rhum_111.txt.gz
RH
95 95 94 94 94 93 90 86 84 83 83 83 83 82 81 80 80 80 82 82 81 83 85 84 80 78 86 85 87 89 95 98 97 99 94 93 97 94 95 92 92 86 86
92 92 90 88 86 86 85 83 80 82 81 81 78 76 75 76 74 73 76 78 80 82 84 84 78 83 85 84 84 88 93 95 100 99 96 97 95 92 89 90 78 75 82
90 90 90 88 86 83 82 79 76 77 78 76 74 74 74 74 73 73 73 75 77 80 82 83 84 84 87 87 88 90 92 94 98 97 98 95 96 95 95 87 78 79 76
89 88 89 86 84 80 77 76 75 74 75 75 74 75 76 76 76 76 76 75 78 79 82 81 81 83 86 87 89 90 91 92 94 96 96 96 93 94 90 90 86 76 69
86 86 87 84 80 78 78 77 75 74 76 76 76 77 78 80 78 79 80 80 80 81 82 80 82 84 85 83 87 87 88 92 95 98 98 96 98 99 98 92 92 86 77
83 84 83 80 79 80 80 80 78 80 80 78 80 79 82 82 83 86 82 81 84 84 85 82 80 82 81 82 82 82 84 89 96 98 100 98 94 94 96 94 90 86 85
80 80 79 77 79 80 80 80 82 83 83 86 84 81 83 84 84 85 86 85 89 89 92 91 85 79 80 76 78 79 80 83 86 88 93 91 91 87 93 94 86 84 83
82 81 79 78 80 81 81 83 88 87 96 96 98 94 89 84 82 79 86 86 82 81 85 86 84 82 80 81 80 80 82 77 82 75 90 87 88 86 87 90 84 79 74
84 82 81 79 83 83 87 89 87 90 99 99 93 95 94 86 83 82 88 84 82 80 80 78 78 82 80 82 82 83 78 80 74 82 78 77 77 82 80 82 84 85 80
83 83 81 82 82 85 86 91 99 91 99 96 96 89 94 89 87 83 87 81 81 78 77 73 73 72 84 81 78 70 74 78 83 81 80 80 81 79 74 75 84 97 89
84 85 86 85 86 86 92 98 98 97 95 96 93 88 87 89 83 84 82 85 84 82 78 75 70 73 74 80 80 69 65 70 82 78 79 79 78 78 78 76 73 97 97
86 87 88 88 87 87 93 97 93 90 90 94 92 91 86 83 86 85 83 82 86 85 83 74 71 74 74 77 74 81 75 68 80 78 81 83 82 84 84 86 81 83 80
86 87 87 87 87 86 93 95 91 90 91 94 95 94 87 87 81 84 83 82 81 91 81 75 72 69 68 70 75 73 72 80 75 80 82 87 87 88 93 91 93 94 96
84 85 87 87 88 86 90 90 87 90 91 96 96 96 89 88 86 85 82 80 80 84 88 84 76 69 69 71 77 71 67 72 77 77 77 81 87 91 87 87 90 90 91
93 94 93 92 90 89 90 88 86 84 89 95 95 94 91 91 90 84 85 84 80 81 85 79 75 68 68 72 77 75 70 69 81 77 79 82 82 86 86 88 89 90 87
90 91 92 92 92 96 93 88 88 89 87 87 85 86 89 85 84 83 83 84 84 83 86 83 82 76 72 68 73 75 74 75 79 84 82 82 85 89 90 91 91 90 88
92 92 89 86 88 91 93 96 98 90 90 91 90 89 88 90 89 89 88 88 87 86 97 95 93 88 82 77 76 80 83 81 92 92 90 89 89 89 89 92 92 90 90
92 90 93 92 93 91 92 94 95 96 93 91 86 89 89 89 90 89 88 90 98 94 97 98 97 92 88 84 82 86 85 85 88 90 92 92 92 91 92 92 91 92 90
93 96 96 98 98 96 96 95 95 95 96 95 94 90 90 89 91 88 86 98 99 98 97 97 94 91 87 88 87 87 89 90 92 92 92 93 93 93 92 89 89 86 87
80 87 90 98 98 99 99 99 99 99 99 99 99 98 99 98 100 99 98 99 99 99 99 97 94 93 94 94 93 91 93 92 93 93 91 91 92 92 91 89 86 89 86
80 87 84 95 99 98 99 99 99 99 99 99 99 99 97 99 99 99 99 99 99 99 99 98 97 95 96 97 97 96 95 93 93 94 93 91 91 94 86 84 84 85 84
79 82 82 86 89 88 95 98 99 99 99 99 99 100 98 99 100 99 99 99 99 99 99 99 99 98 97 99 99 99 96 95 94 93 92 92 90 87 85 86 84 86 87
77 77 76 77 77 80 83 83 89 86 87 90 93 97 98 99 99 99 99 99 99 99 99 99 99 99 99 100 100 100 100 97 98 98 94 93 91 88 88 88 85 85 84
74 75 76 76 76 77 78 81 80 77 78 79 82 82 83 82 82 86 90 91 98 98 99 99 99 99 99 100 100 100 100 100 100 100 99 98 95 91 91 88 84 84 81
73 72 74 76 77 76 76 79 80 80 82 79 79 83 82 78 78 79 80 86 92 88 87 91 96 98 98 99 100 100 100 99 100 98 99 99 97 95 94 94 89 85 84
72 71 72 75 80 78 78 82 88 89 91 86 85 87 88 86 82 85 87 90 94 88 91 90 89 94 91 90 88 85 86 94 98 99 99 98 96 95 94 95 95 94 95

GFSGL_sfc_rhum_114.txt.gz
RH
94 91 88 86 87 89 94 97 94 97 92 88 84 79 77 75 72 71 71 69 68 72 72 70 70 66 68 69 75 76 83 84 93 91 85 81 91 86 86 85 91 87 86
92 92 94 96 96 97 96 90 88 85 78 76 73 71 67 66 63 63 64 62 62 64 67 66 65 67 68 73 70 75 84 81 97 98 92 91 91 87 87 90 84 77 82
87 88 90 90 89 88 85 79 76 74 71 68 64 65 63 61 58 55 55 57 59 61 65 66 69 69 74 78 77 83 82 83 85 95 94 92 92 93 96 89 82 87 85
84 84 85 83 81 80 77 74 71 66 66 64 60 59 60 57 56 57 56 59 61 64 69 68 68 69 70 73 75 73 77 83 85 94 94 94 88 91 91 92 90 84 84
80 81 80 78 76 75 74 70 64 62 62 61 60 59 59 60 60 62 62 63 65 68 73 68 72 78 82 78 72 75 78 81 82 95 98 94 96 98 97 95 96 92 85
77 78 76 72 70 71 70 68 66 63 62 61 62 63 65 65 85 78 70 68 68 68 71 70 68 78 74 79 83 83 82 81 91 95 99 98 92 92 96 97 93 94 96
70 70 69 67 68 68 66 68 68 69 67 68 67 67 70 73 86 83 79 72 75 77 78 78 72 67 73 65 70 75 74 80 82 87 95 87 89 84 94 98 92 91 92
65 66 64 64 66 66 66 70 76 75 78 79 82 76 80 77 85 84 82 73 69 69 70 71 69 66 67 72 71 74 72 67 72 79 78 82 85 82 88 93 90 84 77
65 65 64 63 66 66 74 76 75 83 93 90 83 78 78 78 85 85 78 69 71 68 65 64 65 67 74 79 80 85 68 67 68 84 84 86 81 81 85 88 92 91 86
64 64 61 64 65 68 71 78 88 79 93 83 84 80 77 71 85 83 77 64 67 64 64 60 74 67 76 82 77 72 71 62 69 74 74 76 78 80 78 79 91 100 94
65 66 66 65 68 69 77 80 83 86 89 90 84 75 73 70 69 84 85 68 64 65 66 66 59 72 73 79 81 74 71 58 68 68 70 75 74 76 78 79 82 100 100
68 70 70 70 70 70 76 84 74 74 74 76 72 76 69 65 80 81 84 81 76 72 73 68 65 70 74 76 77 79 76 67 62 64 72 74 78 82 85 85 83 85 85
68 69 69 67 66 65 65 72 67 67 65 71 82 78 70 69 63 85 83 82 81 83 83 78 73 71 70 69 75 73 77 68 66 69 73 81 85 90 97 94 94 97 100
72 71 68 67 66 64 68 67 64 67 68 74 82 80 70 70 69 68 72 73 81 80 84 85 77 73 68 62 64 70 64 60 62 67 70 72 81 90 87 87 95 94 96
94 95 93 89 83 80 78 72 69 65 72 76 78 75 76 77 74 74 74 75 72 74 78 78 76 73 74 67 61 61 62 61 67 66 74 77 76 80 83 88 92 95 95
72 82 89 90 93 98 96 96 93 92 90 89 88 87 89 81 80 82 83 84 84 84 85 79 78 79 80 75 64 59 59 65 67 73 78 81 85 89 90 92 93 93 90
78 78 74 73 70 74 87 98 99 95 94 94 92 91 90 89 89 88 88 88 87 86 96 91 91 92 90 86 80 74 78 69 99 96 94 94 95 93 91 90 90 88 87
80 87 84 81 84 81 80 82 83 86 85 83 85 90 90 92 93 94 91 90 98 94 98 96 95 94 93 91 89 90 87 82 89 92 98 100 100 100 94 92 88 88 86
84 86 85 92 94 96 95 93 91 89 87 81 81 85 87 88 89 90 89 98 98 99 98 97 94 94 93 92 91 92 95 100 100 100 100 100 100 100 95 91 88 81 82
78 77 81 95 97 98 98 99 98 98 97 96 96 96 96 98 100 99 99 100 100 99 99 98 97 96 95 97 99 100 100 100 100 98 99 100 99 97 93 89 83 89 84
73 72 75 72 76 86 96 99 99 98 98 98 98 99 97 99 99 99 99 99 99 99 99 99 98 99 100 100 100 100 100 100 100 100 100 99 98 95 84 80 79 82 85
65 70 70 69 70 69 75 78 85 92 98 99 98 99 98 99 99 99 99 99 99 99 99 99 99 99 100 100 100 100 100 100 100 100 99 96 94 89 85 82 80 82 85
69 67 68 68 69 72 70 67 72 72 72 75 77 84 93 96 96 98 99 100 100 99 99 99 99 99 100 100 100 100 100 100 100 100 100 97 94 94 92 91 86 85 81
63 58 58 59 63 62 64 66 66 71 70 69 68 70 73 71 69 73 75 78 80 79 83 95 98 99 100 100 100 100 100 100 100 100 100 100 97 93 93 94 92 89 84
66 58 56 58 62 62 62 64 67 68 70 71 69 68 71 71 70 70 67 71 78 79 78 78 82 84 88 89 90 91 96 97 100 99 99 99 100 100 97 95 91 90 93
65 58 56 60 64 67 68 70 75 78 80 76 77 78 76 78 75 76 76 78 81 82 82 78 79 85 88 87 85 82 74 74 81 79 92 99 98 95 95 96 93 92 92

GFSGL_sfc_rhum_117.txt.gz
RH
96 97 97 95 94 96 94 96 98 99 98 98 98 98 97 96 92 85 81 79 79 80 78 74 73 69 75 76 80 80 80 90 95 86 92 86 86 87 86 89 94 92 93
97 95 92 92 91 94 90 94 94 95 97 95 96 94 91 87 79 75 73 71 70 71 71 70 68 66 72 73 75 76 86 88 96 95 93 93 91 86 86 92 88 80 88
95 89 93 97 92 95 95 96 96 94 92 90 84 84 78 73 69 65 62 60 60 61 66 68 68 69 72 83 84 86 83 83 90 98 96 92 93 94 96 90 85 90 84
96 96 97 95 94 94 92 93 91 89 86 78 74 68 66 62 60 58 57 58 61 62 69 68 67 69 72 74 79 78 78 81 80 83 96 96 93 91 95 95 94 88 89
90 91 91 88 87 88 88 89 85 82 75 70 64 61 60 62 59 62 65 66 69 72 77 70 76 80 84 82 76 78 79 81 82 93 94 96 97 99 99 96 98 96 93
82 83 82 80 81 81 79 74 78 76 69 65 65 64 66 60 81 75 70 71 71 72 74 72 68 81 77 77 83 83 87 86 87 89 99 99 96 95 98 98 97 99 99
80 77 75 73 75 76 72 75 80 77 70 70 70 69 72 78 83 80 76 75 79 82 83 83 75 66 77 68 77 77 79 78 80 86 89 88 95 88 95 99 97 97 97
73 76 74 72 73 72 74 74 78 78 79 80 81 78 84 85 85 82 82 80 76 74 72 73 72 70 70 74 73 80 80 75 73 76 84 80 83 86 91 94 95 91 81
65 66 66 66 69 68 78 80 79 84 88 86 81 82 84 89 89 85 78 75 78 74 66 66 67 69 77 78 82 92 79 74 72 80 78 79 82 84 86 92 96 96 94
62 64 64 67 67 72 79 81 87 85 90 86 84 78 78 79 89 87 80 67 73 68 68 64 75 68 78 81 81 78 87 76 77 81 77 78 77 79 81 85 97 100 98
65 66 67 66 72 73 81 84 85 89 88 86 83 76 73 69 78 85 85 71 69 69 72 72 64 74 74 74 80 85 83 71 67 81 76 79 80 82 84 83 87 100 100
65 68 70 71 70 73 80 80 80 81 82 80 76 76 72 68 78 85 85 85 75 75 78 74 72 69 73 74 77 74 79 77 80 76 78 80 86 92 95 95 93 94 95
63 64 66 65 65 65 68 70 70 69 70 71 77 79 74 70 66 82 84 84 82 85 82 82 76 71 71 71 73 75 76 90 86 87 88 94 96 98 98 98 98 100 100
80 79 76 67 64 60 65 64 64 65 66 70 80 84 74 74 72 73 82 83 85 85 87 92 86 79 73 69 68 74 85 84 82 88 91 94 96 98 97 97 98 97 95
94 97 97 96 93 89 86 82 76 70 78 77 78 80 79 81 77 73 75 77 79 82 86 92 92 87 84 81 81 75 77 80 87 86 92 94 94 96 96 97 97 91 95
66 72 79 87 95 99 99 98 95 96 95 95 94 95 93 89 84 84 85 83 79 78 88 88 86 87 86 83 81 78 76 74 85 89 94 95 96 96 97 93 96 98 97
76 76 72 70 70 70 78 97 99 95 97 97 97 97 96 93 94 93 91 90 87 87 98 93 94 91 89 89 88 90 88 89 96 98 97 97 98 90 89 97 94 97 97
78 84 82 82 86 84 88 92 91 91 92 94 94 96 95 95 96 95 92 92 98 94 98 98 96 95 95 95 93 93 94 95 96 97 97 97 98 97 90 89 96 96 96
75 77 81 91 90 96 99 99 98 97 95 89 86 85 85 87 90 91 92 98 98 98 98 98 96 96 96 95 95 95 96 100 99 99 96 97 96 96 95 94 95 84 87
65 70 73 84 85 96 98 99 99 99 99 99 99 98 96 96 100 99 99 100 99 98 99 99 98 98 98 98 98 99 100 100 100 99 97 92 91 94 95 94 93 94 92
63 62 68 66 70 75 78 94 98 98 98 99 99 99 96 99 99 99 99 99 99 99 99 99 100 100 100 100 100 100 100 100 99 99 99 98 91 91 88 93 93 92 92
60 63 65 66 68 68 71 77 76 80 83 92 96 98 97 99 99 99 100 100 100 100 100 100 100 100 100 100 100 100 100 99 100 100 99 99 98 96 92 91 91 91 92
71 67 61 62 66 69 74 70 73 73 71 71 74 78 84 90 94 96 98 99 99 99 100 100 100 100 100 100 100 100 100 100 100 100 99 99 98 98 98 97 94 92 91
67 63 59 56 58 62 64 64 65 67 70 70 69 69 74 74 72 74 79 84 87 88 92 92 98 99 99 97 98 100 100 100 100 100 100 99 98 98 98 98 98 98 97
70 65 57 55 58 59 59 62 64 66 69 71 72 71 71 74 75 77 76 79 86 88 88 88 93 92 91 93 93 92 91 84 93 98 99 99 99 98 98 98 97 97 98
73 66 59 58 64 65 68 71 76 78 82 78 79 82 82 83 82 84 84 85 89 86 89 90 90 90 92 94 93 89 76 74 79 76 88 96 98 96 96 96 97 97 97